[[{"header":{"parameterUnit":"m.s-1","parameterCategory":1,"la1":30.6,"la2":29.2853,"lo1":-89.7004,"lo2":-87.6739,"dy":0.0162,"dx":0.0183,"nx":112,"ny":82,"refTime":"2023-06-02T06:00:00:Z","depth":0,"parameterNumber":2,"parameterNumberName":"U-component_of_WINDS"},"data":[0.0,0.0,0.0,0.0,0.0,0.0,0.0,0.0,0.0,0.0,0.0,0.0,0.0,0.0,0.0,0.0,0.0,0.0,0.0,0.0,0.0,0.0,0.0,0.0,0.0,0.0,0.0,0.0,0.0,0.0,0.0,0.0,0.0,0.0,0.0,0.0,0.0,0.0,0.0,0.0,0.0,0.0,0.0,0.0,0.0,0.0,0.0,0.0,0.0,0.0,0.0,0.0,0.0,0.0,0.0,0.0,0.0,0.0,0.0,0.0,0.0,0.0,0.0,0.0,0.0,0.0,0.0,0.0,0.0,0.0,0.0,0.0,0.0,0.0,0.0,0.0,0.0,0.0,0.0,0.0,0.0,0.0,0.0,0.0,0.0,0.0,0.0,0.0,0.0,0.0,-3.016,-3.0732,-3.0672,-3.0642,-3.0791,-3.0672,-3.0642,-3.0762,0.0,0.0,0.0,0.0,0.0,0.0,0.0,0.0,0.0,0.0,0.0,0.0,0.0,0.0,0.0,0.0,0.0,0.0,0.0,0.0,0.0,0.0,0.0,0.0,0.0,0.0,0.0,0.0,0.0,0.0,0.0,0.0,0.0,0.0,0.0,0.0,0.0,0.0,0.0,0.0,0.0,0.0,0.0,0.0,0.0,0.0,0.0,0.0,0.0,0.0,0.0,0.0,0.0,0.0,0.0,0.0,0.0,0.0,0.0,0.0,0.0,0.0,0.0,0.0,0.0,0.0,0.0,0.0,0.0,0.0,0.0,0.0,0.0,0.0,0.0,0.0,0.0,0.0,0.0,0.0,0.0,0.0,0.0,0.0,0.0,0.0,0.0,0.0,0.0,0.0,0.0,0.0,0.0,0.0,0.0,0.0,0.0,0.0,0.0,0.0,0.0,0.0,0.0,0.0,-3.0702,-3.0791,-3.0672,-3.0642,-3.0791,-3.0672,-3.0598,-3.0642,0.0,0.0,0.0,0.0,0.0,0.0,0.0,0.0,0.0,0.0,0.0,0.0,0.0,0.0,0.0,0.0,0.0,0.0,0.0,0.0,0.0,0.0,0.0,0.0,0.0,0.0,0.0,0.0,0.0,0.0,0.0,0.0,0.0,0.0,0.0,0.0,0.0,0.0,0.0,0.0,0.0,0.0,0.0,0.0,0.0,0.0,0.0,0.0,0.0,0.0,0.0,0.0,0.0,0.0,0.0,0.0,0.0,0.0,0.0,0.0,0.0,0.0,0.0,0.0,0.0,0.0,0.0,0.0,0.0,0.0,0.0,0.0,0.0,0.0,0.0,0.0,0.0,0.0,0.0,0.0,0.0,0.0,0.0,0.0,0.0,0.0,0.0,0.0,0.0,0.0,0.0,0.0,0.0,0.0,0.0,0.0,0.0,0.0,0.0,0.0,0.0,0.0,0.0,-3.0657,-3.0762,-3.0702,-3.0642,-3.0612,-3.0702,-3.0642,-3.0598,-3.0598,-3.0672,0.0,0.0,0.0,0.0,0.0,0.0,0.0,0.0,0.0,0.0,0.0,0.0,0.0,0.0,0.0,0.0,0.0,0.0,0.0,0.0,0.0,0.0,0.0,0.0,0.0,0.0,0.0,0.0,0.0,0.0,0.0,0.0,0.0,0.0,0.0,0.0,0.0,0.0,0.0,0.0,0.0,0.0,0.0,0.0,0.0,0.0,0.0,0.0,0.0,0.0,0.0,0.0,0.0,0.0,0.0,0.0,0.0,0.0,0.0,0.0,0.0,0.0,0.0,0.0,0.0,0.0,0.0,0.0,0.0,0.0,0.0,0.0,0.0,0.0,0.0,0.0,0.0,0.0,0.0,0.0,0.0,0.0,0.0,0.0,0.0,0.0,0.0,0.0,0.0,0.0,0.0,0.0,0.0,0.0,0.0,0.0,0.0,0.0,0.0,0.0,0.0,0.0,-3.0447,-3.0702,-3.0598,-3.0598,-3.0598,-3.0598,-3.0598,-3.0598,-3.0598,-3.0598,0.0,0.0,0.0,0.0,0.0,0.0,0.0,0.0,0.0,0.0,0.0,0.0,0.0,0.0,0.0,0.0,0.0,0.0,0.0,0.0,0.0,0.0,0.0,0.0,0.0,0.0,0.0,0.0,0.0,0.0,0.0,0.0,0.0,0.0,0.0,0.0,0.0,0.0,0.0,0.0,0.0,0.0,0.0,0.0,0.0,0.0,0.0,0.0,0.0,0.0,0.0,0.0,0.0,0.0,0.0,0.0,0.0,0.0,0.0,0.0,0.0,0.0,0.0,0.0,0.0,0.0,0.0,0.0,0.0,0.0,0.0,0.0,0.0,0.0,0.0,0.0,0.0,0.0,0.0,0.0,0.0,0.0,0.0,0.0,0.0,0.0,0.0,0.0,0.0,0.0,0.0,0.0,0.0,0.0,0.0,0.0,0.0,0.0,0.0,0.0,0.0,0.0,-3.0672,-3.0598,-3.0598,-3.0598,-3.0598,-3.0598,-3.0598,-3.0598,-3.0598,-3.0598,0.0,0.0,0.0,0.0,0.0,0.0,0.0,0.0,0.0,0.0,0.0,0.0,0.0,0.0,0.0,0.0,0.0,0.0,0.0,0.0,0.0,0.0,0.0,0.0,0.0,0.0,0.0,0.0,0.0,0.0,0.0,0.0,0.0,0.0,0.0,0.0,0.0,0.0,0.0,0.0,0.0,0.0,0.0,0.0,0.0,0.0,0.0,0.0,0.0,0.0,0.0,0.0,0.0,0.0,0.0,0.0,0.0,0.0,0.0,0.0,0.0,0.0,0.0,0.0,0.0,0.0,0.0,0.0,0.0,0.0,0.0,0.0,0.0,0.0,0.0,0.0,0.0,0.0,0.0,0.0,0.0,0.0,0.0,0.0,0.0,0.0,0.0,0.0,0.0,0.0,0.0,0.0,0.0,0.0,0.0,0.0,0.0,0.0,0.0,0.0,0.0,0.0,-3.0387,-3.0221,-3.0568,-3.0598,-3.0598,-3.0598,-3.0598,-3.0598,-3.0598,0.0,0.0,0.0,0.0,0.0,0.0,0.0,0.0,0.0,0.0,0.0,0.0,0.0,0.0,0.0,0.0,0.0,0.0,0.0,0.0,0.0,0.0,0.0,0.0,0.0,0.0,0.0,0.0,0.0,0.0,0.0,0.0,0.0,0.0,0.0,0.0,0.0,0.0,0.0,0.0,0.0,0.0,0.0,0.0,0.0,0.0,0.0,0.0,0.0,0.0,0.0,0.0,0.0,0.0,0.0,0.0,0.0,0.0,0.0,0.0,0.0,0.0,0.0,0.0,0.0,0.0,0.0,0.0,0.0,0.0,0.0,0.0,0.0,0.0,0.0,0.0,0.0,0.0,0.0,0.0,0.0,0.0,0.0,0.0,0.0,0.0,0.0,0.0,0.0,0.0,0.0,0.0,0.0,0.0,0.0,0.0,0.0,0.0,0.0,0.0,0.0,0.0,-3.0342,-3.0038,-2.9808,-2.9917,-3.0342,-3.0507,-3.0282,-3.0282,-3.0387,-3.0598,0.0,0.0,0.0,0.0,0.0,0.0,0.0,0.0,0.0,0.0,0.0,0.0,0.0,0.0,0.0,0.0,0.0,0.0,0.0,0.0,0.0,0.0,0.0,0.0,0.0,0.0,0.0,0.0,0.0,0.0,0.0,0.0,0.0,0.0,0.0,0.0,0.0,0.0,0.0,0.0,0.0,0.0,0.0,0.0,0.0,0.0,0.0,0.0,0.0,0.0,0.0,0.0,0.0,0.0,0.0,0.0,0.0,0.0,0.0,0.0,0.0,0.0,0.0,0.0,0.0,0.0,0.0,0.0,0.0,0.0,0.0,0.0,0.0,0.0,0.0,0.0,0.0,0.0,0.0,0.0,0.0,0.0,0.0,0.0,0.0,0.0,0.0,0.0,0.0,0.0,0.0,0.0,0.0,0.0,0.0,0.0,0.0,0.0,0.0,0.0,0.0,0.0,-2.9529,-2.9591,-2.9282,-2.8588,-2.9763,-3.0312,-2.9654,-2.9591,-2.987,0.0,0.0,0.0,0.0,0.0,0.0,0.0,0.0,0.0,0.0,0.0,0.0,0.0,0.0,0.0,0.0,0.0,0.0,0.0,0.0,0.0,0.0,0.0,0.0,0.0,0.0,0.0,0.0,0.0,0.0,0.0,0.0,0.0,0.0,0.0,0.0,0.0,0.0,0.0,0.0,0.0,0.0,0.0,0.0,0.0,0.0,0.0,0.0,0.0,0.0,0.0,0.0,0.0,0.0,0.0,0.0,0.0,0.0,0.0,0.0,0.0,0.0,0.0,0.0,0.0,0.0,0.0,0.0,0.0,0.0,0.0,0.0,0.0,0.0,0.0,0.0,0.0,0.0,0.0,0.0,0.0,0.0,0.0,0.0,0.0,0.0,0.0,0.0,0.0,0.0,0.0,0.0,0.0,0.0,0.0,0.0,0.0,0.0,0.0,0.0,0.0,0.0,0.0,-2.873,-2.8409,-2.8214,-2.846,-2.8889,-2.9048,-2.8826,-2.8826,-2.8921,-2.9111,0.0,0.0,0.0,0.0,0.0,0.0,0.0,0.0,0.0,0.0,0.0,0.0,0.0,0.0,0.0,0.0,0.0,0.0,0.0,0.0,0.0,0.0,0.0,0.0,0.0,0.0,0.0,0.0,0.0,0.0,0.0,0.0,0.0,0.0,0.0,0.0,0.0,0.0,0.0,0.0,0.0,0.0,0.0,0.0,0.0,0.0,0.0,0.0,0.0,0.0,0.0,0.0,0.0,0.0,0.0,0.0,0.0,0.0,0.0,0.0,0.0,0.0,0.0,0.0,0.0,0.0,0.0,0.0,0.0,0.0,0.0,0.0,0.0,0.0,0.0,0.0,0.0,0.0,0.0,0.0,0.0,0.0,0.0,0.0,0.0,0.0,0.0,0.0,0.0,0.0,0.0,0.0,0.0,0.0,0.0,0.0,0.0,0.0,0.0,0.0,0.0,0.0,-2.8019,-2.7769,-2.7537,-2.7703,-2.8182,-2.8395,-2.8117,-2.8117,-2.8214,-2.8492,0.0,0.0,0.0,0.0,0.0,0.0,0.0,0.0,0.0,0.0,0.0,0.0,0.0,0.0,0.0,0.0,0.0,0.0,0.0,0.0,0.0,0.0,0.0,0.0,0.0,0.0,0.0,0.0,0.0,0.0,0.0,0.0,0.0,0.0,0.0,0.0,0.0,0.0,0.0,0.0,0.0,0.0,0.0,0.0,0.0,0.0,0.0,0.0,0.0,0.0,0.0,0.0,0.0,0.0,0.0,0.0,0.0,0.0,0.0,0.0,0.0,0.0,0.0,0.0,0.0,0.0,0.0,0.0,0.0,0.0,0.0,0.0,0.0,0.0,0.0,0.0,0.0,0.0,0.0,0.0,0.0,0.0,0.0,0.0,0.0,0.0,0.0,0.0,0.0,0.0,0.0,0.0,0.0,0.0,0.0,0.0,0.0,0.0,0.0,0.0,0.0,0.0,-2.7317,-2.7417,-2.7162,-2.6555,-2.7571,-2.8084,-2.7451,-2.7417,-2.767,-2.8266,0.0,0.0,0.0,0.0,0.0,0.0,0.0,0.0,0.0,0.0,0.0,0.0,0.0,0.0,0.0,0.0,0.0,0.0,0.0,0.0,0.0,0.0,0.0,0.0,0.0,0.0,0.0,0.0,0.0,0.0,0.0,0.0,0.0,0.0,0.0,0.0,0.0,0.0,0.0,0.0,0.0,0.0,0.0,0.0,0.0,0.0,0.0,0.0,0.0,0.0,0.0,0.0,0.0,0.0,0.0,0.0,0.0,0.0,0.0,0.0,-2.9558,-2.9536,0.0,0.0,0.0,0.0,0.0,0.0,0.0,0.0,0.0,0.0,0.0,0.0,0.0,0.0,0.0,0.0,0.0,0.0,0.0,0.0,0.0,0.0,0.0,0.0,0.0,0.0,0.0,0.0,0.0,0.0,0.0,0.0,0.0,0.0,0.0,0.0,0.0,0.0,0.0,0.0,-2.6679,-2.6714,-2.6658,-2.6521,-2.6748,-2.6871,-2.6714,-2.6714,-2.6782,-2.6905,-2.6782,0.0,0.0,0.0,0.0,0.0,0.0,0.0,0.0,0.0,0.0,0.0,0.0,0.0,0.0,0.0,0.0,0.0,0.0,0.0,0.0,0.0,0.0,0.0,0.0,0.0,0.0,0.0,0.0,0.0,0.0,0.0,0.0,0.0,0.0,0.0,0.0,0.0,0.0,0.0,0.0,0.0,0.0,0.0,0.0,0.0,0.0,0.0,0.0,0.0,0.0,0.0,0.0,0.0,0.0,0.0,0.0,0.0,0.0,0.0,-2.9616,-2.9997,0.0,0.0,0.0,0.0,0.0,0.0,0.0,0.0,0.0,0.0,0.0,0.0,0.0,0.0,0.0,0.0,0.0,0.0,0.0,0.0,0.0,0.0,0.0,0.0,0.0,0.0,0.0,0.0,0.0,0.0,0.0,0.0,0.0,0.0,0.0,0.0,0.0,0.0,0.0,0.0,-2.6499,-2.6499,-2.6499,-2.6499,-2.6499,-2.6499,-2.6499,-2.6499,-2.6499,-2.6499,-2.6129,0.0,0.0,0.0,0.0,0.0,0.0,0.0,0.0,0.0,0.0,0.0,0.0,0.0,0.0,0.0,0.0,0.0,0.0,0.0,0.0,0.0,0.0,0.0,0.0,0.0,0.0,0.0,0.0,0.0,0.0,0.0,0.0,0.0,0.0,0.0,0.0,0.0,0.0,0.0,0.0,0.0,0.0,0.0,0.0,0.0,0.0,0.0,0.0,0.0,0.0,0.0,0.0,0.0,-2.7552,-2.7804,-2.7763,-2.7763,-2.7723,-2.7763,-2.9186,-2.9883,-2.9947,-3.0126,0.0,0.0,0.0,0.0,0.0,0.0,0.0,0.0,0.0,0.0,0.0,0.0,0.0,0.0,0.0,0.0,0.0,0.0,0.0,0.0,0.0,0.0,-2.3158,-2.3988,-2.3551,-2.3121,-2.3793,0.0,0.0,0.0,0.0,0.0,0.0,0.0,0.0,0.0,0.0,0.0,-2.6314,-2.6418,-2.6465,-2.6314,-2.6418,-2.6499,-2.6499,-2.6383,-2.628,-2.628,-2.5558,-2.5087,0.0,0.0,0.0,0.0,0.0,0.0,0.0,0.0,0.0,0.0,0.0,0.0,0.0,0.0,0.0,0.0,0.0,0.0,0.0,0.0,0.0,0.0,0.0,0.0,0.0,0.0,0.0,0.0,0.0,0.0,0.0,0.0,-2.5543,-2.5979,0.0,0.0,0.0,0.0,0.0,0.0,0.0,0.0,0.0,0.0,0.0,0.0,0.0,-2.7184,-2.754,-2.7622,-2.7698,-2.7698,-2.7756,-2.7723,-2.7545,-2.7545,-2.7424,-2.7221,-2.7424,0.0,-2.8124,-2.8164,0.0,0.0,0.0,0.0,0.0,0.0,0.0,0.0,0.0,0.0,0.0,0.0,0.0,0.0,0.0,0.0,0.0,0.0,0.0,0.0,0.0,0.0,-2.2014,-2.2166,-2.209,-2.2025,-2.2128,-2.3327,-2.4373,-2.4264,-2.4264,-2.4516,0.0,0.0,0.0,0.0,0.0,0.0,-2.5558,-2.606,-2.6245,-2.5523,-2.6094,-2.6499,-2.6499,-2.5851,-2.5453,-2.5453,-2.4707,-2.4264,-2.4264,-2.4264,0.0,0.0,0.0,0.0,0.0,0.0,0.0,0.0,0.0,0.0,0.0,0.0,0.0,0.0,0.0,0.0,0.0,0.0,0.0,0.0,0.0,0.0,0.0,0.0,0.0,0.0,0.0,0.0,0.0,-2.5301,-2.5736,-2.5934,-2.6387,-2.682,0.0,0.0,0.0,0.0,0.0,0.0,0.0,0.0,0.0,-2.6472,-2.6443,-2.63,-2.5944,-2.5955,-2.5955,-2.5955,-2.5955,-2.5913,-2.5799,-2.5799,-2.5757,-2.5642,-2.5642,-2.5757,-2.6027,-2.7168,-2.7896,-2.8335,0.0,0.0,0.0,0.0,-2.8521,-2.8362,-2.7238,-2.683,-2.6801,-2.6442,0.0,0.0,0.0,0.0,0.0,0.0,0.0,-2.2408,-2.2408,-2.2128,-2.1807,-2.1807,-2.1807,-2.1807,-2.1807,-2.2381,-2.3043,-2.3412,-2.3486,-2.3742,-2.4492,-2.4636,0.0,0.0,0.0,-2.5028,-2.4671,-2.4921,-2.5028,-2.4671,-2.4957,-2.5134,-2.5134,-2.4814,-2.4636,-2.4636,-2.3925,-2.3486,-2.3486,-2.3486,-2.3265,0.0,0.0,0.0,0.0,0.0,0.0,0.0,0.0,0.0,0.0,0.0,0.0,0.0,0.0,0.0,0.0,0.0,0.0,0.0,0.0,0.0,0.0,0.0,0.0,0.0,0.0,0.0,0.0,-2.5447,-2.5599,-2.5701,-2.6065,-2.6477,0.0,0.0,0.0,0.0,0.0,0.0,-2.736,-2.7238,-2.6678,-2.5704,-2.5673,-2.5306,-2.4497,-2.4497,-2.4497,-2.4497,-2.4497,-2.4497,-2.4497,-2.4497,-2.4497,-2.4497,-2.4497,-2.4497,-2.4615,-2.6133,-2.6894,-2.7139,-2.7319,-2.755,-2.7752,-2.747,-2.736,-2.7197,-2.6069,-2.5673,-2.5631,-2.5147,-2.4504,-2.3999,-2.4392,0.0,0.0,0.0,0.0,-2.1328,-2.1328,-2.1443,-2.1568,-2.1568,-2.1683,-2.1807,-2.1807,-2.1807,-2.1997,-2.259,-2.2703,-2.2916,-2.3694,-2.3841,0.0,-2.4072,-2.4108,-2.4047,-2.3829,-2.3975,-2.4047,-2.3829,-2.3975,-2.4108,-2.4108,-2.3938,-2.3841,-2.3841,-2.3128,-2.2703,-2.2703,-2.2703,-2.2402,-2.1807,0.0,0.0,0.0,0.0,0.0,0.0,0.0,0.0,0.0,0.0,0.0,0.0,0.0,0.0,0.0,0.0,0.0,0.0,0.0,0.0,0.0,0.0,0.0,0.0,0.0,0.0,0.0,0.0,0.0,-2.5199,-2.5252,0.0,0.0,0.0,0.0,-2.6812,-2.6321,-2.6041,-2.6193,-2.5642,-2.5115,-2.4583,-2.4583,-2.454,-2.4497,-2.4497,-2.4497,-2.4497,-2.4497,-2.4497,-2.4497,-2.4497,-2.4497,-2.4497,-2.4497,-2.4497,-2.4497,-2.4625,-2.5274,-2.6152,-2.616,-2.6849,-2.7671,-2.6595,-2.6193,-2.6038,-2.4946,-2.4583,-2.4583,-2.454,-2.3542,-2.2361,-2.2568,-2.141,0.0,0.0,-2.0498,-2.0021,-2.0021,-2.0459,-2.0944,-2.0944,-2.1377,-2.1807,-2.1807,-2.1807,-2.1807,-2.1845,-2.1845,-2.2101,-2.2927,0.0,-2.3276,-2.3975,-2.4108,-2.3841,-2.3139,-2.3658,-2.3841,-2.3139,-2.3694,-2.4108,-2.4108,-2.346,-2.3075,-2.3075,-2.2289,-2.1845,-2.1845,-2.1845,-2.1845,-2.1807,-2.1845,0.0,0.0,0.0,0.0,0.0,0.0,0.0,0.0,0.0,0.0,0.0,0.0,0.0,0.0,0.0,0.0,0.0,0.0,0.0,0.0,0.0,0.0,0.0,0.0,0.0,0.0,0.0,0.0,-2.5569,-2.5369,0.0,-2.52,-2.5369,-2.5411,-2.5316,-2.5126,-2.4999,-2.5073,-2.4871,-2.4668,-2.4497,-2.4497,-2.4497,-2.4497,-2.4497,-2.4497,-2.4497,-2.4497,-2.4497,-2.4497,-2.4497,-2.4497,-2.4497,-2.4497,-2.4497,-2.4497,-2.4497,-2.4743,-2.5062,-2.5052,-2.5337,-2.5631,-2.5232,-2.5062,-2.5031,-2.4615,-2.4239,-2.3747,-2.2965,-2.231,-2.1855,-2.1666,-2.1188,-2.0737,-2.095,-2.0859,-2.0589,-2.0356,-2.048,-2.0572,-2.0323,-2.0421,-2.0576,-2.0576,-2.0576,-2.0576,-2.0576,-2.1252,-2.1883,-2.2176,-2.2214,-2.2327,-2.2569,-2.2633,-2.2531,-2.2252,-2.2467,-2.2531,-2.2252,-2.2456,-2.2633,-2.2633,-2.2392,-2.2214,-2.2214,-2.1949,-2.1807,-2.1807,-2.1807,-2.1807,-2.1807,-2.1126,-2.1001,0.0,0.0,0.0,0.0,0.0,0.0,0.0,0.0,0.0,0.0,0.0,0.0,0.0,0.0,0.0,0.0,0.0,0.0,0.0,0.0,0.0,0.0,0.0,0.0,0.0,-2.5199,-2.502,-2.5591,-2.5253,-2.4946,-2.4946,-2.4775,-2.4572,-2.4497,-2.4282,-2.4282,-2.4497,-2.4497,-2.4497,-2.4497,-2.4282,-2.4153,-2.4153,-2.3917,-2.3777,-2.3777,-2.3777,-2.3777,-2.3777,-2.3777,-2.3777,-2.3777,-2.3777,-2.3777,-2.3777,-2.3777,-2.3777,-2.3831,-2.4315,-2.4497,-2.4454,-2.4239,-2.4153,-2.4153,-2.3874,-2.3484,-2.2969,-2.1997,-2.1555,-2.136,-2.1147,-2.0782,-2.0479,-2.0689,-2.0605,-2.0415,-2.014,-2.0232,-2.0281,-2.0043,-2.0129,-2.0299,-2.0299,-2.0299,-2.0299,-2.0299,-2.0781,-2.1175,-2.1175,-2.1175,-2.1252,-2.1454,-2.129,-2.1328,-2.1731,-2.1606,-2.1568,-2.1769,-2.1807,-2.1807,-2.1807,-2.1807,-2.1645,-2.128,-2.1405,-2.1252,-2.076,-2.1203,-2.1328,-2.0972,-2.0051,-2.0009,-2.0899,0.0,0.0,0.0,0.0,0.0,0.0,0.0,0.0,0.0,0.0,0.0,0.0,0.0,0.0,0.0,0.0,0.0,0.0,0.0,0.0,0.0,0.0,0.0,-2.4054,-2.4146,-2.4317,-2.502,-2.47,-2.4454,-2.4454,-2.3851,-2.3764,-2.4411,-2.3851,-2.3764,-2.4411,-2.4454,-2.4454,-2.4454,-2.3797,-2.346,-2.346,-2.2765,-2.2394,-2.2394,-2.2394,-2.2394,-2.2394,-2.2394,-2.2394,-2.2394,-2.2394,-2.2394,-2.2394,-2.2394,-2.2394,-2.2536,-2.3917,-2.4454,-2.4368,-2.3721,-2.346,-2.3363,-2.2624,-2.235,-2.2284,-2.1834,-2.1247,-2.0811,-2.1025,-2.0229,-1.9376,-1.9922,-1.9667,-1.9247,-1.9239,-1.9658,-2.0065,-2.0056,-2.0563,-2.1034,-2.1034,-2.1034,-2.1034,-2.1034,-2.0398,-1.9902,-1.9942,-1.9942,-2.0137,-2.0809,-2.0323,0.0,-2.1568,-2.1213,-2.1098,-2.1683,-2.1769,-2.1769,-2.1759,-2.1759,-2.128,-2.0236,-2.0586,-2.0148,-1.87,-2.005,-2.0342,-1.9292,-1.8643,-1.8577,-1.9041,0.0,0.0,0.0,0.0,0.0,0.0,0.0,0.0,0.0,0.0,0.0,0.0,0.0,0.0,0.0,0.0,0.0,0.0,0.0,0.0,0.0,-2.1292,-2.165,-2.2812,-2.2899,-2.2955,-2.3139,-2.3062,-2.2974,-2.2974,-2.2799,-2.2765,-2.2974,-2.2799,-2.2799,-2.2974,-2.2974,-2.2974,-2.2974,-2.2799,-2.2711,-2.2711,-2.2482,-2.2394,-2.2394,-2.2394,-2.2394,-2.2394,-2.2394,-2.2394,-2.2394,-2.2394,-2.2394,-2.2394,-2.2394,-2.2394,-2.2438,-2.2843,-2.2974,-2.2974,-2.2755,-2.2711,-2.2589,-2.1926,-2.1659,-2.1552,-2.0909,-2.0569,-2.0426,-2.05,-2.0296,-2.0028,-2.0207,-2.0117,-1.9924,-1.9658,-1.9669,-1.9731,-1.9488,-1.9598,-1.9726,-1.9726,-1.9726,-1.9726,-1.9726,-1.9541,-1.9683,-2.0595,-2.0759,-2.0737,-2.0625,-2.0457,-2.0254,-2.001,-2.0099,-2.0294,-2.0605,-2.0934,-2.1011,-2.0682,-2.0644,-2.0197,-1.9119,-1.9401,-1.9394,-1.8988,-1.9592,-1.9454,-1.8372,-1.8919,-1.8684,0.0,0.0,0.0,0.0,0.0,0.0,0.0,0.0,0.0,0.0,0.0,0.0,0.0,0.0,0.0,0.0,0.0,0.0,0.0,0.0,0.0,0.0,-2.0159,-2.0408,-2.1192,-2.1701,-2.2094,-2.235,-2.2394,-2.2394,-2.2394,-2.2138,-2.2094,-2.2394,-2.2138,-2.2094,-2.2394,-2.2394,-2.2394,-2.2394,-2.2138,-2.1961,-2.1961,-2.165,-2.1516,-2.1516,-2.1516,-2.1516,-2.1516,-2.1516,-2.1516,-2.1516,-2.1516,-2.1516,-2.1516,-2.1516,-2.1516,-2.1561,0.0,0.0,0.0,0.0,-2.1784,-2.1481,-2.1087,-2.0961,-2.0871,-2.0419,-2.0292,-2.0292,-2.0292,-2.0292,-2.0292,-2.0292,-2.0292,-2.024,-2.0026,-1.9975,-1.9915,-1.9692,-1.9641,-1.9641,-1.9641,-1.9641,-1.9641,-1.9641,-1.9641,0.0,-2.0367,-2.0177,-1.9958,-2.0016,-1.9647,-1.9351,-1.943,-1.9291,-1.9343,-1.9694,-1.9871,-1.9872,-1.9764,-1.9734,0.0,0.0,0.0,-1.8894,-1.8894,-1.865,0.0,0.0,0.0,-1.7993,-1.6944,-1.7572,0.0,0.0,-1.7987,-1.7726,0.0,0.0,0.0,0.0,0.0,0.0,0.0,0.0,0.0,0.0,0.0,0.0,0.0,0.0,0.0,0.0,-1.9239,-1.9358,-1.9648,-2.0633,-2.149,-2.2094,-2.2183,-2.2183,-2.2183,-2.1615,-2.1526,-2.2129,-2.1615,-2.1526,-2.2129,-2.2183,0.0,0.0,0.0,-2.1266,-2.1266,-2.0645,-2.0292,-2.0292,-2.0292,-2.0292,-2.0292,-2.0292,-2.0292,-2.0292,-2.0292,-2.0292,-2.0292,-2.0292,-2.0292,-2.0419,-2.1695,-2.2183,-2.2094,-2.149,-2.0871,-2.0292,-2.0292,0.0,0.0,-2.0292,-2.0292,-2.0292,-2.0292,-2.0292,-2.0292,-2.0292,-2.0292,-2.0292,-2.0292,-2.0292,-2.0292,-2.0292,-2.0292,-2.0292,-2.0292,-2.0292,-2.0292,-2.0246,-2.0201,-2.0056,-1.96,-1.8965,-1.8694,-1.9204,-1.8436,-1.8124,-1.9153,-1.8651,-1.8363,-1.8929,-1.8737,0.0,-1.8935,-1.897,-1.865,-1.7889,-1.8197,-1.8411,-1.8452,-1.7531,-1.7267,-1.7807,-1.7223,-1.6847,-1.668,-1.668,-1.6817,-1.7037,-1.7255,-1.7341,0.0,0.0,0.0,0.0,0.0,0.0,0.0,0.0,0.0,0.0,0.0,0.0,0.0,0.0,0.0,-1.9632,-1.9589,-1.9614,-1.9691,-2.015,-2.0555,-2.069,-2.069,-2.069,-2.069,-2.06,-2.0555,-2.069,-2.06,-2.0555,-2.069,-2.069,-2.069,-2.069,-2.06,-2.051,-2.051,-2.0382,-2.0292,-2.0292,-2.0292,0.0,-2.0292,-2.0292,-2.0292,-2.0292,-2.0292,-2.0292,-2.0292,-2.0292,-2.0292,-2.0337,-2.06,-2.069,-2.069,-2.0555,-2.0419,-2.0292,-2.0292,-2.0292,-2.0292,-2.0292,-2.0292,-2.0292,-2.0292,-2.0292,0.0,-2.0292,-2.0292,-2.0292,-2.0292,-2.0292,-2.0292,-2.0292,-2.0292,-2.0292,-2.0292,-2.0292,-2.0201,-1.9828,-1.9737,-1.9554,-1.905,-1.9165,-1.9151,-1.8588,-1.8334,-1.8008,-1.7541,-1.7672,-1.7919,-1.8188,-1.8455,-1.8481,-1.8222,-1.8222,-1.7789,-1.6749,-1.7048,-1.7319,-1.7536,-1.7374,-1.6996,-1.6565,-1.6432,-1.6047,-1.5442,-1.5442,-1.5475,-1.5527,-1.6176,-1.643,0.0,0.0,0.0,0.0,0.0,0.0,0.0,0.0,0.0,0.0,0.0,-1.9635,-1.971,0.0,-1.97,-1.97,-1.97,-1.9759,-1.9992,-2.0172,-2.0292,-2.0292,-2.0292,-2.0292,-2.0292,-2.0292,-2.0292,-2.0292,-2.0292,-2.0292,-2.0292,-2.0292,-2.0292,-2.0292,-2.0292,-2.0292,-2.0292,-2.0292,-2.0292,-2.0292,-2.0292,-2.0292,-2.0292,-2.0292,-2.0292,-2.0292,-2.0292,-2.0292,-2.0292,-2.0292,-2.0292,-2.0292,-2.0292,-2.0292,-2.0292,-2.0292,-2.0292,-2.0292,-2.0292,-2.0292,-2.0292,-2.0292,-2.0292,-2.0292,-2.0292,-2.0292,-2.0292,-2.0292,-2.0292,-2.0292,-2.0292,-2.0292,-2.0292,-2.0292,-2.011,-1.9965,-1.9965,-1.9745,-1.9471,-1.9234,-1.9188,-1.905,-1.855,-1.835,-1.8234,-1.8216,-1.7964,-1.7629,-1.7198,-1.7258,-1.7323,-1.7441,-1.75,-1.7505,-1.7463,-1.7588,-1.7424,-1.6888,-1.6675,-1.66,-1.6749,-1.6379,-1.6048,-1.5669,-1.5669,-1.548,-1.5099,-1.5099,-1.5099,-1.5099,-1.5051,-1.5242,0.0,0.0,0.0,0.0,0.0,0.0,0.0,-1.9213,-1.9264,-1.9573,-1.9648,-1.97,-1.97,-1.9759,-1.9802,-1.9802,-1.9802,-1.9905,-2.0249,-2.0292,-2.0292,-2.0292,-2.0292,-2.0292,-2.0292,-2.0292,-2.0292,-2.0292,-2.0292,-2.0292,-2.0292,-2.0292,-2.0292,-2.0292,-2.0292,-2.0292,-2.0292,-2.0292,-2.0292,-2.0292,-2.0292,-2.0292,-2.0292,-2.0292,-2.0292,-2.0292,-2.0292,-2.0292,-2.0292,-2.0292,-2.0292,-2.0292,-2.0292,-2.0292,-2.0292,-2.0292,-2.0292,-2.0292,-2.0292,-2.0292,-2.0292,-2.0292,-2.0292,-2.0246,-2.0056,-2.0011,-1.9965,-1.9774,-1.9729,-1.9729,-1.9729,-1.9675,-1.9629,-1.9629,-1.9309,-1.898,-1.898,-1.8665,-1.835,-1.821,-1.821,-1.8071,-1.7606,-1.699,-1.6889,-1.78,-1.7466,-1.7091,-1.7091,-1.6914,-1.6716,-1.6578,-1.6297,-1.6247,-1.655,-1.6754,-1.6857,-1.6857,-1.6332,-1.6001,-1.6001,-1.5432,-1.5051,-1.486,-1.486,-1.4813,-1.4675,-1.4675,-1.4675,-1.4621,-1.4004,-1.4094,-1.8451,-1.8786,-1.8963,-1.9338,-1.9315,-1.9162,0.0,-1.9213,-1.923,-1.923,-1.9504,-1.97,-1.97,-2.0009,-2.0232,-2.0232,-2.0232,-2.0249,-2.0283,-2.0292,-2.0292,-2.0292,-2.0292,-2.0292,-2.0292,-2.0292,-2.0292,-2.0292,-2.0292,-2.0292,-2.0292,-2.0292,-2.0292,-2.0292,-2.0292,-2.0292,-2.0292,-2.0292,-2.0292,-2.0292,-2.0292,-2.0292,-2.0292,-2.0292,-2.0292,-2.0292,-2.0292,-2.0292,-2.0292,-2.0292,-2.0292,-2.0292,-2.0292,-2.0292,-2.0292,-2.0292,-2.0292,-2.0292,-2.0292,-2.0292,-2.0292,-2.0292,-2.0292,-2.0147,-1.9255,-1.898,-1.8788,-1.7902,-1.7623,-1.7623,-1.7623,-1.7468,-1.7274,-1.7274,-1.7048,-1.6868,-1.6868,-1.6821,-1.6633,-1.6224,-1.6129,-1.5988,-1.5527,-1.5384,-1.5764,-1.7185,-1.6763,-1.6332,-1.6332,-1.6304,-1.6048,-1.5386,-1.5266,-1.5253,-1.5285,-1.5317,-1.5337,-1.5337,-1.5289,-1.5194,-1.5194,-1.5146,-1.4765,-1.4046,-1.4046,-1.3715,-1.305,-1.305,-1.305,-1.305,-1.2953,-1.3335,-1.6836,-1.7608,-1.8273,-1.8636,-1.9138,-1.9564,-1.9778,-1.9821,-1.9821,-1.9821,-1.9949,-2.0061,-2.0061,-2.0189,-2.0292,-2.0292,-2.0292,-2.0292,-2.0292,-2.0292,-2.0292,-2.0292,-2.0292,-2.0292,-2.0292,-2.0292,-2.0292,-2.0292,-2.0292,-2.0292,-2.0292,-2.0292,-2.0292,-2.0292,-2.0292,-2.0292,-2.0292,-2.0292,-2.0292,-2.0292,-2.0292,-2.0292,-2.0292,-2.0292,-2.0292,-2.0292,-2.0292,-1.9965,-1.9446,-1.9446,-1.9072,-1.8557,-1.8557,-1.8557,-1.8696,-1.9866,-2.0292,-2.0292,-2.0292,-1.9911,-1.9446,-1.9446,-1.9026,-1.8465,-1.8041,-1.7948,-1.7855,-1.7436,-1.7196,-1.7048,-1.7048,-1.6861,-1.6673,-1.6673,-1.6351,-1.6075,-1.6075,-1.5893,-1.5609,-1.5425,-1.5378,-1.533,-1.5146,-1.4717,-1.4765,-1.5859,-1.5764,-1.5575,-1.5575,-1.5575,-1.5432,-1.5146,-1.5099,-1.5099,-1.5099,-1.5099,-1.5099,-1.5099,-1.4669,-1.4382,-1.4382,-1.4004,-1.3624,-1.3286,-1.3238,-1.3098,-1.2813,-1.2813,-1.2813,-1.2813,-1.2813,-1.2953,-1.5937,-1.674,-1.7492,-1.7877,-1.8701,-1.9547,-1.9807,-2.0102,-2.0292,-2.0292,-2.0292,-2.0292,-2.0292,-2.0292,-2.0292,-2.0292,-2.0292,-2.0292,-2.0292,-2.0292,-2.0292,-2.0292,-2.0292,-2.0292,-2.0292,-2.0292,-2.0292,-2.0292,-2.0292,-2.0292,-2.0292,-2.0292,-2.0292,-2.0292,-2.0292,-2.0292,-2.0292,-2.0292,-2.0292,-2.0292,-2.0292,-2.0292,-2.0292,-2.0011,-1.9729,-1.9492,-1.9492,-1.9072,-1.8373,-1.8373,-1.7948,-1.7296,-1.7296,-1.7296,-1.7483,-1.8934,-1.9492,-1.9492,-1.9492,-1.898,-1.8373,-1.8373,-1.7855,-1.7149,-1.6868,-1.6727,-1.6586,-1.6311,-1.6116,-1.5967,-1.5967,-1.5785,-1.5548,-1.5548,-1.527,-1.4991,-1.4991,-1.4717,-1.4484,-1.4484,-1.4484,-1.4484,-1.4484,-1.4004,-1.3811,-1.4388,-1.4484,-1.4526,-1.4717,-1.4573,-1.4484,-1.4484,-1.4484,-1.4484,-1.4484,-1.4484,-1.4484,-1.4484,-1.3908,-1.3619,-1.3619,-1.3098,-1.2813,-1.2813,-1.2813,-1.2813,-1.2813,-1.2813,-1.2813,-1.2813,-1.2813,-1.2813,-1.6496,-1.6715,-1.6841,-1.7248,-1.8072,-1.8826,-1.8834,-1.9583,-2.0292,-2.0292,-2.0292,-2.0292,-2.0292,-2.0292,-2.0292,-2.0292,-2.0292,-2.0292,-2.0292,-2.0292,-2.0292,-2.0292,-2.0292,-2.0292,-2.0292,-2.0292,-2.0292,-2.0292,-2.0292,-2.0292,-2.0292,-2.0292,-2.0292,-2.0292,-2.0292,-2.0292,-2.0292,-2.0292,-2.0292,-2.0292,-2.0292,-2.0292,-2.0292,-1.9301,-1.8319,-1.7382,-1.7382,-1.739,-1.7343,-1.7343,-1.7343,-1.7296,-1.7296,-1.7296,-1.7296,-1.739,-1.7382,-1.7382,-1.7382,-1.739,-1.7343,-1.7343,-1.7142,-1.6713,-1.5731,-1.527,-1.4854,-1.3865,-1.3588,-1.3588,-1.3588,-1.3389,-1.3195,-1.3195,-1.305,-1.291,-1.291,-1.2856,-1.2861,-1.2861,-1.2861,-1.2861,-1.2861,-1.2861,-1.2861,-1.2861,-1.2861,-1.3147,-1.3854,-1.3335,-1.2861,-1.2861,-1.2861,-1.2861,-1.2861,-1.2861,-1.2861,-1.2861,-1.2861,-1.2813,-1.2813,-1.2813,-1.2813,-1.2813,-1.2813,-1.2813,-1.2813,-1.2813,-1.2813,-1.2813,-1.2813,-1.2813,-1.472,-1.5458,-1.614,-1.629,-1.7063,-1.7809,-1.7809,-1.8087,-1.8326,-1.8326,-1.845,-1.8801,-1.9575,-1.9613,-1.9808,-2.0584,-2.0463,-2.0292,-2.0292,-2.0292,-2.0292,-2.0292,-2.0292,-2.0292,-2.0292,-2.0292,-2.0292,-2.0292,-2.0292,-2.0292,-2.0292,-2.0292,-2.0292,-2.0292,-2.0292,-1.9965,-1.9309,-1.9309,-1.898,-1.8326,-1.8326,-1.8326,-1.8319,-1.7948,-1.7623,-1.7296,-1.7296,-1.6922,-1.6311,-1.6311,-1.5893,-1.533,-1.533,-1.533,-1.533,-1.533,-1.533,-1.5514,-1.6828,-1.6774,-1.6062,-1.6062,-1.5412,-1.4567,-1.4238,-1.41,-1.3913,-1.3588,-1.3394,-1.3249,-1.3249,-1.3055,-1.291,-1.291,-1.2861,-1.2813,-1.2813,-1.2813,-1.2813,-1.2813,-1.2813,-1.2813,-1.2813,-1.2813,-1.2813,-1.2813,-1.2813,-1.291,-1.3147,-1.2953,-1.2813,-1.2813,-1.2813,-1.2813,-1.2813,-1.2813,-1.2813,-1.2813,-1.2813,-1.2813,-1.2813,-1.2813,-1.2813,-1.2813,-1.2813,-1.2813,-1.2813,-1.2813,-1.2813,-1.2813,-1.2813,-1.2813,-1.3948,-1.4634,-1.5283,-1.5283,-1.6028,-1.6774,-1.6774,-1.7055,-1.7326,-1.7435,-1.7578,-1.8011,-1.913,-1.898,-1.9123,-2.0454,-2.0171,-1.9774,-1.9774,-2.0056,-2.0147,-1.982,-2.0056,-2.0292,-2.0292,-1.9965,-1.9911,-2.0292,-2.0292,-2.0147,-1.9774,-1.9774,-1.9583,-1.9255,-1.9209,-1.8934,-1.8272,-1.8272,-1.7948,-1.7296,-1.7406,-1.7229,-1.6911,-1.6911,-1.6721,-1.6381,-1.6265,-1.5846,-1.5283,-1.5283,-1.486,-1.4298,-1.4298,-1.4298,-1.4298,-1.4298,-1.425,-1.4346,-1.5663,-1.5561,-1.4854,-1.4752,-1.41,-1.3346,-1.3346,-1.3298,-1.3249,-1.3249,-1.3152,-1.3007,-1.3007,-1.291,-1.2813,-1.2813,-1.2813,-1.2813,-1.2813,-1.2813,-1.2813,-1.2813,-1.2813,-1.2813,-1.2813,-1.2813,-1.2813,-1.2813,-1.2813,-1.2813,-1.2813,-1.2813,-1.2813,-1.2813,-1.2813,-1.2813,-1.2813,-1.2813,-1.2813,-1.2813,-1.2813,-1.2813,-1.2813,-1.2813,-1.2813,-1.2813,-1.2813,-1.2813,-1.2813,-1.2813,-1.2813,-1.2813,-1.2414,-1.2214,-1.4153,-1.4298,-1.4298,-1.4298,-1.4997,-1.5704,-1.5704,-1.6452,-1.7243,-1.7507,-1.7539,-1.7897,-1.8924,-1.8288,-1.8223,-1.9937,-1.9379,-1.8742,-1.8742,-1.9538,-1.9774,-1.8842,-1.9583,-2.0147,-2.0147,-1.9263,-1.9117,-2.0056,-2.0147,-1.9729,-1.8788,-1.8742,-1.828,-1.7343,-1.7296,-1.7296,-1.7196,-1.7149,-1.7163,-1.7185,-1.7435,-1.7064,-1.6139,-1.6139,-1.5607,-1.4727,-1.4455,-1.4328,-1.4322,-1.4322,-1.431,-1.4298,-1.4298,-1.4298,-1.4298,-1.4298,-1.4112,-1.3883,-1.3883,-1.3883,-1.3835,-1.3539,-1.3298,-1.3098,-1.3098,-1.2953,-1.2813,-1.2813,-1.2813,-1.2813,-1.2813,-1.2813,-1.2813,-1.2813,-1.2813,-1.2813,-1.2813,-1.2813,-1.2813,-1.2813,-1.2813,-1.2813,-1.2813,-1.2813,-1.2813,-1.2813,-1.2813,-1.2813,-1.2813,-1.2813,-1.2813,-1.2813,-1.2813,-1.2813,-1.2813,-1.2813,-1.2813,-1.2813,-1.2813,-1.2813,-1.2813,-1.2764,-1.2716,-1.2716,-1.2662,-1.2613,-1.2613,-1.2613,-1.2613,-1.2613,-1.157,-1.1121,-1.4153,-1.4298,-1.4298,-1.4298,-1.4484,-1.4675,-1.4675,-1.486,-1.5134,-1.542,-1.5599,-1.6147,-1.7452,-1.7263,-1.7288,-1.8618,-1.818,-1.7669,-1.7669,-1.7902,-1.7948,-1.7716,-1.7902,-1.8041,-1.8041,-1.7809,-1.7809,-1.8041,-1.8041,-1.7948,-1.7716,-1.7669,-1.7569,-1.7296,-1.7296,-1.6915,-1.617,-1.5419,-1.5159,-1.5382,-1.5445,-1.545,-1.54,-1.54,-1.5256,-1.5004,-1.4932,-1.4787,-1.4612,-1.4612,-1.4485,-1.4298,-1.4298,-1.4298,-1.4298,-1.4298,-1.4112,-1.3883,-1.369,-1.3491,-1.3292,-1.3195,-1.305,-1.2856,-1.2856,-1.2861,-1.2813,-1.2813,-1.2813,-1.2813,-1.2813,-1.2813,-1.2813,-1.2813,-1.2813,-1.2813,-1.2813,-1.2813,-1.2813,-1.2813,-1.2813,-1.2813,-1.2813,-1.2813,-1.2813,-1.2813,-1.2813,-1.2813,-1.2813,-1.2813,-1.2813,-1.2813,-1.2813,-1.2813,-1.2813,-1.2813,-1.2813,-1.2813,-1.2813,-1.2813,-1.2813,-1.2014,-1.1619,-1.1619,-1.0837,-1.0444,-1.0444,-1.0444,-1.0444,-1.0395,-1.0145,-0.9998,-1.4183,-1.4298,-1.4298,-1.4298,-1.4298,-1.4298,-1.4298,-1.4298,-1.4413,-1.4805,-1.501,-1.5498,-1.6704,-1.6403,-1.6358,-1.7647,-1.7206,-1.664,-1.664,-1.7016,-1.7156,-1.6687,-1.7016,-1.7296,-1.7296,-1.6922,-1.664,-1.664,-1.7063,-1.7109,-1.6687,-1.664,-1.6452,-1.5981,-1.5988,-1.5704,-1.514,-1.458,-1.4437,-1.4714,-1.4835,-1.5028,-1.5282,-1.5282,-1.5282,-1.5276,-1.5155,-1.5022,-1.4877,-1.4769,-1.4624,-1.4467,-1.4208,-1.4208,-1.425,-1.4064,-1.3829,-1.369,-1.3443,-1.3152,-1.2953,-1.2953,-1.291,-1.2813,-1.2813,-1.2813,-1.2813,-1.2813,-1.2813,-1.2813,-1.2813,-1.2813,-1.2813,-1.2813,-1.2813,-1.2813,-1.2813,-1.2813,-1.2813,-1.2813,-1.2813,-1.2813,-1.2813,-1.2813,-1.2813,-1.2813,-1.2813,-1.2613,-1.2165,-1.2511,-1.2813,-1.2813,-1.2813,-1.2813,-1.2813,-1.2813,-1.2613,-1.2116,-1.2116,-1.1868,-1.1429,-1.0837,-1.0489,-1.0489,-0.9899,-0.9608,-0.9608,-0.9608,-0.9608,-0.9608,-0.911,-0.8913,-1.4226,-1.4298,-1.4298,-1.4298,-1.4298,-1.4298,-1.4298,-1.4298,-1.4455,-1.4992,-1.5083,-1.5323,-1.6288,-1.5695,-1.5488,-1.6748,-1.6197,-1.5609,-1.5609,-1.6358,-1.6593,-1.5704,-1.6358,-1.6922,-1.6922,-1.6123,-1.5609,-1.5609,-1.6405,-1.6499,-1.5656,-1.5609,-1.5188,-1.4346,-1.4298,-1.4298,-1.4298,-1.4334,-1.4491,-1.4775,-1.5034,-1.5294,-1.5553,-1.5553,-1.5553,-1.5535,-1.5312,-1.5191,-1.5143,-1.4914,-1.4781,-1.4647,-1.4169,-1.4051,-1.4202,-1.3678,-1.3491,-1.3394,-1.3195,-1.2953,-1.2813,-1.2813,-1.2813,-1.2813,-1.2813,-1.2813,-1.2813,-1.2813,-1.2813,-1.2813,-1.2813,-1.2813,-1.2813,-1.2813,-1.2813,-1.2813,-1.2813,-1.2813,-1.2764,-1.2613,-1.271,-1.271,-1.2414,-1.2511,-1.2565,-1.2419,-1.2365,-1.2019,-1.1126,-1.1917,-1.2511,-1.237,-1.2365,-1.2365,-1.2365,-1.2365,-1.197,-1.1023,-1.0974,-1.0587,-0.9657,-0.946,-0.941,-0.941,-0.9262,-0.916,-0.916,-0.916,-0.916,-0.916,-0.8219,-0.7773,-1.4226,-1.4298,-1.4298,-1.4298,-1.4298,-1.4298,-1.4298,-1.4298,-1.4455,-1.4992,-1.4938,-1.4964,-1.5606,-1.5178,-1.485,-1.5096,-1.483,-1.458,-1.458,-1.4723,-1.4765,-1.458,-1.4717,-1.4813,-1.4813,-1.4669,-1.458,-1.458,-1.4717,-1.4717,-1.458,-1.458,-1.4484,-1.4298,-1.4298,-1.4298,-1.4298,-1.4527,-1.4775,-1.504,-1.5306,-1.5565,-1.5819,-1.5819,-1.5819,-1.5819,-1.5771,-1.5632,-1.5427,-1.5384,-1.5107,-1.4659,-1.4365,-1.4119,-1.3931,-1.3636,-1.3346,-1.3147,-1.3098,-1.2953,-1.2813,-1.2813,-1.2813,-1.2813,-1.2813,-1.2813,-1.2813,-1.2813,-1.2813,-1.2813,-1.2813,-1.2813,-1.2813,-1.2813,-1.2813,-1.2813,-1.2813,-1.2813,-1.2565,-1.1668,-1.2214,-1.2219,-1.0444,-1.0881,-1.1175,-1.0297,-1.0149,-1.01,-0.9903,-1.0832,-1.1126,-1.0248,-1.0149,-1.0149,-1.0149,-1.0149,-1.01,-0.9899,-0.9899,-0.9801,-0.9608,-0.8764,-0.8269,-0.8269,-0.7428,-0.6933,-0.6933,-0.6933,-0.6933,-0.6933,-0.6783,-0.6537,-1.4262,-1.4298,-1.4298,-1.4298,-1.4298,-1.4298,-1.4298,-1.4298,-1.4455,-1.4992,-1.4902,-1.4835,-1.5228,-1.498,-1.4666,-1.4521,-1.4383,-1.4298,-1.4298,-1.4425,-1.4515,-1.4515,-1.4515,-1.4515,-1.4515,-1.4383,-1.4298,-1.4298,-1.4298,-1.4298,-1.4298,-1.4298,-1.4298,-1.4298,-1.4298,-1.4298,-1.4298,-1.4576,-1.4847,-1.5113,-1.5372,-1.5638,-1.5891,-1.5891,-1.5891,-1.5891,-1.5891,-1.5819,-1.5692,-1.5553,-1.5245,-1.4835,-1.4313,-1.399,-1.382,-1.3342,-1.3098,-1.3098,-1.3001,-1.2856,-1.2813,-1.2813,-1.2813,-1.2813,-1.2813,-1.2813,-1.2813,-1.2813,-1.2813,-1.2813,-1.2813,-1.2813,-1.2813,-1.2813,-1.2365,-1.1965,-1.1965,-1.1526,-1.0984,-1.0489,-1.0788,-1.0792,-0.9756,-1.0047,-1.0194,-0.9657,-0.9608,-0.941,-0.8863,-0.9205,-0.955,-0.9608,-0.9608,-0.9608,-0.9608,-0.9608,-0.9357,-0.8814,-0.8764,-0.8517,-0.7971,-0.7428,-0.7179,-0.7179,-0.6684,-0.6387,-0.6387,-0.6387,-0.6387,-0.6387,-0.6239,-0.6139,-1.4298,-1.4298,-1.4298,-1.4298,-1.4298,-1.4298,-1.4298,-1.4298,-1.4455,-1.4992,-1.4853,-1.4727,-1.5046,-1.4841,-1.4558,-1.4334,-1.4298,-1.4298,-1.4298,-1.4539,-1.4714,-1.4714,-1.4769,-1.4781,-1.4727,-1.4515,-1.4358,-1.4298,-1.4298,-1.4298,-1.4298,-1.4298,-1.4298,-1.4298,-1.4298,-1.4328,-1.4389,-1.466,-1.4932,-1.5197,-1.5457,-1.5692,-1.5891,-1.5891,-1.5891,-1.5891,-1.5891,-1.5891,-1.5873,-1.5615,-1.5338,-1.5029,-1.4212,-1.3857,-1.3728,-1.3046,-1.291,-1.3001,-1.2861,-1.2813,-1.2813,-1.2813,-1.2813,-1.2818,-1.2867,-1.2834,-1.2899,-1.2948,-1.2964,-1.2866,-1.2615,-1.2768,-1.2904,-1.2601,-1.1653,-1.0881,-1.0881,-1.0194,-0.9509,-0.9312,-0.946,-0.946,-0.9011,-0.911,-0.916,-0.8962,-0.8913,-0.8616,-0.7773,-0.7673,-0.7971,-0.8814,-0.8913,-0.8913,-0.8913,-0.8913,-0.8566,-0.7723,-0.7673,-0.7279,-0.6434,-0.6387,-0.6387,-0.6387,-0.6387,-0.6387,-0.6387,-0.6387,-0.6387,-0.6287,-0.6092,-0.5942,-1.4298,-1.4298,-1.4298,-1.4298,-1.4298,-1.4298,-1.4298,-1.4298,-1.4455,-1.4992,-1.4696,-1.4491,-1.5016,-1.4684,-1.4328,-1.4298,-1.4298,-1.4298,-1.4298,-1.4539,-1.4714,-1.4714,-1.4926,-1.498,-1.4739,-1.4696,-1.457,-1.4316,-1.4298,-1.4298,-1.4298,-1.4298,-1.4298,-1.4298,-1.4298,-1.4419,-1.4672,-1.4938,-1.5203,-1.5469,-1.5728,-1.5867,-1.5891,-1.5891,-1.5891,-1.5891,-1.5891,-1.5891,-1.5885,-1.5613,-1.5352,-1.4995,-1.4196,-1.3746,-1.348,-1.2997,-1.2813,-1.2813,-1.2813,-1.2813,-1.2813,-1.2813,-1.2813,-1.2851,-1.3012,-1.3071,-1.312,-1.3351,-1.3467,-1.3206,-1.2064,-1.2633,-1.3148,-1.1917,-1.0672,-0.9752,-0.9752,-0.9657,-0.9308,-0.8319,-0.8913,-0.8966,-0.703,-0.7528,-0.7822,-0.6833,-0.6684,-0.6684,-0.6584,-0.6534,-0.6587,-0.6684,-0.6684,-0.6684,-0.6684,-0.6684,-0.6634,-0.6534,-0.6534,-0.6484,-0.6387,-0.6387,-0.6387,-0.6387,-0.6387,-0.6387,-0.6387,-0.6387,-0.6287,-0.6042,-0.5992,-0.5741,-1.4298,-1.4298,-1.4298,-1.4298,-1.4298,-1.4298,-1.4298,-1.4431,-1.4654,-1.5028,-1.4811,-1.4666,-1.504,-1.4666,-1.4298,-1.4298,-1.4298,-1.4298,-1.4298,-1.4678,-1.495,-1.495,-1.5185,-1.524,-1.498,-1.4805,-1.46,-1.4322,-1.4298,-1.4298,-1.4298,-1.4298,-1.4298,-1.4298,-1.4298,-1.4431,-1.4714,-1.498,-1.524,-1.5499,-1.5765,-1.5891,-1.5891,-1.5891,-1.5891,-1.5891,-1.5891,-1.5891,-1.5891,-1.5636,-1.531,-1.4953,-1.4178,-1.3762,-1.3433,-1.2953,-1.2813,-1.2813,-1.2813,-1.2813,-1.2689,-1.2127,-1.1969,-1.2083,-1.2872,-1.3211,-1.3351,-1.3448,-1.2956,-1.2334,-1.1813,-1.1545,-1.1259,-1.0716,-0.9721,-0.8834,-0.8787,-0.8261,-0.7629,-0.7147,-0.7378,-0.7428,-0.6534,-0.6734,-0.6883,-0.6487,-0.6387,-0.6387,-0.6387,-0.6387,-0.6387,-0.6387,-0.6387,-0.6387,-0.6387,-0.6387,-0.6387,-0.6387,-0.6387,-0.6387,-0.6387,-0.6387,-0.6387,-0.6387,-0.6387,-0.6337,-0.6139,-0.6139,-0.6039,-0.5737,-0.5591,-0.5391,-1.4298,-1.4298,-1.4298,-1.4298,-1.4298,-1.4298,-1.4298,-1.4449,-1.4666,-1.4938,-1.4781,-1.4672,-1.4944,-1.4612,-1.4298,-1.4298,-1.4298,-1.4298,-1.4298,-1.4763,-1.5107,-1.5107,-1.5409,-1.5481,-1.5143,-1.4799,-1.4509,-1.431,-1.4298,-1.4298,-1.4298,-1.4298,-1.4298,-1.4298,-1.4298,-1.4467,-1.4829,-1.5016,-1.5276,-1.5614,-1.5801,-1.5891,-1.5891,-1.5891,-1.5891,-1.5891,-1.5891,-1.5838,-1.5737,-1.5476,-1.5108,-1.4728,-1.404,-1.3631,-1.3319,-1.261,-1.2316,-1.2262,-1.197,-1.1873,-1.1761,-1.1125,-1.0973,-1.1184,-1.2013,-1.2402,-1.2546,-1.2663,-1.1782,-1.0936,-1.1304,-1.0257,-0.9219,-0.953,-0.8766,-0.7876,-0.7827,-0.7156,-0.6594,-0.6457,-0.6411,-0.6387,-0.6387,-0.6387,-0.6387,-0.6387,-0.6387,-0.6387,-0.6387,-0.6387,-0.6387,-0.6387,-0.6387,-0.6387,-0.6387,-0.6387,-0.6387,-0.6387,-0.6387,-0.6387,-0.6387,-0.6387,-0.6387,-0.6387,-0.6337,-0.6189,-0.5992,-0.5942,-0.5739,-0.5486,-0.529,-0.514,-1.4298,-1.4298,-1.4298,-1.4298,-1.4298,-1.4298,-1.4298,-1.4298,-1.4383,-1.466,-1.4497,-1.4389,-1.4666,-1.4485,-1.4298,-1.4298,-1.4298,-1.4298,-1.4298,-1.4763,-1.5107,-1.5107,-1.5565,-1.568,-1.5161,-1.4618,-1.4298,-1.4298,-1.4298,-1.4298,-1.4298,-1.4298,-1.4298,-1.4298,-1.4298,-1.4558,-1.5101,-1.5107,-1.5366,-1.5885,-1.5891,-1.5891,-1.5891,-1.5891,-1.5891,-1.5891,-1.5891,-1.5737,-1.5482,-1.5148,-1.4733,-1.4234,-1.3727,-1.3324,-1.2927,-1.1693,-1.1224,-1.1072,-0.9998,-0.9657,-0.9636,-0.9769,-0.9942,-1.0116,-1.0294,-1.035,-1.0391,-1.0669,-0.9845,-0.9192,-1.0394,-0.8862,-0.7305,-0.8424,-0.7733,-0.6801,-0.6801,-0.6706,-0.6619,-0.6619,-0.6468,-0.6387,-0.6387,-0.6387,-0.6387,-0.6387,-0.6387,-0.6387,-0.6387,-0.6387,-0.6387,-0.6387,-0.6387,-0.6387,-0.6387,-0.6387,-0.6387,-0.6387,-0.6387,-0.6387,-0.6387,-0.6387,-0.6387,-0.6387,-0.6139,-0.5992,-0.5992,-0.5737,-0.5486,-0.519,-0.519,-0.5037,-1.4298,-1.4298,-1.4298,-1.4298,-1.4298,-1.4298,-1.4298,-1.4443,-1.4612,-1.4696,-1.4648,-1.4612,-1.4702,-1.4485,-1.4298,-1.4298,-1.4298,-1.4298,-1.4298,-1.4612,-1.4807,-1.4829,-1.4995,-1.5011,-1.4821,-1.4509,-1.4298,-1.4298,-1.4298,-1.4298,-1.4298,-1.4298,-1.4298,-1.4298,-1.4298,-1.4473,-1.4835,-1.5022,-1.5282,-1.5626,-1.5807,-1.5891,-1.5891,-1.5891,-1.5891,-1.5891,-1.569,-1.5476,-1.5147,-1.3916,-1.3252,-1.2817,-1.1569,-1.1038,-1.0906,-1.0313,-1.0096,-1.0047,-0.9706,-0.9608,-0.9488,-0.891,-0.8815,-0.8818,-0.8227,-0.9255,-1.0435,-0.9673,-0.9196,-0.8809,-0.842,-0.7732,-0.721,-0.759,-0.7342,-0.7021,-0.6945,-0.6896,-0.682,-0.6651,-0.6589,-0.6484,-0.64,-0.6387,-0.6387,-0.6387,-0.6387,-0.6387,-0.6387,-0.6387,-0.6387,-0.6387,-0.6387,-0.6387,-0.6387,-0.6387,-0.6387,-0.6387,-0.6387,-0.6387,-0.6387,-0.6239,-0.6139,-0.6139,-0.5839,-0.5639,-0.5441,-0.5391,-0.5188,-0.4937,-0.4937,-0.4481,-1.4298,-1.4298,-1.4298,-1.4298,-1.4298,-1.4298,-1.4298,-1.4431,-1.4558,-1.4558,-1.4558,-1.4558,-1.4558,-1.4419,-1.4298,-1.4298,-1.4298,-1.425,-1.416,-1.4393,-1.4562,-1.4558,-1.4556,-1.4539,-1.4529,-1.4412,-1.4298,-1.4298,-1.4298,-1.4298,-1.4298,-1.4298,-1.4298,-1.4298,-1.4298,-1.4431,-1.4714,-1.498,-1.524,-1.5499,-1.5765,-1.5891,-1.5891,-1.5891,-1.5613,-1.5066,-1.482,-1.4267,0.0,-1.2379,-1.1756,-1.1355,-1.037,-0.9928,-0.9758,-0.9198,-0.9011,-0.8962,-0.8517,-0.8368,-0.8297,-0.7744,-0.7721,-0.7796,-0.7231,-0.8136,-0.9244,-0.8478,-0.826,-0.8094,-0.7376,-0.721,-0.721,-0.721,-0.721,-0.7191,-0.7119,-0.7016,-0.694,-0.6787,-0.6681,-0.6594,-0.6468,-0.6416,-0.6387,-0.6387,-0.6387,-0.6387,-0.6387,-0.6387,-0.6387,-0.6387,-0.6387,-0.6387,-0.6387,-0.6387,-0.6387,-0.6387,-0.6387,-0.6337,-0.6239,-0.6092,-0.5942,-0.5839,-0.5586,-0.5388,-0.519,-0.4686,-0.413,-0.3575,-0.3575,-0.3224,0.0,-1.4298,-1.4298,-1.4298,-1.4298,-1.4298,-1.4298,-1.4298,0.0,-1.4298,-1.4298,-1.4298,-1.4298,-1.4298,-1.4298,-1.4298,-1.4298,-1.4208,-1.3931,-1.4105,-1.424,-1.4252,-1.4242,-1.4257,-1.424,-1.4255,-1.425,-1.425,-1.425,-1.425,-1.425,-1.4196,-1.4148,-1.4148,-1.4052,-1.4225,-1.4684,-1.495,-1.5158,-1.5365,-1.5629,-1.5707,-1.5618,-1.5613,-1.484,-1.3503,-1.3355,-1.2399,-1.0877,-1.0646,-1.0262,-0.9851,-0.9797,-0.96,-0.9262,-0.8269,-0.7872,-0.7726,-0.6734,-0.6387,-0.6408,-0.6589,-0.6787,-0.6994,-0.7174,-0.721,-0.721,-0.721,-0.721,-0.721,-0.721,-0.721,-0.721,-0.721,-0.721,-0.721,-0.721,-0.7125,-0.6994,-0.6986,-0.6793,-0.663,-0.6622,-0.6468,-0.6387,-0.6387,-0.6387,-0.6387,-0.6387,-0.6387,-0.6387,-0.6387,-0.6387,-0.6387,-0.6387,-0.6387,-0.6387,-0.6387,-0.6387,-0.6239,-0.5992,-0.5942,-0.5839,-0.5586,-0.5238,-0.5039,-0.5039,-0.3728,-0.2569,-0.1613,-0.1613,-0.1563,-1.4298,0.0,-1.4298,-1.4298,-1.4298,-1.4298,0.0,-1.4298,-1.4298,-1.4298,-1.4298,-1.4298,-1.4298,-1.4298,-1.4298,-1.4298,-1.4298,-1.4208,-1.3931,-1.3805,-1.3711,-1.3679,-1.3677,-1.3682,-1.3696,-1.367,-1.3684,-1.3684,-1.3684,-1.3684,-1.3684,-1.2937,-1.2538,-1.2538,-1.1745,-1.2306,-1.4346,-1.4666,-1.448,-1.3894,-1.3923,-1.3539,-1.2901,-1.267,-1.2309,-1.1843,-1.1584,-1.1133,-1.045,-0.9379,-0.8762,-0.8371,-0.7575,-0.7206,-0.7129,-0.6883,-0.6783,-0.6734,-0.6484,-0.6387,-0.6422,-0.6687,-0.6798,-0.6883,-0.7147,-0.721,-0.721,-0.721,-0.721,-0.721,-0.721,-0.721,-0.721,-0.721,-0.721,-0.721,-0.721,-0.7188,-0.7144,-0.7002,-0.6864,-0.6728,-0.6635,-0.6468,-0.6387,-0.6387,-0.6387,-0.6387,-0.6387,-0.6387,-0.6387,-0.6387,-0.6387,-0.6387,-0.6387,-0.6387,-0.6387,-0.6387,-0.6189,-0.6089,-0.5992,-0.5591,-0.534,-0.529,-0.423,-0.3677,-0.3677,-0.2519,-0.1865,-0.1613,-0.1613,-0.1159,-1.4298,-1.4298,-1.4298,-1.4298,-1.4298,-1.4298,-1.4298,-1.4298,-1.4298,-1.4298,-1.4298,-1.425,-1.416,-1.4112,-1.4064,-1.3968,-1.3919,-1.3823,-1.3588,-1.3312,-1.3199,-1.3169,-1.3263,-1.334,-1.3309,-1.3443,-1.3491,-1.3491,-1.3093,-1.2797,-1.2797,-1.1853,-1.1258,-1.1258,-1.0711,-1.1102,-1.2479,-1.2771,-1.2703,-1.2299,-1.2359,-1.2151,-1.1746,-1.1544,-1.1018,-1.0334,-1.0064,-0.9475,-0.8595,-0.7816,-0.7394,-0.7229,-0.6634,-0.6387,-0.6387,-0.6387,-0.6387,-0.6387,-0.6387,-0.6387,-0.6416,-0.6657,-0.6755,-0.6836,-0.7021,-0.7169,-0.721,-0.721,-0.721,-0.721,-0.721,-0.721,-0.721,-0.721,-0.721,-0.721,-0.721,-0.721,-0.7191,-0.713,-0.6967,-0.6847,-0.6725,-0.66,-0.6452,-0.6395,-0.6387,-0.6387,-0.6387,-0.6387,-0.6387,-0.6387,-0.6387,-0.6387,-0.6387,-0.6287,-0.6239,-0.6239,-0.6092,-0.5892,-0.5641,-0.534,-0.4887,-0.4282,-0.3073,-0.2217,-0.1713,-0.1159,-0.0605,-0.0151,-0.0151,0.0202,-1.4286,-1.4298,-1.4298,-1.4298,-1.4298,-1.4298,-1.4298,-1.4298,-1.4298,-1.4298,-1.425,-1.416,-1.3931,-1.3883,-1.3738,-1.3539,-1.334,-1.3147,-1.2899,-1.2559,-1.2316,-1.2316,-1.2462,-1.2559,-1.2559,-1.2754,-1.2899,-1.2899,-1.2106,-1.1609,-1.1609,-1.0618,-1.0026,-1.0026,-0.9878,-0.978,-0.978,-1.0441,-1.072,-1.0699,-1.0844,-1.0909,-1.0833,-1.0716,-0.9994,-0.8771,-0.8557,-0.7722,-0.6584,-0.6427,-0.6387,-0.6387,-0.6387,-0.6387,-0.6387,-0.6387,-0.6387,-0.6387,-0.6387,-0.6387,-0.6406,-0.6581,-0.6703,-0.6825,-0.6948,-0.7119,-0.721,-0.721,-0.721,-0.721,-0.721,-0.721,-0.721,-0.721,-0.721,-0.721,-0.721,-0.721,-0.721,-0.721,-0.7117,-0.6953,-0.685,-0.6714,-0.6584,-0.643,-0.6398,-0.6387,-0.6387,-0.6387,-0.6387,-0.6387,-0.6387,-0.6337,-0.6337,-0.5939,-0.5689,-0.5639,-0.5639,-0.5338,-0.4686,-0.4636,-0.4131,-0.2972,-0.1915,-0.0907,0.0,0.0151,0.0706,0.1617,0.1617,0.1617,-1.4238,-1.4298,-1.4298,-1.4298,-1.4298,-1.4298,-1.4298,-1.4298,-1.4298,-1.4298,-1.4112,-1.3931,-1.3931,-1.369,-1.3539,-1.3491,-1.2597,-1.1858,-1.1858,-1.0832,-1.01,-1.01,-1.01,-1.0149,-1.0149,-1.0149,-1.0194,-1.0194,-1.0047,-0.9948,-0.9948,-0.8958,-0.8365,-0.8365,-0.7471,-0.7027,-0.7027,-0.9316,-1.0066,-0.9297,-0.9202,-0.8716,-0.7855,-0.7744,-0.7399,-0.6981,-0.6941,-0.676,-0.6414,-0.6395,-0.6387,-0.6387,-0.6387,-0.6387,-0.6387,-0.6387,-0.6387,-0.6387,-0.6387,-0.6387,-0.6406,-0.6581,-0.6703,-0.6825,-0.6948,-0.7119,-0.721,-0.721,-0.721,-0.721,-0.721,-0.721,-0.721,-0.721,-0.721,-0.721,-0.721,-0.721,-0.721,-0.721,-0.7117,-0.698,-0.6959,-0.6771,-0.6611,-0.6594,-0.6452,-0.6387,-0.6387,-0.6387,-0.6387,-0.6387,-0.6189,-0.6039,-0.6039,-0.4981,-0.4228,-0.3981,-0.3981,-0.3426,-0.2218,-0.2167,-0.2066,-0.1865,-0.0806,-0.0151,0.0,0.0908,0.1414,0.1617,0.1617,0.1617,-1.4226,-1.4298,-1.425,-1.4112,-1.407,-1.407,-1.407,-1.3968,-1.3871,-1.3871,-1.3781,-1.3491,-1.2797,-1.2549,-1.2257,-1.1521,-1.0881,-1.0538,-1.0538,-0.9998,-0.9608,-0.9608,-0.9608,-0.9608,-0.9608,-0.9608,-0.9608,-0.9608,-0.9061,-0.8715,-0.8715,-0.7723,-0.7129,-0.7129,-0.6634,-0.6387,-0.6387,-0.7617,-0.8042,-0.7686,-0.7646,-0.7406,-0.6957,-0.6843,-0.6725,-0.6616,-0.6497,-0.6438,-0.6387,-0.6387,-0.6387,-0.6387,-0.6387,-0.6387,-0.6387,-0.6387,-0.6387,-0.6387,-0.6387,-0.6387,-0.6395,-0.6452,-0.6649,-0.6812,-0.6869,-0.7013,-0.721,-0.721,-0.721,-0.721,-0.721,-0.721,-0.721,-0.721,-0.721,-0.721,-0.721,-0.721,-0.721,-0.721,-0.7166,-0.7111,-0.6994,-0.6893,-0.6774,-0.6638,-0.657,-0.646,-0.6395,-0.6387,-0.6187,-0.5584,-0.5286,-0.4883,-0.4329,-0.3422,-0.2868,-0.2718,-0.262,-0.2268,-0.1613,-0.1058,-0.0756,-0.0756,0.0303,0.0858,0.0858,0.1364,0.1617,0.1617,0.1617,0.1617,-1.4208,-1.4298,-1.425,-1.4022,-1.3973,-1.3979,-1.3835,-1.3491,-1.319,-1.3147,-1.2899,-1.2355,-1.1419,-1.117,-1.0779,-0.9756,-0.941,-0.9209,-0.9209,-0.9011,-0.8863,-0.8863,-0.8863,-0.8863,-0.8863,-0.8863,-0.8863,-0.8863,-0.8071,-0.7627,-0.7627,-0.6833,-0.6387,-0.6387,-0.6387,-0.6387,-0.6387,-0.6387,-0.6433,-0.6578,-0.6605,-0.6654,-0.6714,-0.6649,-0.6603,-0.657,-0.6427,-0.6387,-0.6387,-0.6387,-0.6387,-0.6387,-0.6387,-0.6387,-0.6387,-0.6387,-0.6387,-0.6387,-0.6387,-0.6387,-0.6387,-0.6387,-0.6584,-0.6763,-0.6793,-0.6948,-0.7177,-0.7202,-0.721,-0.721,-0.721,-0.721,-0.721,-0.721,-0.721,-0.721,-0.721,-0.721,-0.721,-0.721,-0.721,-0.7182,-0.704,-0.7002,-0.6921,-0.6733,-0.6448,-0.6172,-0.6083,-0.5849,-0.5331,-0.4431,-0.4078,-0.3422,-0.2266,-0.1762,-0.1409,-0.1158,-0.1209,-0.1109,-0.0857,-0.005,0.0353,0.0353,0.1161,0.1617,0.1617,0.1617,0.1617,0.1617,0.1617,0.1617,-1.4159,-1.4298,-1.4298,-1.4298,-1.425,-1.4154,-1.3636,-1.2937,-1.2339,-1.215,-1.1126,-1.0243,-1.0145,-0.9899,-0.9706,-0.9608,-0.8764,-0.812,-0.812,-0.7279,-0.6634,-0.6634,-0.6634,-0.6634,-0.6634,-0.6634,-0.6634,-0.6634,-0.6534,-0.6537,-0.6537,-0.6437,-0.6387,-0.6387,-0.6387,-0.6387,-0.6387,-0.6387,-0.6389,-0.64,-0.6564,-0.6564,-0.6416,-0.657,-0.6556,-0.6398,-0.6389,-0.6387,-0.6387,-0.6387,-0.6387,-0.6387,-0.6387,-0.6387,-0.6387,-0.6387,-0.6387,-0.6387,-0.6387,-0.6387,-0.6387,-0.6387,-0.6473,-0.6654,-0.6766,-0.6893,-0.7018,-0.718,-0.721,-0.721,-0.721,-0.721,-0.721,-0.721,-0.721,-0.721,-0.721,-0.721,-0.721,-0.721,-0.721,-0.7207,-0.7199,-0.7109,-0.698,-0.6961,-0.5917,-0.5113,-0.5107,-0.4119,-0.3323,-0.2971,-0.2718,-0.1913,-0.0353,-0.0151,0.0303,0.1262,0.0403,0.0353,0.1313,0.1465,0.1465,0.1465,0.1566,0.1617,0.1617,0.1617,0.1617,0.1617,0.1617,0.1617,-1.4153,-1.3709,-1.3071,-1.3125,-1.2479,-1.1989,-1.2446,-1.2198,-1.1609,-1.0681,-1.0096,-0.9554,-0.8863,-0.812,-0.7624,-0.7624,-0.7279,-0.6983,-0.6983,-0.6634,-0.6387,-0.6387,-0.6387,-0.6387,-0.6387,-0.6387,-0.6387,-0.6387,-0.6387,-0.6419,-0.6495,-0.65,-0.65,-0.65,-0.65,-0.6462,-0.6387,-0.6387,-0.6387,-0.6387,-0.6433,-0.643,-0.6387,-0.6433,-0.643,-0.6387,-0.6387,-0.6387,-0.6387,-0.6387,-0.6387,-0.6387,-0.6387,-0.6387,-0.6387,-0.6387,-0.6387,-0.6387,-0.6387,-0.6387,-0.6387,-0.6387,-0.6468,-0.6641,-0.6766,-0.6888,-0.701,-0.7177,-0.721,-0.721,-0.721,-0.721,-0.721,-0.721,-0.721,-0.721,-0.721,-0.721,-0.721,-0.721,-0.6596,-0.6096,-0.6096,-0.5396,-0.4858,-0.4751,-0.4312,-0.3992,-0.3895,-0.3313,-0.2664,-0.1897,-0.0812,0.0151,0.0908,0.1009,0.1161,0.1566,0.1212,0.1161,0.1566,0.1617,0.1617,0.1617,0.1617,0.1617,0.1617,0.1617,0.1617,0.1617,0.1617,0.1617,-1.3427,-1.2678,-1.1697,-1.175,-1.1058,-1.0467,-1.0769,-1.0725,-1.0333,-0.9308,-0.8814,-0.8368,-0.7627,-0.6883,-0.6387,-0.6387,-0.6387,-0.6387,-0.6387,-0.6387,-0.6387,-0.6387,-0.6387,-0.6387,-0.6387,-0.6387,-0.6387,-0.6387,-0.6422,-0.6478,-0.6616,-0.6657,-0.666,-0.6622,-0.6619,-0.6559,-0.6387,-0.6387,-0.6387,-0.6387,-0.6387,-0.6387,-0.6387,-0.6387,-0.6387,-0.6387,-0.6387,-0.6387,-0.6387,-0.6387,-0.6387,-0.6387,-0.6387,-0.6387,-0.6387,-0.6387,-0.6387,-0.6387,-0.6387,-0.6387,-0.6387,-0.6387,-0.6441,-0.6592,-0.6752,-0.6861,-0.6959,-0.7166,-0.721,-0.721,-0.721,-0.721,-0.7099,-0.6707,-0.6652,-0.6541,-0.6149,-0.6035,-0.6035,-0.6035,-0.5423,-0.4812,-0.4812,-0.4139,-0.3567,-0.347,-0.3119,-0.2824,-0.2628,-0.2111,-0.146,-0.0519,0.0613,0.1415,0.1566,0.1617,0.1617,0.1617,0.1617,0.1617,0.1617,0.1617,0.1617,0.1617,0.1617,0.1617,0.1617,0.1617,0.1617,0.1617,0.1617,0.1617,-1.1829,-1.1209,-1.0369,-1.0369,-1.0369,-1.0026,-0.8707,-0.8414,-0.8315,-0.8021,-0.7129,-0.6387,-0.6387,-0.6387,-0.6387,-0.6387,-0.6387,-0.6387,-0.6387,-0.6387,-0.6387,-0.6387,-0.6387,-0.6387,-0.6387,-0.6387,-0.6387,-0.6387,-0.65,-0.6622,-0.6622,-0.6738,-0.6747,-0.6624,-0.6622,-0.6562,-0.6387,-0.6387,-0.6387,-0.6387,-0.6387,-0.6387,-0.6387,-0.6387,-0.6387,-0.6387,-0.6387,-0.6387,-0.6387,-0.6387,-0.6387,-0.6387,-0.6387,-0.6387,-0.6387,-0.6387,-0.6387,-0.6387,-0.6387,-0.6387,-0.6387,-0.6387,-0.6387,-0.6433,-0.6728,-0.6801,-0.6853,-0.7144,-0.721,-0.721,-0.721,-0.721,-0.6877,-0.5706,-0.5371,-0.5035,-0.386,-0.358,-0.358,-0.358,-0.358,-0.358,-0.358,-0.358,-0.358,-0.358,-0.2537,-0.1637,-0.1309,-0.0269,0.0636,0.1249,0.1482,0.1617,0.1617,0.1617,0.1617,0.1617,0.1617,0.1617,0.1617,0.1617,0.1617,0.1617,0.1617,0.1617,0.1617,0.1617,0.1617,0.1617,0.1617,0.1617,-1.0752,-0.9932,-0.9049,-0.9243,-0.8407,-0.7521,-0.7335,-0.7875,-0.8117,-0.708,-0.6634,-0.6387,-0.6387,-0.6387,-0.6387,-0.6387,-0.6387,-0.6387,-0.6387,-0.6387,-0.6387,-0.6387,-0.6387,-0.6387,-0.6387,-0.6462,-0.6564,-0.6564,-0.6679,-0.6785,-0.6872,-0.691,-0.6874,-0.6752,-0.6747,-0.6646,-0.6387,-0.6387,-0.6387,-0.6387,-0.6387,-0.6387,-0.6387,-0.6387,-0.6387,-0.6387,-0.6387,-0.6387,-0.6387,-0.6387,-0.6387,-0.6387,-0.6387,-0.6387,-0.6387,-0.6387,-0.6387,-0.6387,-0.6387,-0.6387,-0.6387,-0.6387,-0.6387,-0.6433,-0.6728,-0.6801,-0.6853,-0.7144,-0.721,-0.6988,-0.6151,-0.5929,-0.5817,-0.5483,-0.4756,-0.4029,-0.3692,-0.358,-0.358,-0.358,-0.291,-0.2351,-0.2351,-0.1623,-0.1064,-0.1064,-0.0614,-0.0055,0.0438,0.0816,0.1186,0.1536,0.1614,0.1649,0.1649,0.1629,0.1617,0.1617,0.1617,0.1617,0.1617,0.1617,0.1617,0.1617,0.1617,0.1617,0.1617,0.1617,0.1617,0.1617,0.1617,0.1617,-0.9364,-0.8555,-0.7624,-0.7819,-0.7129,-0.6437,-0.6589,-0.7132,-0.7375,-0.6584,-0.6425,-0.646,-0.646,-0.6497,-0.6581,-0.6581,-0.6581,-0.6581,-0.6581,-0.6581,-0.6581,-0.6581,-0.6581,-0.6581,-0.6581,-0.6649,-0.6692,-0.6692,-0.6804,-0.6907,-0.698,-0.7027,-0.6975,-0.6806,-0.6801,-0.6684,-0.6389,-0.6387,-0.6387,-0.6387,-0.6387,-0.6387,-0.6387,-0.6387,-0.6387,-0.6387,-0.6387,-0.6387,-0.6387,-0.6387,-0.6387,-0.6387,-0.6387,-0.6387,-0.6387,-0.6387,-0.6387,-0.6387,-0.6387,-0.6387,-0.6387,-0.6387,-0.6387,-0.6433,-0.6728,-0.6482,-0.626,-0.6976,-0.6482,-0.5701,-0.5483,-0.4698,-0.3971,-0.3971,-0.3413,-0.2742,-0.2295,-0.2183,-0.2183,-0.2183,-0.1567,-0.1064,-0.1064,-0.0504,0.0056,0.0168,0.0505,0.0894,0.1272,0.1427,0.1579,0.1724,0.1696,0.1679,0.1679,0.1652,0.1635,0.1635,0.1624,0.1617,0.1617,0.1617,0.1617,0.1617,0.1617,0.1617,0.1617,0.1617,0.1617,0.1617,0.1617,0.1617,-0.7786,-0.7129,-0.6387,-0.6387,-0.6387,-0.6387,-0.6387,-0.6387,-0.6387,-0.6387,-0.6473,-0.6603,-0.6603,-0.6695,-0.6768,-0.6768,-0.6768,-0.6774,-0.6785,-0.6785,-0.679,-0.6801,-0.6801,-0.6801,-0.6801,-0.6812,-0.682,-0.682,-0.6931,-0.6999,-0.6999,-0.7152,-0.71,-0.6809,-0.6801,-0.6684,-0.6389,-0.6387,-0.6387,-0.6387,-0.6387,-0.6387,-0.6387,-0.6387,-0.6387,-0.6387,-0.6387,-0.6387,-0.6387,-0.6387,-0.6387,-0.6387,-0.6387,-0.6387,-0.6387,-0.6387,-0.6387,-0.6387,-0.6387,-0.6387,-0.6387,-0.6387,-0.6387,-0.6433,-0.6571,-0.5895,-0.5241,-0.6533,-0.531,-0.3804,-0.481,-0.3469,-0.1791,-0.1679,-0.1623,-0.1344,-0.0224,0.0,0.0,0.0,0.0,0.0,0.0056,0.0056,0.0112,0.0449,0.0953,0.129,0.1346,0.1605,0.1809,0.1809,0.1727,0.1708,0.1708,0.1682,0.1718,0.1718,0.1638,0.1621,0.1621,0.1618,0.1617,0.1617,0.1617,0.1617,0.1617,0.1617,0.1617,0.1617,0.1617,0.1617,-0.6702,-0.6584,-0.6387,-0.6387,-0.6387,-0.6387,-0.6387,-0.6387,-0.6387,-0.6387,-0.6408,-0.6425,-0.6425,-0.6446,-0.6465,-0.6465,-0.6465,-0.6497,-0.6643,-0.666,-0.6695,-0.679,-0.6801,-0.6801,-0.6801,-0.6891,-0.6945,-0.6945,-0.7109,-0.7174,-0.7174,-0.7196,-0.71,-0.6809,-0.6801,-0.6684,-0.6389,-0.6387,-0.6387,-0.6387,-0.6387,-0.6387,-0.6387,-0.6387,-0.6387,-0.6387,-0.6387,-0.6387,-0.6387,-0.6387,-0.6387,-0.6387,-0.6387,-0.6387,-0.6387,-0.6387,-0.6387,-0.6387,-0.6387,-0.6387,-0.6387,-0.6387,-0.6387,-0.6279,-0.5568,-0.5204,-0.4921,-0.4486,-0.4027,-0.3469,-0.2742,-0.2183,-0.1567,-0.0616,-0.0392,-0.0336,-0.0056,0.0,0.0,0.0,0.0,0.0056,0.028,0.0336,0.0505,0.1009,0.1234,0.1402,0.1683,0.1733,0.1785,0.1785,0.1813,0.1794,0.1794,0.1712,0.1695,0.1695,0.1668,0.1652,0.1652,0.1629,0.1617,0.1617,0.1617,0.1617,0.1617,0.1617,0.1617,0.1617,0.1617,0.1617,-0.6371,-0.6387,-0.6387,-0.6387,-0.6387,-0.6387,-0.6387,-0.6387,-0.6387,-0.6387,-0.6433,-0.6473,-0.6473,-0.657,-0.6611,-0.6611,-0.6611,-0.6632,-0.6698,-0.6706,-0.673,-0.6796,-0.6801,-0.6801,-0.6801,-0.6861,-0.6921,-0.698,-0.704,-0.7128,-0.7128,-0.7128,-0.6964,-0.6722,-0.6714,-0.6624,-0.6387,-0.6387,-0.6387,-0.6387,-0.6387,-0.6387,-0.6387,-0.6387,-0.6387,-0.6387,-0.6387,-0.6387,-0.6387,-0.6387,-0.6387,-0.6337,-0.5834,-0.5636,-0.5584,-0.5081,-0.4878,-0.4878,-0.4878,-0.4878,-0.4878,-0.4878,-0.4878,-0.4813,-0.436,-0.3825,-0.3427,-0.3546,-0.2742,-0.1847,-0.1791,-0.1344,-0.0728,0.0,0.0168,0.0168,0.0,0.0112,0.0168,0.0,0.0112,0.0224,0.0393,0.0617,0.0953,0.1234,0.1458,0.1627,0.1795,0.1795,0.1795,0.1795,0.178,0.1826,0.1826,0.1744,0.1726,0.1726,0.1699,0.1682,0.1682,0.1654,0.1632,0.1617,0.1617,0.1617,0.1617,0.1617,0.1617,0.1617,0.1617,0.1617,-0.6387,-0.6387,-0.6387,-0.6387,-0.6387,-0.6387,-0.6387,-0.6387,-0.6387,-0.6387,-0.6465,-0.6589,-0.6589,-0.6671,-0.6738,-0.6738,-0.6738,-0.6747,-0.6766,-0.6771,-0.6779,-0.6798,-0.6801,-0.6801,-0.6801,-0.6801,-0.6844,-0.6945,-0.6953,-0.6953,-0.6953,-0.6953,-0.6853,-0.6627,-0.6619,-0.6559,-0.6387,-0.6387,-0.6387,-0.6387,-0.6387,-0.6387,-0.6387,-0.6387,-0.6387,-0.6387,-0.6387,-0.6287,-0.6134,-0.6134,-0.6034,-0.5782,-0.4883,-0.4533,-0.4431,-0.3525,-0.3224,-0.3224,-0.3224,-0.3224,-0.3224,-0.3224,-0.3224,-0.3195,-0.3101,-0.2393,-0.177,-0.2717,-0.1567,-0.0224,-0.1232,-0.0728,0.0112,0.0336,0.0449,0.0393,0.0112,0.0224,0.0336,0.0112,0.0336,0.0561,0.0561,0.1009,0.1402,0.1402,0.1627,0.1795,0.1795,0.1795,0.1795,0.1795,0.1795,0.1795,0.1795,0.1828,0.1812,0.1812,0.1729,0.1712,0.1712,0.1684,0.1658,0.1633,0.1622,0.1617,0.1617,0.1617,0.1617,0.1617,0.1622,0.1624,-0.6387,-0.6387,-0.6387,-0.6387,-0.6387,-0.6387,-0.6387,-0.6387,-0.6387,-0.6387,-0.6398,-0.6411,-0.6411,-0.6425,-0.6435,-0.6435,-0.6435,-0.647,-0.663,-0.6643,-0.6681,-0.679,-0.6801,-0.6801,-0.6801,-0.6801,-0.6809,-0.6825,-0.6825,-0.6825,-0.6825,-0.6825,-0.6763,-0.6624,-0.6619,-0.6559,-0.6387,-0.6387,-0.6387,-0.6387,-0.6387,-0.6387,-0.6387,-0.6387,-0.6387,-0.6387,-0.6387,-0.5887,-0.5035,-0.5035,-0.4481,-0.3626,-0.3475,-0.3425,-0.3374,-0.3274,-0.3224,-0.3224,-0.3224,-0.3224,-0.3224,-0.3224,-0.3224,-0.3043,-0.2106,-0.1704,-0.1448,-0.0666,-0.0224,-0.0056,-0.0224,0.0056,0.0336,0.0393,0.0617,0.0729,0.0393,0.0393,0.0393,0.0336,0.0785,0.1177,0.1177,0.1514,0.1739,0.1739,0.1795,0.1795,0.1795,0.1795,0.1795,0.1795,0.1795,0.1795,0.1795,0.1791,0.1789,0.1789,0.1816,0.1798,0.1798,0.1714,0.1697,0.1692,0.1643,0.1617,0.1617,0.1617,0.1617,0.1618,0.1643,0.1708,-0.6387,-0.6287,-0.6189,-0.6189,-0.6037,-0.5937,-0.5937,-0.5937,-0.5834,-0.5381,-0.5281,-0.5532,-0.6284,-0.6387,-0.6387,-0.6387,-0.6387,-0.6403,-0.646,-0.6465,-0.6487,-0.6592,-0.6597,-0.6597,-0.6597,-0.6597,-0.6627,-0.6695,-0.67,-0.67,-0.67,-0.67,-0.6643,-0.647,-0.6465,-0.6441,-0.6387,-0.6387,-0.6387,-0.6387,-0.6387,-0.6087,-0.5484,-0.5484,-0.5484,-0.5484,-0.5484,-0.4883,-0.3929,-0.3929,-0.3626,-0.3123,-0.2519,-0.2318,-0.2217,-0.1613,-0.1412,-0.1412,-0.1412,-0.1412,-0.1412,-0.1412,-0.1412,-0.132,-0.0843,-0.0693,-0.0591,-0.0111,0.0112,0.0224,0.0224,0.0449,0.0673,0.0673,0.0785,0.0785,0.0449,0.0393,0.0449,0.0617,0.1009,0.1346,0.157,0.1683,0.1795,0.1795,0.1795,0.1795,0.1795,0.1795,0.1795,0.1795,0.1795,0.1795,0.1795,0.1795,0.1795,0.1795,0.1782,0.1775,0.1775,0.1746,0.173,0.173,0.1688,0.1666,0.1666,0.1666,0.1666,0.1666,0.168,0.1686,-0.5984,-0.5534,-0.5083,-0.5183,-0.4981,-0.4778,-0.4778,-0.4778,-0.463,-0.4026,-0.3875,-0.4175,-0.5179,-0.5482,-0.5784,-0.6337,-0.6187,-0.6087,-0.6384,-0.6387,-0.6387,-0.6387,-0.6387,-0.6387,-0.6387,-0.6387,-0.6425,-0.6564,-0.6573,-0.6573,-0.6573,-0.6573,-0.6478,-0.6389,-0.6387,-0.6387,-0.6387,-0.6387,-0.6387,-0.6387,-0.6134,-0.5584,-0.4784,-0.4533,-0.423,-0.3979,-0.428,-0.3776,-0.2771,-0.2771,-0.262,-0.2318,-0.1513,-0.1211,-0.111,-0.0303,0.0,0.0,0.0,0.0,0.0,0.0,0.0,0.0,0.0,0.0,0.0,0.0,0.0168,0.0393,0.0393,0.0673,0.1009,0.1009,0.1009,0.0897,0.0617,0.0505,0.0617,0.0953,0.1234,0.1514,0.1739,0.1795,0.1795,0.1795,0.1795,0.1795,0.1795,0.1795,0.1795,0.1795,0.1795,0.1795,0.1795,0.1795,0.1795,0.1795,0.1795,0.1795,0.1795,0.1774,0.1816,0.1816,0.1739,0.172,0.1704,0.1704,0.1704,0.1705,0.1712,0.1716,-0.4834,-0.3775,-0.2668,-0.2919,-0.2768,-0.2566,-0.2566,-0.2566,-0.2566,-0.2516,-0.2516,-0.2516,-0.2618,-0.302,-0.4026,-0.6084,-0.5536,-0.5236,-0.6237,-0.6387,-0.6387,-0.6387,-0.6387,-0.6387,-0.6387,-0.6387,-0.6389,-0.6395,-0.6395,-0.6395,-0.6395,-0.6395,-0.6392,-0.6387,-0.6387,-0.6387,-0.6387,-0.6387,-0.6387,-0.6387,-0.5386,-0.4834,-0.4784,-0.3728,-0.272,-0.1815,-0.2821,-0.267,-0.1663,-0.1663,-0.1059,-0.0151,-0.0101,-0.0101,-0.0101,0.0,0.0,0.0,0.0,0.0,0.0,0.0,0.0,0.0,0.0,0.0,0.0,0.0,0.0168,0.0393,0.0393,0.0841,0.129,0.129,0.129,0.1177,0.0953,0.0897,0.0953,0.1234,0.157,0.1795,0.1795,0.1795,0.1795,0.1795,0.1795,0.1795,0.1795,0.1795,0.1795,0.1795,0.1795,0.1795,0.1795,0.1795,0.1795,0.1795,0.1795,0.1795,0.1795,0.1793,0.1793,0.1793,0.1791,0.1762,0.1704,0.1704,0.1704,0.1705,0.1788,0.1802,-0.3271,-0.2717,-0.2164,-0.2265,-0.2064,-0.1864,-0.1864,-0.1864,-0.1763,-0.1209,-0.1108,-0.1158,-0.136,-0.2115,-0.2919,-0.3721,-0.3673,-0.3674,-0.4024,-0.4227,-0.458,-0.5284,-0.5386,-0.5634,-0.6337,-0.6387,-0.6387,-0.6387,-0.6387,-0.6387,-0.6387,-0.6387,-0.6387,-0.6387,-0.6387,-0.6387,-0.6387,-0.6387,-0.6034,-0.5386,-0.4985,-0.4079,-0.272,-0.2368,-0.1563,-0.0606,-0.0958,-0.0908,-0.0555,-0.0555,-0.0353,0.0,0.0,0.0,0.0,0.0,0.0,0.0,0.0,0.0,0.0,0.0,0.0,0.0,0.0,0.0,0.0054,0.0222,0.0505,0.0785,0.0953,0.129,0.157,0.1346,0.1177,0.1065,0.1121,0.1177,0.1177,0.129,0.157,0.1795,0.1795,0.1795,0.1795,0.1795,0.1795,0.1795,0.1795,0.1795,0.1795,0.1795,0.1795,0.1795,0.1795,0.1795,0.1795,0.1795,0.1795,0.1795,0.1795,0.1795,0.1795,0.1795,0.1795,0.1784,0.1763,0.1763,0.2146,0.2914,0.2932,0.3383,-0.2115,-0.141,-0.0806,-0.0907,-0.0706,-0.0504,-0.0504,-0.0504,-0.0353,0.0151,0.0252,0.0202,0.005,-0.0554,-0.136,-0.2266,-0.2266,-0.2266,-0.2618,-0.282,-0.3222,-0.4028,-0.4431,-0.4983,-0.5787,-0.6187,-0.6387,-0.6387,-0.6387,-0.6387,-0.6387,-0.6387,-0.6387,-0.6387,-0.6387,-0.6387,-0.6387,-0.6034,-0.5484,-0.4784,-0.4079,-0.2972,-0.1563,-0.121,-0.0656,0.0,0.0,0.0,0.0,0.0,0.0,0.0,0.0,0.0,0.0,0.0,0.0,0.0,0.0,0.0,0.0,0.0,0.0,0.0,0.0106,0.016,0.0215,0.05,0.0785,0.1065,0.1234,0.157,0.1739,0.1514,0.1346,0.1234,0.1402,0.1402,0.1346,0.1458,0.1627,0.1795,0.1795,0.1795,0.1795,0.1795,0.1795,0.1795,0.1795,0.1795,0.1795,0.1795,0.1795,0.1795,0.1795,0.1795,0.1795,0.1795,0.1795,0.1795,0.1795,0.1795,0.1795,0.1795,0.2186,0.2409,0.2409,0.2409,0.3023,0.4193,0.4193,0.486,0.0,0.0,0.0,0.1263,0.1415,0.1617,0.1617,0.1617,0.1617,0.1617,0.1617,0.1617,0.1617,0.1617,0.0757,-0.1863,-0.1411,-0.1108,-0.2165,-0.2316,-0.2416,-0.2718,-0.3674,-0.4429,-0.4734,-0.5734,-0.6387,-0.6387,-0.6387,-0.6387,-0.6387,-0.6387,-0.6387,-0.6337,-0.6337,-0.6337,-0.6287,-0.5286,-0.4734,-0.4684,-0.262,-0.1563,-0.1513,-0.0454,0.0,0.0,0.0,0.0,0.0,0.0,0.0,0.0,0.0,0.0,0.0,0.0,0.0,0.0,0.0,0.0,0.0,0.0,0.0,0.0051,0.0316,0.0427,0.0483,0.0833,0.1121,0.129,0.129,0.157,0.1795,0.1795,0.1795,0.1795,0.1795,0.157,0.1402,0.1739,0.1795,0.1795,0.1795,0.1795,0.1795,0.1795,0.1795,0.1795,0.1795,0.1795,0.1795,0.1795,0.1795,0.1795,0.1795,0.1795,0.1795,0.1795,0.1795,0.1795,0.1795,0.1795,0.1795,0.1851,0.3024,0.3636,0.3692,0.3692,0.4249,0.5472,0.5472,0.6089,0.0404,0.0,0.0,0.0,0.0,0.0,0.1617,0.1617,0.1617,0.1617,0.1617,0.1617,0.1617,0.1617,0.1364,0.0605,0.0555,0.0555,0.0252,0.005,-0.0403,-0.126,-0.1763,-0.2719,-0.4329,-0.4933,-0.5584,-0.6337,-0.6387,-0.6387,-0.6387,-0.6387,-0.6034,-0.5286,-0.5233,-0.4883,-0.4078,-0.3776,-0.3274,-0.2469,-0.1865,-0.1211,-0.0454,-0.0151,0.0,0.0,0.0,0.0,0.0,0.0,0.0,0.0,0.0,0.0,0.0,0.0,0.0,0.0,0.0,0.0,0.0051,0.0202,0.0303,0.0355,0.0623,0.0739,0.0804,0.1095,0.1222,0.1346,0.1627,0.1739,0.1795,0.1795,0.1795,0.1795,0.1795,0.1739,0.1683,0.1795,0.1795,0.1795,0.1795,0.1795,0.1795,0.1795,0.1795,0.1795,0.1795,0.1795,0.1795,0.1795,0.1795,0.1795,0.1795,0.1795,0.1795,0.1795,0.1795,0.1795,0.1795,0.1795,0.2186,0.3079,0.3413,0.4418,0.6146,0.5308,0.5475,0.6649,0.754,0.8097,0.0757,0.1314,0.1617,0.1617,0.0,0.0,0.1617,0.1617,0.1617,0.1617,0.1617,0.1617,0.1617,0.1617,0.1617,0.1617,0.1465,0.1364,0.1364,0.1212,0.0858,0.0101,-0.0504,-0.1461,-0.292,-0.3626,-0.4279,-0.5031,-0.5081,-0.5081,-0.5081,-0.5081,-0.478,-0.413,-0.413,-0.3827,-0.3224,-0.2771,-0.2217,-0.1613,-0.116,-0.0606,0.0,0.0,0.0,0.0,0.0,0.0,0.0,0.0,0.0,0.0,0.0,0.0,0.0,0.0,0.0,0.0,0.0,0.0051,0.0202,0.0354,0.0455,0.0608,0.093,0.1046,0.1114,0.1412,0.1495,0.157,0.1739,0.1795,0.1795,0.1795,0.1795,0.1795,0.1795,0.1795,0.1795,0.1795,0.1795,0.1795,0.1795,0.1795,0.1795,0.1795,0.1795,0.1795,0.1795,0.1795,0.1795,0.1795,0.1795,0.1795,0.1795,0.2242,0.2577,0.2577,0.3023,0.3301,0.3301,0.3301,0.3636,0.436,0.4806,0.598,0.7823,0.6702,0.6702,0.7875,0.8549,0.8885,0.0252,0.1212,0.1617,0.1617,0.1617,0.0,0.1617,0.1617,0.1617,0.1617,0.1617,0.1617,0.1617,0.1617,0.1617,0.1617,0.1617,0.1617,0.1617,0.1617,0.1516,0.1263,0.0353,-0.0454,-0.1058,-0.2015,-0.2719,-0.3123,-0.3173,-0.3224,-0.3224,-0.3224,-0.3123,-0.3022,-0.3022,-0.2972,-0.2821,-0.1915,-0.1412,-0.1412,-0.0454,0.0,0.0,0.0,0.0,0.0,0.0,0.0,0.0,0.0,0.0,0.0,0.0,0.0,0.0,0.0,0.0,0.0051,0.0051,0.0202,0.0455,0.0455,0.0657,0.0912,0.1236,0.1348,0.1413,0.1733,0.1824,0.1791,0.1794,0.1795,0.1795,0.1795,0.1795,0.1795,0.1795,0.1795,0.1795,0.1795,0.1795,0.1795,0.1795,0.1795,0.1795,0.1795,0.1795,0.1795,0.1795,0.1795,0.1795,0.1795,0.1795,0.1851,0.1963,0.2967,0.3636,0.3804,0.4804,0.5417,0.5417,0.5417,0.5472,0.5584,0.6705,0.7823,0.8885,0.7823,0.7878,0.8885,0.8885,0.8885,0.0503,0.1212,0.1617,0.1617,0.1617,0.0,0.1617,0.1617,0.1617,0.1617,0.1617,0.1617,0.1617,0.1617,0.1617,0.1617,0.1617,0.1617,0.1617,0.1617,0.1566,0.1516,0.1162,0.0505,-0.0454,-0.0957,-0.1662,-0.277,-0.3073,-0.3224,-0.3224,-0.3224,-0.2821,-0.1915,-0.1915,-0.1513,-0.0656,-0.0404,-0.0303,-0.0303,-0.0101,0.0,0.0,0.0,0.0,0.0,0.0,0.0,0.0,0.0,0.0,0.0,0.0,0.0,0.0,0.0,0.0152,0.0303,0.0303,0.0505,0.0758,0.096,0.1061,0.1163,0.1471,0.1591,0.1622,0.1788,0.1809,0.1819,0.1789,0.1795,0.1795,0.1795,0.1795,0.1795,0.1795,0.1795,0.1795,0.1795,0.1795,0.1795,0.1795,0.1795,0.1795,0.1795,0.1795,0.1795,0.1795,0.1795,0.1795,0.1795,0.1795,0.2186,0.3191,0.3469,0.4026,0.4972,0.525,0.5417,0.5417,0.5417,0.5808,0.676,0.7934,0.866,0.8885,0.866,0.866,0.8885,0.8885,0.8885,0.0347,0.1103,0.1415,0.1566,0.1617,0.0,0.0,0.1617,0.1617,0.1617,0.1617,0.1617,0.1617,0.1617,0.1617,0.1617,0.1617,0.1617,0.1617,0.1617,0.1617,0.1617,0.1465,0.1111,0.0454,0.0252,-0.0151,-0.0958,-0.1361,-0.1563,-0.1412,-0.1513,-0.1361,-0.0807,-0.0807,-0.0555,0.0,0.0,0.0,0.0,0.0,0.0,0.0,0.0,0.0,0.0,0.0,0.0,0.0,0.0152,0.0202,0.0202,0.0202,0.0303,0.0404,0.0404,0.0505,0.0606,0.0606,0.0758,0.101,0.1162,0.1313,0.1415,0.1566,0.1638,0.1721,0.1751,0.1781,0.1808,0.1823,0.1783,0.1795,0.1795,0.1795,0.1795,0.1795,0.1795,0.1795,0.1795,0.1795,0.1795,0.1795,0.1795,0.1795,0.1795,0.1795,0.1795,0.1795,0.1795,0.2018,0.2633,0.2688,0.3191,0.4414,0.5029,0.5588,0.62,0.6813,0.7146,0.7146,0.7146,0.7426,0.7989,0.8602,0.8885,0.8885,0.8885,0.8885,0.8885,0.8885,0.8885,-0.0049,0.0839,0.125,0.1556,0.1608,0.1609,0.0,0.0,0.0,0.1617,0.1617,0.1617,0.1617,0.1617,0.1615,0.1609,0.1613,0.1615,0.1609,0.1613,0.1617,0.1617,0.1617,0.1516,0.1313,0.1212,0.1111,0.0909,0.0404,0.0202,0.0404,0.0202,0.0051,0.0,0.0,0.0,0.0,0.0,0.0,0.0,0.0,0.0,0.0,0.0,0.0051,0.0101,0.0101,0.0101,0.0152,0.0404,0.0505,0.0556,0.0505,0.0606,0.0808,0.0808,0.0808,0.0859,0.0859,0.1061,0.1263,0.1263,0.1415,0.1617,0.1617,0.1634,0.1706,0.1712,0.1749,0.179,0.1802,0.1823,0.1788,0.1793,0.1795,0.1795,0.1795,0.1795,0.1795,0.1795,0.1795,0.1795,0.1795,0.1795,0.1795,0.1795,0.1795,0.1795,0.1795,0.2019,0.2521,0.3469,0.3804,0.4416,0.5641,0.6591,0.721,0.7432,0.838,0.8885,0.8885,0.8885,0.8885,0.8885,0.8885,0.8885,0.8885,0.8885,0.8885,0.8885,0.8885,0.8885,-0.0902,0.0335,0.1253,0.1521,0.1577,0.1583,0.1611,0.0,0.1617,0.1617,0.0,0.1617,0.1617,0.0,0.0,0.1581,0.1599,0.1607,0.1581,0.16,0.1617,0.1617,0.1617,0.1566,0.1566,0.1364,0.1162,0.1162,0.0859,0.0606,0.0404,0.0354,0.0253,0.0,0.0,0.0,0.0,0.0,0.0,0.0,0.0,0.0,0.0,0.0,0.0152,0.0354,0.0354,0.0505,0.0707,0.0758,0.0909,0.1061,0.0859,0.0758,0.0808,0.0808,0.096,0.1162,0.1162,0.1314,0.1566,0.1566,0.1566,0.1617,0.1617,0.162,0.1628,0.1706,0.1719,0.1737,0.179,0.1807,0.1816,0.1789,0.1795,0.1795,0.1795,0.1795,0.1795,0.1795,0.1795,0.1795,0.1795,0.1795,0.1795,0.1795,0.1795,0.1795,0.1795,0.2744,0.3469,0.358,0.4582,0.5641,0.6816,0.7041,0.7543,0.8605,0.8826,0.8885,0.8885,0.8885,0.8885,0.8885,0.8885,0.8885,0.8885,0.8885,0.8885,0.8885,0.8885,0.8885,-0.2049,-0.1226,-0.0525,0.0289,0.0627,0.0873,0.1484,0.1591,0.1596,0.1613,0.0,0.0,0.0,0.0,0.0,0.0,0.1609,0.1612,0.16,0.1609,0.1617,0.1617,0.1617,0.1617,0.1617,0.1364,0.1263,0.1415,0.1061,0.0758,0.0657,0.0505,0.0253,0.0,0.0,0.0,0.0,0.0,0.0,0.0,0.0,0.0101,0.0253,0.0253,0.0354,0.0657,0.0657,0.0707,0.0808,0.096,0.1111,0.1212,0.1263,0.1263,0.1263,0.1263,0.1314,0.1415,0.1415,0.1516,0.1617,0.1617,0.1617,0.1617,0.1617,0.1617,0.162,0.1633,0.1649,0.172,0.1745,0.1778,0.1807,0.1821,0.1782,0.1795,0.1795,0.1795,0.1795,0.1795,0.1795,0.1795,0.1795,0.1795,0.1795,0.1795,0.2409,0.2856,0.2856,0.3914,0.4918,0.5532,0.6091,0.6871,0.8045,0.8156,0.838,0.8881,0.8885,0.8885,0.8885,0.8885,0.8885,0.8885,0.8885,0.8885,0.8885,0.8885,0.8885,0.8885,0.8885,0.8885,-0.3153,-0.2542,-0.1968,-0.0942,-0.033,0.019,0.1018,0.1364,0.1568,0.1598,0.1605,0.0,0.0,0.0,0.1614,0.1606,0.0,0.1614,0.1606,0.1611,0.1617,0.1617,0.1617,0.1617,0.1617,0.1415,0.1415,0.1566,0.1263,0.101,0.0909,0.0707,0.0455,0.0101,0.0101,0.0051,0.0,0.0,0.0,0.0,0.0051,0.0202,0.0404,0.0455,0.0657,0.0909,0.0909,0.096,0.101,0.1212,0.1314,0.1314,0.1516,0.1617,0.1617,0.1617,0.1617,0.1617,0.1617,0.1617,0.1617,0.1617,0.1617,0.1617,0.1617,0.1617,0.1617,0.1617,0.1633,0.1652,0.1712,0.1747,0.1784,0.18,0.1821,0.1785,0.1793,0.1795,0.1907,0.2242,0.2298,0.2409,0.2744,0.2521,0.2298,0.2298,0.3301,0.4081,0.4081,0.5139,0.62,0.6985,0.7376,0.7934,0.8826,0.8885,0.8885,0.8885,0.8885,0.8885,0.8885,0.8885,0.8885,0.8885,0.8885,0.8885,0.8885,0.8885,0.8885,0.8885,0.8885,0.8885,-0.3935,-0.3175,-0.234,-0.1793,-0.097,-0.0232,0.0095,0.0859,0.1536,0.1566,0.1622,0.1582,0.1611,0.1617,0.1607,0.1578,0.1598,0.0,0.0,0.1598,0.1617,0.1617,0.1617,0.1617,0.1617,0.1617,0.1566,0.1617,0.1566,0.1465,0.1212,0.1162,0.0909,0.0404,0.0404,0.0253,0.0,0.0,0.0,0.0,0.0253,0.0404,0.0404,0.0657,0.0909,0.1162,0.1162,0.1314,0.1566,0.1566,0.1566,0.1566,0.1617,0.1617,0.1617,0.1617,0.1617,0.1617,0.1617,0.1617,0.1617,0.1617,0.1617,0.1617,0.1617,0.1617,0.1617,0.1617,0.1618,0.1625,0.1706,0.1716,0.1732,0.179,0.1805,0.1814,0.1789,0.1795,0.213,0.3301,0.3525,0.3916,0.5083,0.4305,0.3525,0.3525,0.4582,0.5361,0.5361,0.6313,0.7041,0.7096,0.8156,0.8881,0.8885,0.8885,0.8885,0.8885,0.8885,0.8885,0.8885,0.8885,0.8885,0.8885,0.8885,0.8885,0.8885,0.8885,0.8885,0.8885,0.8885,0.8885,-0.5102,-0.4741,-0.421,-0.3381,-0.2664,-0.1999,-0.1254,-0.028,0.0517,0.0575,0.1108,0.1551,0.1581,0.1587,0.159,0.16,0.161,0.1613,0.0,0.161,0.1617,0.1617,0.1617,0.1617,0.1617,0.1617,0.1617,0.1617,0.1617,0.1465,0.1212,0.1212,0.1061,0.0657,0.0657,0.0606,0.0505,0.0505,0.0505,0.0556,0.0606,0.0758,0.0909,0.101,0.1212,0.1465,0.1465,0.1516,0.1617,0.1617,0.1617,0.1617,0.1617,0.1617,0.1617,0.1617,0.1617,0.1617,0.1617,0.1617,0.1617,0.1617,0.1617,0.1617,0.1617,0.1617,0.1617,0.1617,0.1617,0.162,0.1629,0.1647,0.1724,0.171,0.1789,0.1813,0.1789,0.2409,0.3135,0.3525,0.4249,0.4916,0.5306,0.5697,0.5644,0.4916,0.5753,0.6536,0.6536,0.7543,0.8269,0.8269,0.866,0.8885,0.8885,0.8885,0.8885,0.8885,0.8885,0.8885,0.8885,0.8885,0.8885,0.8885,0.8885,0.8885,0.8885,0.8885,0.8885,0.8885,0.8885,0.8885,-0.5688,-0.5599,-0.5327,-0.4603,-0.3888,-0.3141,-0.2412,-0.1324,-0.0506,-0.0516,0.0,0.0474,0.0435,0.0781,0.1084,0.1047,0.1357,0.1617,0.0,0.1617,0.1617,0.1617,0.1617,0.1617,0.1617,0.1617,0.1617,0.1617,0.1617,0.1516,0.1364,0.1364,0.1212,0.096,0.096,0.0909,0.0808,0.0808,0.0808,0.0808,0.0909,0.101,0.1212,0.1313,0.1415,0.1617,0.1617,0.1617,0.1617,0.1617,0.1617,0.1617,0.1617,0.1617,0.1617,0.1617,0.1617,0.1617,0.1617,0.1617,0.1617,0.1617,0.1617,0.1617,0.1617,0.1617,0.1617,0.1617,0.1617,0.1617,0.1617,0.1632,0.1759,0.2224,0.2362,0.2507,0.3009,0.3692,0.436,0.4752,0.5475,0.6144,0.6589,0.726,0.7318,0.62,0.6982,0.7765,0.7765,0.8436,0.8885,0.8885,0.8885,0.8885,0.8885,0.8885,0.8885,0.8885,0.8885,0.8885,0.8885,0.8885,0.8885,0.8885,0.8885,0.8885,0.8885,0.8885,0.8885,0.8885,0.8885,0.8885]},{"header":{"parameterUnit":"m.s-1","parameterCategory":1,"la1":30.6,"la2":29.2853,"lo1":-89.7004,"lo2":-87.6739,"dy":0.0162,"dx":0.0183,"nx":112,"ny":82,"refTime":"2023-06-02T06:00:00:Z","depth":0,"parameterNumber":3,"parameterNumberName":"V-component_of_WINDS"},"data":[0.0,0.0,0.0,0.0,0.0,0.0,0.0,0.0,0.0,0.0,0.0,0.0,0.0,0.0,0.0,0.0,0.0,0.0,0.0,0.0,0.0,0.0,0.0,0.0,0.0,0.0,0.0,0.0,0.0,0.0,0.0,0.0,0.0,0.0,0.0,0.0,0.0,0.0,0.0,0.0,0.0,0.0,0.0,0.0,0.0,0.0,0.0,0.0,0.0,0.0,0.0,0.0,0.0,0.0,0.0,0.0,0.0,0.0,0.0,0.0,0.0,0.0,0.0,0.0,0.0,0.0,0.0,0.0,0.0,0.0,0.0,0.0,0.0,0.0,0.0,0.0,0.0,0.0,0.0,0.0,0.0,0.0,0.0,0.0,0.0,0.0,0.0,0.0,0.0,0.0,2.7941,2.7369,2.7436,2.7469,2.7302,2.7436,2.7469,2.7335,0.0,0.0,0.0,0.0,0.0,0.0,0.0,0.0,0.0,0.0,0.0,0.0,0.0,0.0,0.0,0.0,0.0,0.0,0.0,0.0,0.0,0.0,0.0,0.0,0.0,0.0,0.0,0.0,0.0,0.0,0.0,0.0,0.0,0.0,0.0,0.0,0.0,0.0,0.0,0.0,0.0,0.0,0.0,0.0,0.0,0.0,0.0,0.0,0.0,0.0,0.0,0.0,0.0,0.0,0.0,0.0,0.0,0.0,0.0,0.0,0.0,0.0,0.0,0.0,0.0,0.0,0.0,0.0,0.0,0.0,0.0,0.0,0.0,0.0,0.0,0.0,0.0,0.0,0.0,0.0,0.0,0.0,0.0,0.0,0.0,0.0,0.0,0.0,0.0,0.0,0.0,0.0,0.0,0.0,0.0,0.0,0.0,0.0,0.0,0.0,0.0,0.0,0.0,0.0,2.7403,2.7302,2.7436,2.7469,2.7302,2.7436,2.749,2.7469,0.0,0.0,0.0,0.0,0.0,0.0,0.0,0.0,0.0,0.0,0.0,0.0,0.0,0.0,0.0,0.0,0.0,0.0,0.0,0.0,0.0,0.0,0.0,0.0,0.0,0.0,0.0,0.0,0.0,0.0,0.0,0.0,0.0,0.0,0.0,0.0,0.0,0.0,0.0,0.0,0.0,0.0,0.0,0.0,0.0,0.0,0.0,0.0,0.0,0.0,0.0,0.0,0.0,0.0,0.0,0.0,0.0,0.0,0.0,0.0,0.0,0.0,0.0,0.0,0.0,0.0,0.0,0.0,0.0,0.0,0.0,0.0,0.0,0.0,0.0,0.0,0.0,0.0,0.0,0.0,0.0,0.0,0.0,0.0,0.0,0.0,0.0,0.0,0.0,0.0,0.0,0.0,0.0,0.0,0.0,0.0,0.0,0.0,0.0,0.0,0.0,0.0,0.0,2.7423,2.7335,2.7403,2.7469,2.7503,2.7403,2.7469,2.749,2.749,2.7436,0.0,0.0,0.0,0.0,0.0,0.0,0.0,0.0,0.0,0.0,0.0,0.0,0.0,0.0,0.0,0.0,0.0,0.0,0.0,0.0,0.0,0.0,0.0,0.0,0.0,0.0,0.0,0.0,0.0,0.0,0.0,0.0,0.0,0.0,0.0,0.0,0.0,0.0,0.0,0.0,0.0,0.0,0.0,0.0,0.0,0.0,0.0,0.0,0.0,0.0,0.0,0.0,0.0,0.0,0.0,0.0,0.0,0.0,0.0,0.0,0.0,0.0,0.0,0.0,0.0,0.0,0.0,0.0,0.0,0.0,0.0,0.0,0.0,0.0,0.0,0.0,0.0,0.0,0.0,0.0,0.0,0.0,0.0,0.0,0.0,0.0,0.0,0.0,0.0,0.0,0.0,0.0,0.0,0.0,0.0,0.0,0.0,0.0,0.0,0.0,0.0,0.0,2.7656,2.7403,2.749,2.749,2.749,2.749,2.749,2.749,2.749,2.749,0.0,0.0,0.0,0.0,0.0,0.0,0.0,0.0,0.0,0.0,0.0,0.0,0.0,0.0,0.0,0.0,0.0,0.0,0.0,0.0,0.0,0.0,0.0,0.0,0.0,0.0,0.0,0.0,0.0,0.0,0.0,0.0,0.0,0.0,0.0,0.0,0.0,0.0,0.0,0.0,0.0,0.0,0.0,0.0,0.0,0.0,0.0,0.0,0.0,0.0,0.0,0.0,0.0,0.0,0.0,0.0,0.0,0.0,0.0,0.0,0.0,0.0,0.0,0.0,0.0,0.0,0.0,0.0,0.0,0.0,0.0,0.0,0.0,0.0,0.0,0.0,0.0,0.0,0.0,0.0,0.0,0.0,0.0,0.0,0.0,0.0,0.0,0.0,0.0,0.0,0.0,0.0,0.0,0.0,0.0,0.0,0.0,0.0,0.0,0.0,0.0,0.0,2.7436,2.749,2.749,2.749,2.749,2.749,2.749,2.749,2.749,2.749,0.0,0.0,0.0,0.0,0.0,0.0,0.0,0.0,0.0,0.0,0.0,0.0,0.0,0.0,0.0,0.0,0.0,0.0,0.0,0.0,0.0,0.0,0.0,0.0,0.0,0.0,0.0,0.0,0.0,0.0,0.0,0.0,0.0,0.0,0.0,0.0,0.0,0.0,0.0,0.0,0.0,0.0,0.0,0.0,0.0,0.0,0.0,0.0,0.0,0.0,0.0,0.0,0.0,0.0,0.0,0.0,0.0,0.0,0.0,0.0,0.0,0.0,0.0,0.0,0.0,0.0,0.0,0.0,0.0,0.0,0.0,0.0,0.0,0.0,0.0,0.0,0.0,0.0,0.0,0.0,0.0,0.0,0.0,0.0,0.0,0.0,0.0,0.0,0.0,0.0,0.0,0.0,0.0,0.0,0.0,0.0,0.0,0.0,0.0,0.0,0.0,0.0,2.7723,2.7875,2.7523,2.749,2.749,2.749,2.749,2.749,2.749,0.0,0.0,0.0,0.0,0.0,0.0,0.0,0.0,0.0,0.0,0.0,0.0,0.0,0.0,0.0,0.0,0.0,0.0,0.0,0.0,0.0,0.0,0.0,0.0,0.0,0.0,0.0,0.0,0.0,0.0,0.0,0.0,0.0,0.0,0.0,0.0,0.0,0.0,0.0,0.0,0.0,0.0,0.0,0.0,0.0,0.0,0.0,0.0,0.0,0.0,0.0,0.0,0.0,0.0,0.0,0.0,0.0,0.0,0.0,0.0,0.0,0.0,0.0,0.0,0.0,0.0,0.0,0.0,0.0,0.0,0.0,0.0,0.0,0.0,0.0,0.0,0.0,0.0,0.0,0.0,0.0,0.0,0.0,0.0,0.0,0.0,0.0,0.0,0.0,0.0,0.0,0.0,0.0,0.0,0.0,0.0,0.0,0.0,0.0,0.0,0.0,0.0,2.7743,2.8072,2.8287,2.8143,2.7743,2.759,2.7809,2.7809,2.7723,2.749,0.0,0.0,0.0,0.0,0.0,0.0,0.0,0.0,0.0,0.0,0.0,0.0,0.0,0.0,0.0,0.0,0.0,0.0,0.0,0.0,0.0,0.0,0.0,0.0,0.0,0.0,0.0,0.0,0.0,0.0,0.0,0.0,0.0,0.0,0.0,0.0,0.0,0.0,0.0,0.0,0.0,0.0,0.0,0.0,0.0,0.0,0.0,0.0,0.0,0.0,0.0,0.0,0.0,0.0,0.0,0.0,0.0,0.0,0.0,0.0,0.0,0.0,0.0,0.0,0.0,0.0,0.0,0.0,0.0,0.0,0.0,0.0,0.0,0.0,0.0,0.0,0.0,0.0,0.0,0.0,0.0,0.0,0.0,0.0,0.0,0.0,0.0,0.0,0.0,0.0,0.0,0.0,0.0,0.0,0.0,0.0,0.0,0.0,0.0,0.0,0.0,0.0,2.8578,2.8514,2.8776,2.9411,2.8306,2.7776,2.8449,2.8514,2.8222,0.0,0.0,0.0,0.0,0.0,0.0,0.0,0.0,0.0,0.0,0.0,0.0,0.0,0.0,0.0,0.0,0.0,0.0,0.0,0.0,0.0,0.0,0.0,0.0,0.0,0.0,0.0,0.0,0.0,0.0,0.0,0.0,0.0,0.0,0.0,0.0,0.0,0.0,0.0,0.0,0.0,0.0,0.0,0.0,0.0,0.0,0.0,0.0,0.0,0.0,0.0,0.0,0.0,0.0,0.0,0.0,0.0,0.0,0.0,0.0,0.0,0.0,0.0,0.0,0.0,0.0,0.0,0.0,0.0,0.0,0.0,0.0,0.0,0.0,0.0,0.0,0.0,0.0,0.0,0.0,0.0,0.0,0.0,0.0,0.0,0.0,0.0,0.0,0.0,0.0,0.0,0.0,0.0,0.0,0.0,0.0,0.0,0.0,0.0,0.0,0.0,0.0,0.0,2.93,2.9611,2.9797,2.9535,2.9142,2.8985,2.9205,2.9205,2.9111,2.8921,0.0,0.0,0.0,0.0,0.0,0.0,0.0,0.0,0.0,0.0,0.0,0.0,0.0,0.0,0.0,0.0,0.0,0.0,0.0,0.0,0.0,0.0,0.0,0.0,0.0,0.0,0.0,0.0,0.0,0.0,0.0,0.0,0.0,0.0,0.0,0.0,0.0,0.0,0.0,0.0,0.0,0.0,0.0,0.0,0.0,0.0,0.0,0.0,0.0,0.0,0.0,0.0,0.0,0.0,0.0,0.0,0.0,0.0,0.0,0.0,0.0,0.0,0.0,0.0,0.0,0.0,0.0,0.0,0.0,0.0,0.0,0.0,0.0,0.0,0.0,0.0,0.0,0.0,0.0,0.0,0.0,0.0,0.0,0.0,0.0,0.0,0.0,0.0,0.0,0.0,0.0,0.0,0.0,0.0,0.0,0.0,0.0,0.0,0.0,0.0,0.0,0.0,2.9981,3.0238,3.045,3.0299,2.9827,2.9597,2.9889,2.9889,2.9797,2.9504,0.0,0.0,0.0,0.0,0.0,0.0,0.0,0.0,0.0,0.0,0.0,0.0,0.0,0.0,0.0,0.0,0.0,0.0,0.0,0.0,0.0,0.0,0.0,0.0,0.0,0.0,0.0,0.0,0.0,0.0,0.0,0.0,0.0,0.0,0.0,0.0,0.0,0.0,0.0,0.0,0.0,0.0,0.0,0.0,0.0,0.0,0.0,0.0,0.0,0.0,0.0,0.0,0.0,0.0,0.0,0.0,0.0,0.0,0.0,0.0,0.0,0.0,0.0,0.0,0.0,0.0,0.0,0.0,0.0,0.0,0.0,0.0,0.0,0.0,0.0,0.0,0.0,0.0,0.0,0.0,0.0,0.0,0.0,0.0,0.0,0.0,0.0,0.0,0.0,0.0,0.0,0.0,0.0,0.0,0.0,0.0,0.0,0.0,0.0,0.0,0.0,0.0,3.0673,3.0584,3.0837,3.1438,3.0419,2.9919,3.0554,3.0584,3.0329,2.9721,0.0,0.0,0.0,0.0,0.0,0.0,0.0,0.0,0.0,0.0,0.0,0.0,0.0,0.0,0.0,0.0,0.0,0.0,0.0,0.0,0.0,0.0,0.0,0.0,0.0,0.0,0.0,0.0,0.0,0.0,0.0,0.0,0.0,0.0,0.0,0.0,0.0,0.0,0.0,0.0,0.0,0.0,0.0,0.0,0.0,0.0,0.0,0.0,0.0,0.0,0.0,0.0,0.0,0.0,0.0,0.0,0.0,0.0,0.0,0.0,3.3045,3.2803,0.0,0.0,0.0,0.0,0.0,0.0,0.0,0.0,0.0,0.0,0.0,0.0,0.0,0.0,0.0,0.0,0.0,0.0,0.0,0.0,0.0,0.0,0.0,0.0,0.0,0.0,0.0,0.0,0.0,0.0,0.0,0.0,0.0,0.0,0.0,0.0,0.0,0.0,0.0,0.0,3.1307,3.1278,3.1351,3.1467,3.1248,3.1117,3.1278,3.1278,3.1219,3.1087,3.1219,0.0,0.0,0.0,0.0,0.0,0.0,0.0,0.0,0.0,0.0,0.0,0.0,0.0,0.0,0.0,0.0,0.0,0.0,0.0,0.0,0.0,0.0,0.0,0.0,0.0,0.0,0.0,0.0,0.0,0.0,0.0,0.0,0.0,0.0,0.0,0.0,0.0,0.0,0.0,0.0,0.0,0.0,0.0,0.0,0.0,0.0,0.0,0.0,0.0,0.0,0.0,0.0,0.0,0.0,0.0,0.0,0.0,0.0,0.0,3.4295,3.3831,0.0,0.0,0.0,0.0,0.0,0.0,0.0,0.0,0.0,0.0,0.0,0.0,0.0,0.0,0.0,0.0,0.0,0.0,0.0,0.0,0.0,0.0,0.0,0.0,0.0,0.0,0.0,0.0,0.0,0.0,0.0,0.0,0.0,0.0,0.0,0.0,0.0,0.0,0.0,0.0,3.1511,3.1511,3.1511,3.1511,3.1511,3.1511,3.1511,3.1511,3.1511,3.1511,3.1768,0.0,0.0,0.0,0.0,0.0,0.0,0.0,0.0,0.0,0.0,0.0,0.0,0.0,0.0,0.0,0.0,0.0,0.0,0.0,0.0,0.0,0.0,0.0,0.0,0.0,0.0,0.0,0.0,0.0,0.0,0.0,0.0,0.0,0.0,0.0,0.0,0.0,0.0,0.0,0.0,0.0,0.0,0.0,0.0,0.0,0.0,0.0,0.0,0.0,0.0,0.0,0.0,0.0,3.6562,3.6813,3.6843,3.6843,3.6873,3.6843,3.5802,3.5299,3.5219,3.5118,0.0,0.0,0.0,0.0,0.0,0.0,0.0,0.0,0.0,0.0,0.0,0.0,0.0,0.0,0.0,0.0,0.0,0.0,0.0,0.0,0.0,0.0,3.3853,3.3245,3.3556,3.3878,3.3433,0.0,0.0,0.0,0.0,0.0,0.0,0.0,0.0,0.0,0.0,0.0,3.164,3.1553,3.1539,3.164,3.1553,3.1511,3.1511,3.1582,3.1668,3.1668,3.2203,3.2547,0.0,0.0,0.0,0.0,0.0,0.0,0.0,0.0,0.0,0.0,0.0,0.0,0.0,0.0,0.0,0.0,0.0,0.0,0.0,0.0,0.0,0.0,0.0,0.0,0.0,0.0,0.0,0.0,0.0,0.0,0.0,0.0,3.382,3.4397,0.0,0.0,0.0,0.0,0.0,0.0,0.0,0.0,0.0,0.0,0.0,0.0,0.0,3.591,3.6547,3.6656,3.6673,3.6673,3.6751,3.6873,3.7055,3.7055,3.7145,3.7294,3.7145,0.0,3.6569,3.6538,0.0,0.0,0.0,0.0,0.0,0.0,0.0,0.0,0.0,0.0,0.0,0.0,0.0,0.0,0.0,0.0,0.0,0.0,0.0,0.0,0.0,0.0,3.4723,3.4626,3.4675,3.4739,3.465,3.3783,3.3013,3.3093,3.3093,3.2906,0.0,0.0,0.0,0.0,0.0,0.0,3.2203,3.1824,3.1697,3.2231,3.1796,3.1511,3.1511,3.1994,3.2287,3.2287,3.2788,3.3093,3.3093,3.3093,0.0,0.0,0.0,0.0,0.0,0.0,0.0,0.0,0.0,0.0,0.0,0.0,0.0,0.0,0.0,0.0,0.0,0.0,0.0,0.0,0.0,0.0,0.0,0.0,0.0,0.0,0.0,0.0,0.0,3.4585,3.4701,3.4968,3.4701,3.4639,0.0,0.0,0.0,0.0,0.0,0.0,0.0,0.0,0.0,3.7112,3.7157,3.7473,3.8193,3.821,3.821,3.821,3.821,3.8238,3.8339,3.8339,3.8367,3.8467,3.8467,3.8367,3.8137,3.7308,3.6768,3.643,0.0,0.0,0.0,0.0,3.626,3.6384,3.7233,3.7528,3.7573,3.7851,0.0,0.0,0.0,0.0,0.0,0.0,0.0,3.4423,3.4423,3.465,3.4899,3.4899,3.4899,3.4899,3.4899,3.4464,3.4002,3.3748,3.3697,3.3517,3.2949,3.2841,0.0,0.0,0.0,3.2544,3.2815,3.2625,3.2544,3.2815,3.2598,3.2461,3.2461,3.2707,3.2841,3.2841,3.3387,3.3697,3.3697,3.3697,3.385,0.0,0.0,0.0,0.0,0.0,0.0,0.0,0.0,0.0,0.0,0.0,0.0,0.0,0.0,0.0,0.0,0.0,0.0,0.0,0.0,0.0,0.0,0.0,0.0,0.0,0.0,0.0,0.0,3.5924,3.5888,3.6031,3.5793,3.5781,0.0,0.0,0.0,0.0,0.0,0.0,3.7144,3.7233,3.7661,3.8379,3.8423,3.8689,3.9299,3.9299,3.9299,3.9299,3.9299,3.9299,3.9299,3.9299,3.9299,3.9299,3.9299,3.9299,3.9202,3.8112,3.7531,3.7354,3.7174,3.6978,3.6828,3.7038,3.7144,3.7263,3.8108,3.8423,3.8451,3.8816,3.8371,3.758,3.7116,0.0,0.0,0.0,0.0,3.5148,3.5148,3.5078,3.5024,3.5024,3.4954,3.4899,3.4899,3.4899,3.478,3.4374,3.43,3.4134,3.3527,3.3423,0.0,3.3209,3.3182,3.3251,3.3407,3.3303,3.3251,3.3407,3.3303,3.3182,3.3182,3.3329,3.3423,3.3423,3.3968,3.43,3.43,3.43,3.4497,3.4899,0.0,0.0,0.0,0.0,0.0,0.0,0.0,0.0,0.0,0.0,0.0,0.0,0.0,0.0,0.0,0.0,0.0,0.0,0.0,0.0,0.0,0.0,0.0,0.0,0.0,0.0,0.0,0.0,0.0,3.8526,3.8608,0.0,0.0,0.0,0.0,3.7589,3.803,3.8246,3.8023,3.8467,3.886,3.9245,3.9245,3.9272,3.9299,3.9299,3.9299,3.9299,3.9299,3.9299,3.9299,3.9299,3.9299,3.9299,3.9299,3.9299,3.9299,3.9218,3.8733,3.8051,3.7975,3.7467,3.6888,3.7719,3.8023,3.8153,3.8969,3.9245,3.9245,3.9272,3.8511,3.7399,3.6381,3.5988,0.0,0.0,3.5594,3.5842,3.5842,3.5616,3.5379,3.5379,3.5142,3.4899,3.4899,3.4899,3.4899,3.4875,3.4875,3.4691,3.4151,0.0,3.3866,3.3303,3.3182,3.3423,3.3984,3.3553,3.3423,3.3984,3.3527,3.3182,3.3182,3.3739,3.405,3.405,3.457,3.4875,3.4875,3.4875,3.4875,3.4899,3.4875,0.0,0.0,0.0,0.0,0.0,0.0,0.0,0.0,0.0,0.0,0.0,0.0,0.0,0.0,0.0,0.0,0.0,0.0,0.0,0.0,0.0,0.0,0.0,0.0,0.0,0.0,0.0,0.0,3.8539,3.8694,0.0,3.8805,3.8694,3.8667,3.8706,3.8876,3.8958,3.8887,3.904,3.9191,3.9299,3.9299,3.9299,3.9299,3.9299,3.9299,3.9299,3.9299,3.9299,3.9299,3.9299,3.9299,3.9299,3.9299,3.9299,3.9299,3.9299,3.9121,3.8871,3.8854,3.8645,3.8451,3.8761,3.8871,3.8914,3.9202,3.9458,3.962,3.9379,3.9035,3.853,3.7716,3.7449,3.741,3.7314,3.7342,3.7336,3.6818,3.657,3.6361,3.5829,3.5638,3.5549,3.5549,3.5549,3.5549,3.5549,3.5195,3.4851,3.4643,3.4618,3.4546,3.4341,3.4276,3.4366,3.4594,3.4431,3.4366,3.4594,3.4415,3.4276,3.4276,3.448,3.4618,3.4618,3.4787,3.4899,3.4899,3.4899,3.4899,3.4899,3.5247,3.5299,0.0,0.0,0.0,0.0,0.0,0.0,0.0,0.0,0.0,0.0,0.0,0.0,0.0,0.0,0.0,0.0,0.0,0.0,0.0,0.0,0.0,0.0,0.0,0.0,0.0,3.8526,3.8898,3.8572,3.8794,3.8969,3.8969,3.9077,3.9228,3.9299,3.9432,3.9432,3.9299,3.9299,3.9299,3.9299,3.9432,3.9511,3.9511,3.9609,3.967,3.967,3.967,3.967,3.967,3.967,3.967,3.967,3.967,3.967,3.967,3.967,3.967,3.9661,3.9388,3.9299,3.9325,3.9458,3.9511,3.9511,3.9635,3.9867,3.9985,3.9481,3.9391,3.9341,3.8545,3.8476,3.8617,3.8504,3.855,3.8496,3.7978,3.7752,3.7548,3.7011,3.6786,3.6715,3.6715,3.6715,3.6715,3.6715,3.5904,3.5241,3.5241,3.5241,3.5195,3.5095,3.5171,3.5148,3.4947,3.5001,3.5024,3.4923,3.4899,3.4899,3.4899,3.4899,3.4977,3.5155,3.5102,3.5195,3.5419,3.5201,3.5148,3.5339,3.5803,3.6005,3.5836,0.0,0.0,0.0,0.0,0.0,0.0,0.0,0.0,0.0,0.0,0.0,0.0,0.0,0.0,0.0,0.0,0.0,0.0,0.0,0.0,0.0,0.0,0.0,3.7939,3.8735,3.9295,3.8898,3.9148,3.9325,3.9325,3.9694,3.9746,3.9352,3.9694,3.9746,3.9352,3.9325,3.9325,3.9325,3.9703,3.9926,3.9926,4.0237,4.04,4.04,4.04,4.04,4.04,4.04,4.04,4.04,4.04,4.04,4.04,4.04,4.04,4.0343,3.9609,3.9325,3.9379,3.9772,3.9926,3.9961,4.0294,4.0424,4.0305,3.9593,3.9646,3.9766,3.8723,3.8859,3.9291,3.8995,3.9124,3.9354,3.9336,3.9107,3.8855,3.8838,3.8572,3.834,3.834,3.834,3.834,3.834,3.7084,3.5997,3.5975,3.5975,3.5866,3.5503,3.5739,0.0,3.5024,3.5218,3.5287,3.4954,3.4923,3.4923,3.4906,3.4906,3.5155,3.5676,3.5566,3.5793,3.6504,3.5893,3.5773,3.6284,3.6687,3.7158,3.7777,0.0,0.0,0.0,0.0,0.0,0.0,0.0,0.0,0.0,0.0,0.0,0.0,0.0,0.0,0.0,0.0,0.0,0.0,0.0,0.0,0.0,3.8911,3.9361,3.8631,3.9462,4.0061,3.9978,4.0045,4.0095,4.0095,4.0195,4.0237,4.0095,4.0195,4.0195,4.0095,4.0095,4.0095,4.0095,4.0195,4.0245,4.0245,4.0351,4.04,4.04,4.04,4.04,4.04,4.04,4.04,4.04,4.04,4.04,4.04,4.04,4.04,4.0375,4.017,4.0095,4.0095,4.022,4.0245,4.0336,4.07,4.0843,4.0855,4.0925,4.1031,4.1081,4.0782,4.0818,4.095,4.0863,4.0907,4.0849,4.0305,4.0104,3.99,3.9301,3.9093,3.9029,3.9029,3.9029,3.9029,3.9029,3.8663,3.8217,3.7734,3.7644,3.741,3.6735,3.6717,3.6539,3.5915,3.5798,3.5688,3.5509,3.5362,3.5316,3.5464,3.5487,3.5698,3.6243,3.6778,3.7157,3.7366,3.7737,3.8181,3.8735,3.847,3.8737,0.0,0.0,0.0,0.0,0.0,0.0,0.0,0.0,0.0,0.0,0.0,0.0,0.0,0.0,0.0,0.0,0.0,0.0,0.0,0.0,0.0,0.0,3.9246,3.9624,3.9543,4.0178,4.0587,4.0424,4.04,4.04,4.04,4.0563,4.0587,4.04,4.0563,4.0587,4.04,4.04,4.04,4.04,4.0563,4.0659,4.0659,4.0825,4.0896,4.0896,4.0896,4.0896,4.0896,4.0896,4.0896,4.0896,4.0896,4.0896,4.0896,4.0896,4.0896,4.0873,0.0,0.0,0.0,0.0,4.0754,4.0937,4.1163,4.1249,4.1295,4.152,4.1604,4.1604,4.1604,4.1604,4.1604,4.1604,4.1604,4.1499,4.106,4.0955,4.0832,4.0375,4.027,4.027,4.027,4.027,4.027,4.027,4.027,0.0,3.9864,3.9281,3.8647,3.8044,3.8148,3.808,3.7425,3.7057,3.6765,3.6556,3.6126,3.6036,3.6496,3.6535,0.0,0.0,0.0,3.8418,3.8418,3.91,0.0,0.0,0.0,3.9943,4.0907,4.0535,0.0,0.0,4.0758,4.0766,0.0,0.0,0.0,0.0,0.0,0.0,0.0,0.0,0.0,0.0,0.0,0.0,0.0,0.0,0.0,0.0,3.9445,3.9691,4.0397,4.0824,4.0954,4.0587,4.0538,4.0538,4.0538,4.0866,4.0913,4.0546,4.0866,4.0913,4.0546,4.0538,0.0,0.0,0.0,4.1071,4.1071,4.1408,4.1604,4.1604,4.1604,4.1604,4.1604,4.1604,4.1604,4.1604,4.1604,4.1604,4.1604,4.1604,4.1604,4.152,4.0802,4.0538,4.0587,4.0954,4.1295,4.1604,4.1604,0.0,0.0,4.1604,4.1604,4.1604,4.1604,4.1604,4.1604,4.1604,4.1604,4.1604,4.1604,4.1604,4.1604,4.1604,4.1604,4.1604,4.1604,4.1604,4.1604,4.1626,4.1648,4.1697,4.1913,4.0787,3.9749,3.9375,3.9762,3.9884,3.9161,3.8667,3.8285,3.7965,3.7274,0.0,3.7874,3.7944,3.845,3.9711,3.97,3.9709,3.9797,4.0318,4.0432,4.0112,4.0451,4.1052,4.1942,4.1942,4.2286,4.2976,4.2046,4.1609,0.0,0.0,0.0,0.0,0.0,0.0,0.0,0.0,0.0,0.0,0.0,0.0,0.0,0.0,0.0,4.0253,4.0274,4.0327,4.0485,4.1086,4.1453,4.1386,4.1386,4.1386,4.1386,4.1431,4.1453,4.1386,4.1431,4.1453,4.1386,4.1386,4.1386,4.1386,4.1431,4.1475,4.1475,4.156,4.1604,4.1604,4.1604,0.0,4.1604,4.1604,4.1604,4.1604,4.1604,4.1604,4.1604,4.1604,4.1604,4.1582,4.1431,4.1386,4.1386,4.1453,4.152,4.1604,4.1604,4.1604,4.1604,4.1604,4.1604,4.1604,4.1604,4.1604,0.0,4.1604,4.1604,4.1604,4.1604,4.1604,4.1604,4.1604,4.1604,4.1604,4.1604,4.1604,4.1648,4.1805,4.1849,4.1934,4.2166,4.1813,4.1304,4.0788,4.0818,4.0685,4.0101,3.9808,3.9548,3.9339,3.902,3.8964,3.9301,3.9301,3.9606,4.0311,4.0906,4.1555,4.2205,4.2335,4.2467,4.2596,4.2668,4.2919,4.3306,4.3306,4.3398,4.3545,4.312,4.2941,0.0,0.0,0.0,0.0,0.0,0.0,0.0,0.0,0.0,0.0,0.0,3.9925,4.0411,0.0,4.0502,4.0502,4.0502,4.0625,4.099,4.1358,4.1604,4.1604,4.1604,4.1604,4.1604,4.1604,4.1604,4.1604,4.1604,4.1604,4.1604,4.1604,4.1604,4.1604,4.1604,4.1604,4.1604,4.1604,4.1604,4.1604,4.1604,4.1604,4.1604,4.1604,4.1604,4.1604,4.1604,4.1604,4.1604,4.1604,4.1604,4.1604,4.1604,4.1604,4.1604,4.1604,4.1604,4.1604,4.1604,4.1604,4.1604,4.1604,4.1604,4.1604,4.1604,4.1604,4.1604,4.1604,4.1604,4.1604,4.1604,4.1604,4.1604,4.1604,4.1692,4.174,4.174,4.1866,4.1995,4.2082,4.2103,4.2166,4.2409,4.2454,4.2313,4.1895,4.1939,4.1912,4.1647,4.1157,4.0811,4.0719,4.0247,4.0138,4.0646,4.106,4.1426,4.1669,4.2196,4.2687,4.3069,4.3232,4.3355,4.3494,4.3494,4.3562,4.3695,4.3695,4.3695,4.3695,4.3712,4.3646,0.0,0.0,0.0,0.0,0.0,0.0,0.0,3.9284,3.9498,4.013,4.0397,4.0502,4.0502,4.0625,4.0713,4.0713,4.0713,4.0924,4.1516,4.1604,4.1604,4.1604,4.1604,4.1604,4.1604,4.1604,4.1604,4.1604,4.1604,4.1604,4.1604,4.1604,4.1604,4.1604,4.1604,4.1604,4.1604,4.1604,4.1604,4.1604,4.1604,4.1604,4.1604,4.1604,4.1604,4.1604,4.1604,4.1604,4.1604,4.1604,4.1604,4.1604,4.1604,4.1604,4.1604,4.1604,4.1604,4.1604,4.1604,4.1604,4.1604,4.1604,4.1604,4.1626,4.1697,4.1719,4.174,4.1809,4.1831,4.1831,4.1831,4.1835,4.1856,4.1856,4.2005,4.2133,4.2133,4.2295,4.2454,4.2514,4.2514,4.2573,4.2768,4.2995,4.3014,4.2709,4.2825,4.2976,4.2976,4.2395,4.2032,4.2087,4.1505,4.1378,4.2014,4.2668,4.3069,4.3069,4.3249,4.3373,4.3373,4.3579,4.3712,4.3777,4.3777,4.3793,4.386,4.386,4.386,4.3857,4.4079,4.403,3.6806,3.7271,3.8035,3.8786,3.9059,3.9178,0.0,3.9284,3.9319,3.9427,3.9989,4.0502,4.0502,4.1025,4.1481,4.1481,4.1481,4.1516,4.1587,4.1604,4.1604,4.1604,4.1604,4.1604,4.1604,4.1604,4.1604,4.1604,4.1604,4.1604,4.1604,4.1604,4.1604,4.1604,4.1604,4.1604,4.1604,4.1604,4.1604,4.1604,4.1604,4.1604,4.1604,4.1604,4.1604,4.1604,4.1604,4.1604,4.1604,4.1604,4.1604,4.1604,4.1604,4.1604,4.1604,4.1604,4.1604,4.1604,4.1604,4.1604,4.1604,4.1604,4.1604,4.1653,4.2008,4.2133,4.2198,4.256,4.2676,4.2676,4.2676,4.2698,4.2755,4.2755,4.2867,4.2959,4.2959,4.2978,4.3051,4.3248,4.3284,4.3336,4.3545,4.3595,4.346,4.2939,4.3105,4.3249,4.3249,4.3176,4.321,4.345,4.341,4.3373,4.3465,4.3557,4.3612,4.3612,4.3629,4.3662,4.3662,4.3679,4.3809,4.4045,4.4045,4.417,4.4411,4.4411,4.4411,4.4411,4.444,4.4306,3.8149,3.8638,3.9299,4.0078,4.0123,4.0112,4.0551,4.0639,4.0639,4.0639,4.0902,4.113,4.113,4.1394,4.1604,4.1604,4.1604,4.1604,4.1604,4.1604,4.1604,4.1604,4.1604,4.1604,4.1604,4.1604,4.1604,4.1604,4.1604,4.1604,4.1604,4.1604,4.1604,4.1604,4.1604,4.1604,4.1604,4.1604,4.1604,4.1604,4.1604,4.1604,4.1604,4.1604,4.1604,4.1604,4.1604,4.174,4.1941,4.1941,4.2092,4.23,4.23,4.23,4.2239,4.1766,4.1604,4.1604,4.1604,4.1744,4.1941,4.1941,4.2113,4.234,4.2501,4.2541,4.258,4.2753,4.2829,4.2867,4.2867,4.2941,4.3014,4.3014,4.3159,4.3283,4.3283,4.3371,4.3474,4.356,4.3577,4.3594,4.3679,4.3825,4.3809,4.3425,4.346,4.3528,4.3528,4.3528,4.3579,4.3679,4.3695,4.3695,4.3695,4.3695,4.3695,4.3695,4.3841,4.3936,4.3936,4.4079,4.4218,4.4321,4.4335,4.4397,4.4501,4.4501,4.4501,4.4501,4.4501,4.444,3.9694,4.0167,4.0591,4.136,4.1273,4.1096,4.1643,4.1675,4.1604,4.1604,4.1604,4.1604,4.1604,4.1604,4.1604,4.1604,4.1604,4.1604,4.1604,4.1604,4.1604,4.1604,4.1604,4.1604,4.1604,4.1604,4.1604,4.1604,4.1604,4.1604,4.1604,4.1604,4.1604,4.1604,4.1604,4.1604,4.1604,4.1604,4.1604,4.1604,4.1604,4.1604,4.1604,4.1719,4.1831,4.192,4.192,4.2092,4.238,4.238,4.2541,4.281,4.281,4.281,4.2734,4.2154,4.192,4.192,4.192,4.2133,4.238,4.238,4.258,4.2848,4.2959,4.3014,4.3069,4.3195,4.3247,4.3281,4.3281,4.3369,4.3454,4.3454,4.3574,4.3691,4.3691,4.3825,4.3923,4.3923,4.3923,4.3923,4.3923,4.4079,4.414,4.3955,4.3923,4.3889,4.3825,4.3873,4.3923,4.3923,4.3923,4.3923,4.3923,4.3923,4.3923,4.3923,4.4109,4.4199,4.4199,4.4397,4.4501,4.4501,4.4501,4.4501,4.4501,4.4501,4.4501,4.4501,4.4501,4.4501,4.1216,4.1633,4.1814,4.2556,4.2446,4.216,4.2177,4.1878,4.1604,4.1604,4.1604,4.1604,4.1604,4.1604,4.1604,4.1604,4.1604,4.1604,4.1604,4.1604,4.1604,4.1604,4.1604,4.1604,4.1604,4.1604,4.1604,4.1604,4.1604,4.1604,4.1604,4.1604,4.1604,4.1604,4.1604,4.1604,4.1604,4.1604,4.1604,4.1604,4.1604,4.1604,4.1604,4.1987,4.2382,4.2754,4.2754,4.2772,4.2791,4.2791,4.2791,4.281,4.281,4.281,4.281,4.2772,4.2754,4.2754,4.2754,4.2772,4.2791,4.2791,4.283,4.2978,4.3368,4.3574,4.3758,4.4143,4.427,4.427,4.427,4.431,4.4368,4.4368,4.4411,4.4473,4.4473,4.4468,4.4487,4.4487,4.4487,4.4487,4.4487,4.4487,4.4487,4.4487,4.4487,4.4383,4.4106,4.4306,4.4487,4.4487,4.4487,4.4487,4.4487,4.4487,4.4487,4.4487,4.4487,4.4501,4.4501,4.4501,4.4501,4.4501,4.4501,4.4501,4.4501,4.4501,4.4501,4.4501,4.4501,4.4501,4.2152,4.2615,4.2883,4.314,4.2903,4.2599,4.2599,4.2482,4.24,4.24,4.2815,4.311,4.2829,4.2789,4.2721,4.2439,4.1955,4.1604,4.1604,4.1604,4.1604,4.1604,4.1604,4.1604,4.1604,4.1604,4.1604,4.1604,4.1604,4.1604,4.1604,4.1604,4.1604,4.1604,4.1604,4.174,4.2005,4.2005,4.2133,4.24,4.24,4.24,4.2382,4.2541,4.2676,4.281,4.281,4.2959,4.3195,4.3195,4.3371,4.3594,4.3594,4.3594,4.3594,4.3594,4.3594,4.3508,4.2996,4.2996,4.3246,4.3246,4.3523,4.3855,4.3983,4.4048,4.4128,4.427,4.4329,4.4373,4.4373,4.443,4.4473,4.4473,4.4487,4.4501,4.4501,4.4501,4.4501,4.4501,4.4501,4.4501,4.4501,4.4501,4.4501,4.4501,4.4501,4.4473,4.4383,4.444,4.4501,4.4501,4.4501,4.4501,4.4501,4.4501,4.4501,4.4501,4.4501,4.4501,4.4501,4.4501,4.4501,4.4501,4.4501,4.4501,4.4501,4.4501,4.4501,4.4501,4.4501,4.4501,4.2927,4.3421,4.361,4.361,4.33,4.2996,4.2996,4.2885,4.2882,4.3154,4.3644,4.3889,4.3477,4.3522,4.3331,4.2524,4.2053,4.1809,4.1809,4.1697,4.1653,4.1788,4.1697,4.1604,4.1604,4.174,4.1744,4.1604,4.1604,4.1653,4.1809,4.1809,4.1878,4.2008,4.2029,4.2154,4.2402,4.2402,4.2541,4.281,4.3081,4.3321,4.3488,4.3488,4.3561,4.3669,4.3358,4.3388,4.361,4.361,4.3777,4.4005,4.4005,4.4005,4.4005,4.4005,4.402,4.3989,4.3475,4.3491,4.3758,4.3772,4.4048,4.4344,4.4344,4.4358,4.4373,4.4373,4.4401,4.4444,4.4444,4.4473,4.4501,4.4501,4.4501,4.4501,4.4501,4.4501,4.4501,4.4501,4.4501,4.4501,4.4501,4.4501,4.4501,4.4501,4.4501,4.4501,4.4501,4.4501,4.4501,4.4501,4.4501,4.4501,4.4501,4.4501,4.4501,4.4501,4.4501,4.4501,4.4501,4.4501,4.4501,4.4501,4.4501,4.4501,4.4501,4.4501,4.4501,4.4501,4.4573,4.4608,4.3559,4.4005,4.4005,4.4005,4.371,4.344,4.344,4.3141,4.3084,4.3883,4.4101,4.402,4.3653,4.388,4.359,4.2035,4.2037,4.2218,4.2218,4.1899,4.1809,4.2195,4.1878,4.1653,4.1653,4.2026,4.2071,4.1697,4.1653,4.1831,4.2198,4.2218,4.242,4.2791,4.281,4.281,4.2829,4.2848,4.2884,4.2939,4.3701,4.4308,4.4798,4.4798,4.5007,4.5324,4.4488,4.4098,4.4079,4.4079,4.4042,4.4005,4.4005,4.4005,4.4005,4.4005,4.4085,4.4199,4.4199,4.4199,4.4214,4.4285,4.4358,4.4397,4.4397,4.444,4.4501,4.4501,4.4501,4.4501,4.4501,4.4501,4.4501,4.4501,4.4501,4.4501,4.4501,4.4501,4.4501,4.4501,4.4501,4.4501,4.4501,4.4501,4.4501,4.4501,4.4501,4.4501,4.4501,4.4501,4.4501,4.4501,4.4501,4.4501,4.4501,4.4501,4.4501,4.4501,4.4501,4.4501,4.4501,4.4515,4.4528,4.4528,4.4524,4.4537,4.4537,4.4537,4.4537,4.4537,4.4739,4.4812,4.3559,4.4005,4.4005,4.4005,4.3923,4.386,4.386,4.3777,4.3952,4.4783,4.5465,4.5915,4.6063,4.5716,4.5184,4.4399,4.3354,4.2657,4.2657,4.256,4.2541,4.2638,4.256,4.2501,4.2501,4.2599,4.2599,4.2501,4.2501,4.2541,4.2638,4.2657,4.2678,4.281,4.281,4.2941,4.3248,4.3542,4.4026,4.4672,4.4857,4.5351,4.6027,4.6027,4.6096,4.6178,4.5955,4.5509,4.4971,4.4971,4.4581,4.4005,4.4005,4.4005,4.4005,4.4005,4.4085,4.4199,4.4259,4.43,4.434,4.4368,4.4411,4.4468,4.4468,4.4487,4.4501,4.4501,4.4501,4.4501,4.4501,4.4501,4.4501,4.4501,4.4501,4.4501,4.4501,4.4501,4.4501,4.4501,4.4501,4.4501,4.4501,4.4501,4.4501,4.4501,4.4501,4.4501,4.4501,4.4501,4.4501,4.4501,4.4501,4.4501,4.4501,4.4501,4.4501,4.4501,4.4501,4.4501,4.4501,4.4642,4.4726,4.4726,4.4922,4.5015,4.5015,4.5015,4.5015,4.5026,4.5063,4.5096,4.3652,4.4005,4.4005,4.4005,4.4005,4.4005,4.4005,4.4005,4.4358,4.5565,4.6197,4.6488,4.6526,4.6322,4.5716,4.4373,4.354,4.3069,4.3069,4.2922,4.2866,4.3051,4.2922,4.281,4.281,4.2959,4.3069,4.3069,4.2903,4.2885,4.3051,4.3069,4.3141,4.3318,4.3336,4.344,4.366,4.3892,4.4432,4.5287,4.5658,4.6252,4.7033,4.7033,4.7033,4.7014,4.6643,4.6234,4.5788,4.5454,4.5008,4.4525,4.4219,4.4055,4.402,4.4101,4.4195,4.4259,4.4314,4.4401,4.444,4.444,4.4473,4.4501,4.4501,4.4501,4.4501,4.4501,4.4501,4.4501,4.4501,4.4501,4.4501,4.4501,4.4501,4.4501,4.4501,4.4501,4.4501,4.4501,4.4501,4.4501,4.4501,4.4501,4.4501,4.4501,4.4501,4.4537,4.4621,4.4546,4.4501,4.4501,4.4501,4.4501,4.4501,4.4501,4.4537,4.4635,4.4635,4.4681,4.4795,4.4922,4.4985,4.4985,4.5118,4.5201,4.5201,4.5201,4.5201,4.5201,4.5284,4.5323,4.3782,4.4005,4.4005,4.4005,4.4005,4.4005,4.4005,4.4005,4.4488,4.6141,4.642,4.63,4.6156,4.6237,4.5626,4.3488,4.3321,4.3474,4.3474,4.3177,4.3087,4.344,4.3177,4.2959,4.2959,4.3265,4.3474,4.3474,4.3159,4.3123,4.3457,4.3474,4.3644,4.3989,4.4005,4.4005,4.4005,4.4116,4.4599,4.5472,4.6271,4.707,4.7868,4.7868,4.7868,4.7813,4.7125,4.6754,4.6605,4.59,4.5491,4.5247,4.46,4.4228,4.4036,4.4222,4.43,4.4329,4.4368,4.444,4.4501,4.4501,4.4501,4.4501,4.4501,4.4501,4.4501,4.4501,4.4501,4.4501,4.4501,4.4501,4.4501,4.4501,4.4501,4.4501,4.4501,4.4501,4.4515,4.4537,4.451,4.451,4.4573,4.4546,4.4551,4.4592,4.4587,4.4661,4.4831,4.4668,4.4546,4.4605,4.4587,4.4587,4.4587,4.4587,4.4674,4.4837,4.4849,4.4962,4.5191,4.5232,4.5243,4.5243,4.5273,4.5274,4.5274,4.5274,4.5274,4.5274,4.5454,4.5533,4.3782,4.4005,4.4005,4.4005,4.4005,4.4005,4.4005,4.4005,4.4488,4.6141,4.5974,4.5883,4.7153,4.6368,4.5366,4.4955,4.4323,4.3892,4.3892,4.3844,4.3809,4.3892,4.3825,4.3793,4.3793,4.3841,4.3892,4.3892,4.3825,4.3825,4.3892,4.3892,4.3923,4.4005,4.4005,4.4005,4.4005,4.4711,4.5472,4.629,4.7107,4.7906,4.8686,4.8686,4.8686,4.8686,4.8537,4.811,4.7478,4.7348,4.6494,4.5284,4.5214,4.478,4.4184,4.4255,4.4344,4.4383,4.4397,4.444,4.4501,4.4501,4.4501,4.4501,4.4501,4.4501,4.4501,4.4501,4.4501,4.4501,4.4501,4.4501,4.4501,4.4501,4.4501,4.4501,4.4501,4.4501,4.4551,4.4714,4.4608,4.4627,4.5015,4.4891,4.4819,4.5049,4.5082,4.5094,4.5137,4.4903,4.4831,4.506,4.5082,4.5082,4.5082,4.5082,4.5094,4.5118,4.5118,4.514,4.5201,4.5352,4.5445,4.5445,4.561,4.5708,4.5708,4.5708,4.5708,4.5708,4.573,4.5786,4.3893,4.4005,4.4005,4.4005,4.4005,4.4005,4.4005,4.4005,4.4488,4.6141,4.5862,4.5658,4.6865,4.6104,4.5138,4.4692,4.4265,4.4005,4.4005,4.4395,4.4674,4.4674,4.4674,4.4674,4.4674,4.4265,4.4005,4.4005,4.4005,4.4005,4.4005,4.4005,4.4005,4.4005,4.4005,4.4005,4.4005,4.4859,4.5695,4.6513,4.7311,4.8129,4.8909,4.8909,4.8909,4.8909,4.8909,4.8686,4.8296,4.7868,4.727,4.652,4.5743,4.5229,4.4853,4.4508,4.4397,4.4397,4.4426,4.4468,4.4501,4.4501,4.4501,4.4501,4.4501,4.4501,4.4501,4.4501,4.4501,4.4501,4.4501,4.4501,4.4501,4.4501,4.4587,4.4655,4.4655,4.477,4.4887,4.4985,4.4934,4.4953,4.5169,4.5085,4.5052,4.5191,4.5201,4.5243,4.5333,4.5245,4.5173,4.5201,4.5201,4.5201,4.5201,4.5201,4.5234,4.5343,4.5352,4.5399,4.5498,4.561,4.565,4.565,4.5745,4.5807,4.5807,4.5807,4.5807,4.5807,4.5847,4.586,4.4005,4.4005,4.4005,4.4005,4.4005,4.4005,4.4005,4.4005,4.4488,4.6141,4.5714,4.5324,4.6308,4.5677,4.4804,4.4116,4.4005,4.4005,4.4005,4.4748,4.5287,4.5287,4.5454,4.5491,4.5324,4.4674,4.4191,4.4005,4.4005,4.4005,4.4005,4.4005,4.4005,4.4005,4.4005,4.4098,4.4283,4.5119,4.5955,4.6773,4.7571,4.8296,4.8909,4.8909,4.8909,4.8909,4.8909,4.8909,4.8853,4.8238,4.7917,4.7667,4.6305,4.5679,4.5432,4.4758,4.4473,4.4426,4.4487,4.4501,4.4501,4.4501,4.4501,4.4519,4.4688,4.4759,4.4801,4.497,4.5026,4.5054,4.5105,4.5082,4.5003,4.4866,4.4859,4.4891,4.4891,4.5052,4.5222,4.5263,4.5232,4.5232,4.5304,4.5284,4.5274,4.5314,4.5323,4.5381,4.5533,4.5549,4.5498,4.5343,4.5323,4.5323,4.5323,4.5323,4.539,4.5541,4.5549,4.5634,4.578,4.5807,4.5807,4.5807,4.5807,4.5807,4.5807,4.5807,4.5807,4.5821,4.5886,4.5906,4.4005,4.4005,4.4005,4.4005,4.4005,4.4005,4.4005,4.4005,4.4488,4.6141,4.5231,4.4599,4.6215,4.5194,4.4098,4.4005,4.4005,4.4005,4.4005,4.4748,4.5287,4.5287,4.5937,4.6104,4.5361,4.5231,4.4841,4.4061,4.4005,4.4005,4.4005,4.4005,4.4005,4.4005,4.4005,4.4376,4.5157,4.5974,4.6791,4.7608,4.8407,4.8834,4.8909,4.8909,4.8909,4.8909,4.8909,4.8909,4.889,4.8957,4.8507,4.7739,4.6984,4.6222,4.5506,4.4773,4.4501,4.4501,4.4501,4.4501,4.4501,4.4501,4.4501,4.4632,4.5378,4.5585,4.5754,4.6561,4.6772,4.6826,4.7072,4.6943,4.6619,4.6081,4.5544,4.515,4.515,4.5191,4.5244,4.5436,4.5323,4.5333,4.5673,4.5594,4.5524,4.5723,4.5745,4.5745,4.5759,4.5766,4.5778,4.5745,4.5745,4.5745,4.5745,4.5745,4.5752,4.5766,4.5766,4.5773,4.5807,4.5807,4.5807,4.5807,4.5807,4.5807,4.5807,4.5807,4.5821,4.5893,4.59,4.5932,4.4005,4.4005,4.4005,4.4005,4.4005,4.4005,4.4005,4.4413,4.5101,4.6252,4.5584,4.5138,4.629,4.5138,4.4005,4.4005,4.4005,4.4005,4.4005,4.5175,4.6011,4.6011,4.6735,4.6903,4.6104,4.5565,4.4934,4.4079,4.4005,4.4005,4.4005,4.4005,4.4005,4.4005,4.4005,4.4413,4.5287,4.6104,4.6903,4.7701,4.8519,4.8909,4.8909,4.8909,4.8909,4.8909,4.8909,4.8909,4.8909,4.9032,4.893,4.853,4.7295,4.6645,4.6273,4.4989,4.4501,4.4501,4.4501,4.4501,4.4617,4.5259,4.5462,4.5493,4.5641,4.6073,4.6561,4.6899,4.7118,4.7265,4.7378,4.7403,4.7352,4.7117,4.6993,4.681,4.6283,4.626,4.621,4.5773,4.5618,4.561,4.5766,4.5737,4.5715,4.5793,4.5807,4.5807,4.5807,4.5807,4.5807,4.5807,4.5807,4.5807,4.5807,4.5807,4.5807,4.5807,4.5807,4.5807,4.5807,4.5807,4.5807,4.5807,4.5807,4.5814,4.586,4.586,4.5874,4.5893,4.595,4.5974,4.4005,4.4005,4.4005,4.4005,4.4005,4.4005,4.4005,4.4469,4.5138,4.5974,4.5491,4.5157,4.5992,4.4971,4.4005,4.4005,4.4005,4.4005,4.4005,4.5435,4.6494,4.6494,4.7423,4.7646,4.6605,4.5547,4.4655,4.4042,4.4005,4.4005,4.4005,4.4005,4.4005,4.4005,4.4005,4.4525,4.5639,4.6215,4.7014,4.8054,4.863,4.8909,4.8909,4.8909,4.8909,4.8909,4.8909,4.8926,4.8979,4.9083,4.9034,4.8741,4.7398,4.6765,4.6448,4.5086,4.46,4.4595,4.4674,4.47,4.4871,4.5897,4.6376,4.6586,4.6662,4.7106,4.7653,4.7885,4.815,4.8329,4.8244,4.8258,4.8268,4.8188,4.8174,4.803,4.7405,4.7175,4.6922,4.631,4.5981,4.5807,4.5807,4.5807,4.5807,4.5807,4.5807,4.5807,4.5807,4.5807,4.5807,4.5807,4.5807,4.5807,4.5807,4.5807,4.5807,4.5807,4.5807,4.5807,4.5807,4.5807,4.5807,4.5807,4.5814,4.5854,4.59,4.5906,4.5912,4.5923,4.5986,4.6003,4.4005,4.4005,4.4005,4.4005,4.4005,4.4005,4.4005,4.4005,4.4265,4.5119,4.4618,4.4283,4.5138,4.4581,4.4005,4.4005,4.4005,4.4005,4.4005,4.5435,4.6494,4.6494,4.7906,4.8259,4.6661,4.4989,4.4005,4.4005,4.4005,4.4005,4.4005,4.4005,4.4005,4.4005,4.4005,4.4804,4.6475,4.6494,4.7293,4.889,4.8909,4.8909,4.8909,4.8909,4.8909,4.8909,4.8909,4.8979,4.9101,4.9164,4.876,4.8053,4.7286,4.6467,4.5646,4.501,4.4807,4.4825,4.5096,4.5191,4.5335,4.6205,4.7027,4.7848,4.8689,4.8957,4.9148,4.9927,5.0355,5.0518,5.0245,4.9942,4.9621,4.9345,4.8825,4.8392,4.8392,4.7715,4.7096,4.7096,4.6387,4.5807,4.5807,4.5807,4.5807,4.5807,4.5807,4.5807,4.5807,4.5807,4.5807,4.5807,4.5807,4.5807,4.5807,4.5807,4.5807,4.5807,4.5807,4.5807,4.5807,4.5807,4.5807,4.5807,4.586,4.59,4.59,4.5893,4.5923,4.5997,4.5997,4.5994,4.4005,4.4005,4.4005,4.4005,4.4005,4.4005,4.4005,4.4451,4.4971,4.5231,4.5082,4.4971,4.5249,4.4581,4.4005,4.4005,4.4005,4.4005,4.4005,4.4971,4.5913,4.6501,4.7022,4.6894,4.5786,4.4655,4.4005,4.4005,4.4005,4.4005,4.4005,4.4005,4.4005,4.4005,4.4005,4.4544,4.5658,4.6234,4.7033,4.8091,4.8649,4.8909,4.8909,4.8909,4.8909,4.8909,4.9015,4.8714,4.8224,4.8532,4.8192,4.7419,4.6834,4.6421,4.609,4.5346,4.5074,4.5085,4.518,4.5201,4.5366,4.6378,4.7271,4.8164,4.916,4.9633,4.9897,5.0349,5.0537,5.0606,5.0653,5.0604,5.0503,5.0408,5.0248,4.9958,4.9417,4.9068,4.8527,4.7328,4.6883,4.6503,4.5904,4.5807,4.5807,4.5807,4.5807,4.5807,4.5807,4.5807,4.5807,4.5807,4.5807,4.5807,4.5807,4.5807,4.5807,4.5807,4.5807,4.5807,4.5807,4.5847,4.586,4.586,4.5899,4.5925,4.5968,4.5974,4.5978,4.6005,4.6005,4.6013,4.4005,4.4005,4.4005,4.4005,4.4005,4.4005,4.4005,4.4413,4.4804,4.4804,4.4804,4.4804,4.4804,4.4376,4.4005,4.4005,4.4005,4.402,4.407,4.4795,4.5664,4.6525,4.6342,4.5938,4.5388,4.4522,4.4005,4.4005,4.4005,4.4005,4.4005,4.4005,4.4005,4.4005,4.4005,4.4413,4.5287,4.6104,4.6903,4.7701,4.8519,4.8909,4.8909,4.8909,4.8957,4.9087,4.8856,4.8553,0.0,4.808,4.7593,4.6846,4.6534,4.6211,4.5908,4.5465,4.5304,4.5314,4.5399,4.5427,4.5599,4.6587,4.7739,4.8874,4.9869,5.0303,5.0489,5.0663,5.0718,5.0745,5.0874,5.0898,5.0898,5.0898,5.0898,5.0763,5.026,4.9919,4.9378,4.8295,4.754,4.6922,4.6387,4.602,4.5807,4.5807,4.5807,4.5807,4.5807,4.5807,4.5807,4.5807,4.5807,4.5807,4.5807,4.5807,4.5807,4.5807,4.5807,4.5814,4.5847,4.5886,4.5906,4.5899,4.5911,4.5955,4.5997,4.6032,4.6046,4.6072,4.6072,4.6098,0.0,4.4005,4.4005,4.4005,4.4005,4.4005,4.4005,4.4005,0.0,4.4005,4.4005,4.4005,4.4005,4.4005,4.4005,4.4005,4.4005,4.4055,4.4184,4.4907,4.5684,4.6436,4.5867,4.5392,4.5336,4.4532,4.402,4.402,4.402,4.402,4.402,4.4017,4.4033,4.4033,4.4064,4.4439,4.5194,4.6011,4.6826,4.7642,4.846,4.8886,4.8976,4.8957,4.9115,4.9317,4.8568,4.8378,4.8562,4.7773,4.7018,4.6347,4.6339,4.5901,4.5273,4.5445,4.5516,4.556,4.5737,4.5807,4.5962,4.6883,4.8295,4.9765,5.0647,5.0898,5.0898,5.0898,5.0898,5.0898,5.0898,5.0898,5.0898,5.0898,5.0898,5.0898,5.0898,5.0299,4.9765,4.9707,4.8333,4.7173,4.7115,4.6387,4.5807,4.5807,4.5807,4.5807,4.5807,4.5807,4.5807,4.5807,4.5807,4.5807,4.5807,4.5807,4.5807,4.5807,4.5807,4.5847,4.59,4.5906,4.5899,4.5911,4.5972,4.6014,4.6014,4.608,4.6139,4.6202,4.6202,4.6204,4.4005,0.0,4.4005,4.4005,4.4005,4.4005,0.0,4.4005,4.4005,4.4005,4.4005,4.4005,4.4005,4.4005,4.4005,4.4005,4.4005,4.4055,4.4184,4.498,4.5376,4.4916,4.5264,4.5283,4.4625,4.4367,4.424,4.424,4.424,4.424,4.424,4.4383,4.4457,4.4457,4.4612,4.4562,4.4318,4.5138,4.61,4.7095,4.7961,4.8821,4.966,4.9659,4.9367,4.8859,4.872,4.7983,4.6896,4.6883,4.6426,4.5724,4.5883,4.5823,4.5658,4.5715,4.573,4.5737,4.5773,4.5807,4.6058,4.7579,4.8372,4.8972,5.0453,5.0898,5.0898,5.0898,5.0898,5.0898,5.0898,5.0898,5.0898,5.0898,5.0898,5.0898,5.0898,5.0743,5.0434,4.9823,4.8836,4.7869,4.7212,4.6387,4.5807,4.5807,4.5807,4.5807,4.5807,4.5807,4.5807,4.5807,4.5807,4.5807,4.5807,4.5807,4.5807,4.5807,4.5854,4.5867,4.59,4.595,4.598,4.5986,4.6036,4.6084,4.6084,4.6142,4.6173,4.6202,4.6202,4.6196,4.4005,4.4005,4.4005,4.4005,4.4005,4.4005,4.4005,4.4005,4.4005,4.4005,4.4005,4.402,4.407,4.4085,4.4101,4.4131,4.4147,4.4177,4.427,4.4762,4.4917,4.4458,4.4776,4.4855,4.4396,4.4314,4.43,4.43,4.4378,4.4444,4.4444,4.4624,4.4738,4.4738,4.4832,4.4737,4.4433,4.5284,4.6195,4.7133,4.8005,4.8964,4.9886,4.9512,4.9191,4.888,4.8119,4.7362,4.6656,4.6397,4.6031,4.5642,4.5752,4.5807,4.5807,4.5807,4.5807,4.5807,4.5807,4.5807,4.602,4.7366,4.8063,4.8643,4.9958,5.0608,5.0898,5.0898,5.0898,5.0898,5.0898,5.0898,5.0898,5.0898,5.0898,5.0898,5.0898,5.0898,5.0763,5.0337,4.9571,4.872,4.785,4.696,4.6271,4.5865,4.5807,4.5807,4.5807,4.5807,4.5807,4.5807,4.5807,4.5807,4.5807,4.5821,4.5847,4.5847,4.5886,4.5912,4.5944,4.598,4.6011,4.6051,4.6109,4.6158,4.616,4.6177,4.6226,4.625,4.625,4.6249,4.3968,4.4005,4.4005,4.4005,4.4005,4.4005,4.4005,4.4005,4.4005,4.4005,4.402,4.407,4.4184,4.4199,4.4244,4.4285,4.4325,4.4383,4.4435,4.4532,4.46,4.46,4.456,4.4532,4.4532,4.4477,4.4435,4.4435,4.4597,4.4688,4.4688,4.4874,4.499,4.499,4.5023,4.5044,4.5044,4.5677,4.6435,4.7281,4.8169,4.8955,4.9632,4.9098,4.8851,4.8808,4.7318,4.6769,4.6844,4.6097,4.5807,4.5807,4.5807,4.5807,4.5807,4.5807,4.5807,4.5807,4.5807,4.5807,4.5942,4.6825,4.7695,4.8566,4.9436,5.026,5.0898,5.0898,5.0898,5.0898,5.0898,5.0898,5.0898,5.0898,5.0898,5.0898,5.0898,5.0898,5.0898,5.0898,5.0241,4.9475,4.874,4.7773,4.6844,4.6116,4.5884,4.5807,4.5807,4.5807,4.5807,4.5807,4.5807,4.5814,4.5814,4.5887,4.5918,4.5925,4.5925,4.596,4.6032,4.6037,4.6065,4.6115,4.6171,4.6202,4.6191,4.6211,4.6245,4.63,4.63,4.63,4.3819,4.4005,4.4005,4.4005,4.4005,4.4005,4.4005,4.4005,4.4005,4.4005,4.4085,4.4184,4.4184,4.4259,4.4285,4.43,4.4481,4.4643,4.4643,4.4903,4.5094,4.5094,4.5094,4.5082,4.5082,4.5082,4.5052,4.5052,4.5085,4.5107,4.5107,4.5294,4.5408,4.5408,4.5563,4.5654,4.5654,4.5282,4.5641,4.674,4.7615,4.8203,4.8568,4.9238,4.8778,4.7418,4.7148,4.6622,4.6,4.5865,4.5807,4.5807,4.5807,4.5807,4.5807,4.5807,4.5807,4.5807,4.5807,4.5807,4.5942,4.6825,4.7695,4.8566,4.9436,5.026,5.0898,5.0898,5.0898,5.0898,5.0898,5.0898,5.0898,5.0898,5.0898,5.0898,5.0898,5.0898,5.0898,5.0898,5.0241,4.9668,4.9513,4.8179,4.7038,4.6922,4.6271,4.5807,4.5807,4.5807,4.5807,4.5807,4.5854,4.5874,4.5874,4.5942,4.6017,4.6078,4.6078,4.6103,4.6177,4.616,4.6165,4.6173,4.6184,4.6191,4.6191,4.6261,4.6287,4.63,4.63,4.63,4.3782,4.4005,4.402,4.4085,4.4119,4.4119,4.4119,4.4131,4.4162,4.4162,4.4211,4.43,4.4444,4.4495,4.4576,4.4752,4.4891,4.4973,4.4973,4.5096,4.5201,4.5201,4.5201,4.5201,4.5201,4.5201,4.5201,4.5201,4.5294,4.5362,4.5362,4.5541,4.5658,4.5658,4.5752,4.5807,4.5807,4.5519,4.5902,4.6874,4.7276,4.7769,4.835,4.8307,4.785,4.7076,4.66,4.6174,4.5807,4.5807,4.5807,4.5807,4.5807,4.5807,4.5807,4.5807,4.5807,4.5807,4.5807,4.5807,4.5865,4.6271,4.7308,4.8469,4.8875,4.99,5.0898,5.0898,5.0898,5.0898,5.0898,5.0898,5.0898,5.0898,5.0898,5.0898,5.0898,5.0898,5.0898,5.0898,5.0589,5.0202,4.9765,4.9049,4.8198,4.7231,4.6748,4.6329,4.5865,4.5807,4.5834,4.5892,4.5947,4.5972,4.6008,4.6045,4.6063,4.6092,4.6137,4.6175,4.6202,4.6199,4.6205,4.6205,4.6249,4.6242,4.6242,4.6288,4.63,4.63,4.63,4.63,4.3726,4.4005,4.402,4.4135,4.415,4.4169,4.4214,4.43,4.435,4.4383,4.4435,4.4549,4.4758,4.48,4.4896,4.5169,4.5243,4.5264,4.5264,4.5304,4.5333,4.5333,4.5333,4.5333,4.5333,4.5333,4.5333,4.5333,4.5481,4.5577,4.5577,4.5723,4.5807,4.5807,4.5807,4.5807,4.5807,4.5807,4.6136,4.6806,4.6999,4.7347,4.7773,4.7308,4.698,4.6748,4.6097,4.5807,4.5807,4.5807,4.5807,4.5807,4.5807,4.5807,4.5807,4.5807,4.5807,4.5807,4.5807,4.5807,4.5807,4.5807,4.6844,4.8121,4.8333,4.9436,5.0666,5.084,5.0898,5.0898,5.0898,5.0898,5.0898,5.0898,5.0898,5.0898,5.0898,5.0898,5.0898,5.0898,5.0898,5.0705,5.0094,4.9823,4.9243,4.7908,4.7376,4.6881,4.6203,4.5977,4.5902,4.6018,4.6031,4.6045,4.6116,4.6119,4.6131,4.6157,4.6175,4.6217,4.6222,4.6211,4.6229,4.6229,4.6274,4.63,4.63,4.63,4.63,4.63,4.63,4.63,4.3578,4.4005,4.4005,4.4005,4.402,4.4051,4.4255,4.4383,4.4493,4.4565,4.4831,4.5041,4.5063,4.5118,4.518,4.5201,4.5352,4.5472,4.5472,4.5634,4.5752,4.5752,4.5752,4.5752,4.5752,4.5752,4.5752,4.5752,4.5766,4.5786,4.5786,4.58,4.5807,4.5807,4.5807,4.5807,4.5807,4.5807,4.5826,4.5904,4.6709,4.6709,4.602,4.6748,4.6651,4.5884,4.5826,4.5807,4.5807,4.5807,4.5807,4.5807,4.5807,4.5807,4.5807,4.5807,4.5807,4.5807,4.5807,4.5807,4.5807,4.5807,4.6426,4.7347,4.814,4.9049,4.9939,5.0685,5.0898,5.0898,5.0898,5.0898,5.0898,5.0898,5.0898,5.0898,5.0898,5.0898,5.0898,5.0898,5.0898,5.0879,5.0821,5.0183,4.9668,4.9533,4.8193,4.7165,4.7107,4.6497,4.6072,4.6096,4.6092,4.6113,4.619,4.6191,4.6229,4.6272,4.6229,4.6229,4.629,4.6285,4.6285,4.6285,4.6302,4.63,4.63,4.63,4.63,4.63,4.63,4.63,4.3559,4.4151,4.4303,4.4308,4.4433,4.4548,4.4503,4.4552,4.4688,4.4919,4.5074,4.5192,4.5333,4.5472,4.5558,4.5558,4.5634,4.57,4.57,4.5752,4.5807,4.5807,4.5807,4.5807,4.5807,4.5807,4.5807,4.5807,4.5807,4.6039,4.6581,4.6619,4.6619,4.6619,4.6619,4.6348,4.5807,4.5807,4.5807,4.5807,4.6136,4.6116,4.5807,4.6136,4.6116,4.5807,4.5807,4.5807,4.5807,4.5807,4.5807,4.5807,4.5807,4.5807,4.5807,4.5807,4.5807,4.5807,4.5807,4.5807,4.5807,4.5807,4.6387,4.725,4.814,4.901,4.9881,5.0666,5.0898,5.0898,5.0898,5.0898,5.0898,5.0898,5.0898,5.0898,5.0898,5.0898,5.0898,5.0898,5.0961,5.1024,5.1024,5.0808,5.045,4.9911,4.9284,4.8684,4.8143,4.7384,4.6916,4.6973,4.6516,4.623,4.6261,4.6258,4.6274,4.6302,4.6273,4.6274,4.6302,4.63,4.63,4.63,4.63,4.63,4.63,4.63,4.63,4.63,4.63,4.63,4.3747,4.4397,4.4625,4.4631,4.4768,4.489,4.4858,4.4889,4.4981,4.5244,4.5343,4.5427,4.5577,4.5715,4.5807,4.5807,4.5807,4.5807,4.5807,4.5807,4.5807,4.5807,4.5807,4.5807,4.5807,4.5807,4.5807,4.5807,4.6058,4.6464,4.7076,4.7366,4.7386,4.7115,4.7096,4.667,4.5807,4.5807,4.5807,4.5807,4.5807,4.5807,4.5807,4.5807,4.5807,4.5807,4.5807,4.5807,4.5807,4.5807,4.5807,4.5807,4.5807,4.5807,4.5807,4.5807,4.5807,4.5807,4.5807,4.5807,4.5807,4.5807,4.6194,4.6902,4.8043,4.8817,4.9513,5.0589,5.0898,5.0898,5.0898,5.0898,5.0914,5.0947,5.0954,5.0969,5.0998,5.0992,5.0992,5.0992,5.106,5.1141,5.1141,5.1161,5.1008,5.0408,5.0098,4.9724,4.9129,4.8352,4.779,4.7556,4.6793,4.6306,4.6302,4.63,4.63,4.63,4.63,4.63,4.63,4.63,4.63,4.63,4.63,4.63,4.63,4.63,4.63,4.63,4.63,4.63,4.4146,4.475,4.4912,4.4912,4.4912,4.499,4.5323,4.5399,4.5417,4.549,4.5658,4.5807,4.5807,4.5807,4.5807,4.5807,4.5807,4.5807,4.5807,4.5807,4.5807,4.5807,4.5807,4.5807,4.5807,4.5807,4.5807,4.5807,4.6619,4.7115,4.7115,4.7947,4.8005,4.7134,4.7115,4.6689,4.5807,4.5807,4.5807,4.5807,4.5807,4.5807,4.5807,4.5807,4.5807,4.5807,4.5807,4.5807,4.5807,4.5807,4.5807,4.5807,4.5807,4.5807,4.5807,4.5807,4.5807,4.5807,4.5807,4.5807,4.5807,4.5807,4.5807,4.6136,4.7869,4.8392,4.8759,5.0434,5.0898,5.0898,5.0898,5.0898,5.0944,5.1069,5.1105,5.112,5.1183,5.1203,5.1203,5.1203,5.1203,5.1203,5.1203,5.1203,5.1203,5.1203,5.0522,5.0012,5.0002,4.9355,4.8589,4.7698,4.6832,4.63,4.63,4.63,4.63,4.63,4.63,4.63,4.63,4.63,4.63,4.63,4.63,4.63,4.63,4.63,4.63,4.63,4.63,4.63,4.436,4.5031,4.5236,4.5177,4.536,4.5555,4.5665,4.5535,4.5453,4.5665,4.5752,4.5807,4.5807,4.5807,4.5807,4.5807,4.5807,4.5807,4.5807,4.5807,4.5807,4.5807,4.5807,4.5807,4.5807,4.6348,4.6709,4.6709,4.7521,4.8275,4.8894,4.9165,4.8914,4.8043,4.8005,4.7289,4.5807,4.5807,4.5807,4.5807,4.5807,4.5807,4.5807,4.5807,4.5807,4.5807,4.5807,4.5807,4.5807,4.5807,4.5807,4.5807,4.5807,4.5807,4.5807,4.5807,4.5807,4.5807,4.5807,4.5807,4.5807,4.5807,4.5807,4.6136,4.7869,4.8392,4.8759,5.0434,5.0898,5.0929,5.1017,5.1043,5.1056,5.1093,5.1146,5.1189,5.1195,5.1203,5.1203,5.1203,5.1245,5.1274,5.1274,5.1302,5.1337,5.1337,5.1149,5.0762,5.0154,4.9876,4.9419,4.855,4.7707,4.7217,4.7217,4.6651,4.63,4.63,4.63,4.63,4.63,4.63,4.63,4.63,4.63,4.63,4.63,4.63,4.63,4.63,4.63,4.63,4.4773,4.5332,4.5558,4.5505,4.5658,4.58,4.5798,4.5677,4.5599,4.5759,4.6078,4.6329,4.6329,4.66,4.6825,4.6825,4.6825,4.6825,4.6825,4.6825,4.6825,4.6825,4.6825,4.6825,4.6825,4.7308,4.7618,4.7618,4.8411,4.9146,4.9668,4.9997,4.9629,4.843,4.8392,4.756,4.5826,4.5807,4.5807,4.5807,4.5807,4.5807,4.5807,4.5807,4.5807,4.5807,4.5807,4.5807,4.5807,4.5807,4.5807,4.5807,4.5807,4.5807,4.5807,4.5807,4.5807,4.5807,4.5807,4.5807,4.5807,4.5807,4.5807,4.6136,4.7869,4.8416,4.878,5.0438,5.0956,5.103,5.1093,5.1132,5.1174,5.1174,5.1214,5.1255,5.1277,5.1282,5.1282,5.1282,5.1304,5.1337,5.1337,5.1365,5.1406,5.1406,5.1404,5.1203,5.0687,5.0312,4.9897,4.9364,4.8564,4.8076,4.8076,4.7295,4.6827,4.6827,4.6495,4.63,4.63,4.63,4.63,4.63,4.63,4.63,4.63,4.63,4.63,4.63,4.63,4.63,4.5312,4.5658,4.5807,4.5807,4.5807,4.5807,4.5807,4.5807,4.5807,4.5807,4.6426,4.698,4.698,4.7637,4.8159,4.8159,4.8159,4.8198,4.8275,4.8275,4.8314,4.8392,4.8392,4.8392,4.8392,4.8469,4.8527,4.8527,4.932,4.9803,4.9803,5.0492,5.0124,4.845,4.8392,4.756,4.5826,4.5807,4.5807,4.5807,4.5807,4.5807,4.5807,4.5807,4.5807,4.5807,4.5807,4.5807,4.5807,4.5807,4.5807,4.5807,4.5807,4.5807,4.5807,4.5807,4.5807,4.5807,4.5807,4.5807,4.5807,4.5807,4.5807,4.6136,4.7891,4.8451,4.8841,5.0477,5.1053,5.1187,5.1122,5.1211,5.1297,5.1301,5.1302,5.133,5.1386,5.1406,5.1406,5.1406,5.1406,5.1406,5.1406,5.1406,5.1406,5.1404,5.1397,5.1409,5.1408,5.0717,5.0221,5.0221,4.9442,4.8915,4.8915,4.8174,4.7703,4.7703,4.6905,4.6417,4.6417,4.6339,4.63,4.63,4.63,4.63,4.63,4.63,4.63,4.63,4.63,4.63,4.5525,4.5759,4.5807,4.5807,4.5807,4.5807,4.5807,4.5807,4.5807,4.5807,4.5962,4.6078,4.6078,4.6232,4.6368,4.6368,4.6368,4.66,4.727,4.7386,4.7637,4.8314,4.8392,4.8392,4.8392,4.903,4.9417,4.9417,5.0183,5.0647,5.0647,5.0801,5.0124,4.845,4.8392,4.756,4.5826,4.5807,4.5807,4.5807,4.5807,4.5807,4.5807,4.5807,4.5807,4.5807,4.5807,4.5807,4.5807,4.5807,4.5807,4.5807,4.5807,4.5807,4.5807,4.5807,4.5807,4.5807,4.5807,4.5807,4.5807,4.5807,4.5807,4.6137,4.7939,4.8491,4.8874,5.0641,5.117,5.1211,5.1255,5.1282,5.1304,5.1363,5.1385,5.1386,5.1406,5.1406,5.1406,5.1406,5.1406,5.1406,5.1405,5.1405,5.1404,5.1396,5.1391,5.1407,5.1398,5.124,5.1121,5.1121,5.0338,4.9811,4.9811,4.9032,4.8545,4.8545,4.7764,4.7315,4.7315,4.6651,4.63,4.63,4.63,4.63,4.63,4.63,4.63,4.63,4.63,4.63,4.5691,4.5807,4.5807,4.5807,4.5807,4.5807,4.5807,4.5807,4.5807,4.5807,4.6136,4.6426,4.6426,4.6748,4.7038,4.7038,4.7038,4.7192,4.7657,4.7715,4.7889,4.8353,4.8392,4.8392,4.8392,4.8817,4.9243,4.9668,5.0094,5.0318,5.0318,5.0318,4.9552,4.7831,4.7773,4.7134,4.5807,4.5807,4.5807,4.5807,4.5807,4.5807,4.5807,4.5807,4.5807,4.5807,4.5807,4.5807,4.5807,4.5807,4.5807,4.5814,4.5861,4.5905,4.5892,4.5931,4.5933,4.5933,4.5933,4.5933,4.5933,4.5933,4.5933,4.6274,4.8025,4.86,4.9001,5.0716,5.1255,5.1295,5.1297,5.133,5.1362,5.1387,5.1406,5.1406,5.1406,5.1406,5.1406,5.1406,5.1406,5.1406,5.1405,5.1402,5.1397,5.1391,5.1405,5.14,5.1394,5.1394,5.1394,5.1394,5.0984,5.0709,5.0709,4.993,4.9423,4.9423,4.8642,4.8174,4.8174,4.7373,4.6729,4.63,4.63,4.63,4.63,4.63,4.63,4.63,4.63,4.63,4.5807,4.5807,4.5807,4.5807,4.5807,4.5807,4.5807,4.5807,4.5807,4.5807,4.6368,4.6883,4.6883,4.7463,4.7947,4.7947,4.7947,4.8005,4.814,4.8179,4.8237,4.8372,4.8392,4.8392,4.8392,4.8392,4.8701,4.9417,4.9475,4.9475,4.9475,4.9475,4.8759,4.7154,4.7096,4.667,4.5807,4.5807,4.5807,4.5807,4.5807,4.5807,4.5807,4.5807,4.5807,4.5807,4.5807,4.5821,4.5822,4.5822,4.5835,4.5848,4.5972,4.6027,4.6018,4.6076,4.6098,4.6098,4.6098,4.6098,4.6098,4.6098,4.6098,4.6414,4.8123,4.8711,4.9148,5.0787,5.1304,5.1386,5.1333,5.1362,5.1406,5.1405,5.1404,5.1405,5.1406,5.1406,5.1405,5.1406,5.1405,5.1403,5.1403,5.1396,5.1407,5.1407,5.14,5.1394,5.1394,5.1394,5.1394,5.1394,5.1394,5.1394,5.1394,5.0748,5.0319,5.0319,4.9501,4.9013,4.9013,4.8232,4.7471,4.6749,4.6456,4.63,4.63,4.63,4.63,4.63,4.6456,4.6515,4.5807,4.5807,4.5807,4.5807,4.5807,4.5807,4.5807,4.5807,4.5807,4.5807,4.5884,4.5981,4.5981,4.6078,4.6155,4.6155,4.6155,4.6406,4.7173,4.727,4.754,4.8314,4.8392,4.8392,4.8392,4.8392,4.845,4.8566,4.8566,4.8566,4.8566,4.8566,4.8121,4.7134,4.7096,4.667,4.5807,4.5807,4.5807,4.5807,4.5807,4.5807,4.5807,4.5807,4.5807,4.5807,4.5807,4.5874,4.5975,4.5975,4.6013,4.6068,4.608,4.6084,4.6087,4.6095,4.6098,4.6098,4.6098,4.6098,4.6098,4.6098,4.6098,4.6424,4.8235,4.8798,4.9158,5.0894,5.1386,5.1406,5.1386,5.1387,5.1405,5.1405,5.1402,5.1401,5.1405,5.1405,5.1405,5.1405,5.14,5.1393,5.1393,5.1403,5.1396,5.1396,5.1394,5.1394,5.1394,5.1394,5.1394,5.1394,5.1394,5.1394,5.1394,5.1297,5.1238,5.1238,5.0416,4.9928,4.9928,4.9091,4.8584,4.8466,4.7042,4.63,4.63,4.63,4.63,4.6319,4.7061,4.743,4.5807,4.5821,4.5854,4.5854,4.5854,4.5867,4.5867,4.5867,4.5861,4.5896,4.5908,4.5879,4.5801,4.5807,4.5807,4.5807,4.5807,4.5923,4.6329,4.6368,4.6523,4.6902,4.6941,4.6941,4.6941,4.6941,4.7154,4.7637,4.7676,4.7676,4.7676,4.7676,4.727,4.6406,4.6368,4.6194,4.5807,4.5807,4.5807,4.5807,4.5807,4.5848,4.5904,4.5904,4.5904,4.5904,4.5904,4.5972,4.6063,4.6063,4.6068,4.6105,4.6142,4.6153,4.6158,4.6202,4.6209,4.6209,4.6209,4.6209,4.6209,4.6209,4.6209,4.6544,4.8313,4.8862,4.9215,5.0918,5.1406,5.1406,5.1406,5.1404,5.1402,5.1402,5.14,5.14,5.1404,5.1405,5.1404,5.1402,5.1396,5.1408,5.1402,5.1398,5.1394,5.1394,5.1394,5.1394,5.1394,5.1394,5.1394,5.1394,5.1394,5.1394,5.1394,5.1394,5.1394,5.1394,5.1043,5.0828,5.0828,4.9989,4.954,4.954,4.833,4.7705,4.7705,4.7705,4.7705,4.7705,4.8096,4.8271,4.5841,4.5898,4.595,4.5939,4.5942,4.5944,4.5944,4.5944,4.5978,4.6016,4.6028,4.5983,4.59,4.5885,4.5867,4.5814,4.5834,4.5848,4.5787,4.5807,4.5807,4.5807,4.5807,4.5807,4.5807,4.5807,4.6078,4.6709,4.6767,4.6767,4.6767,4.6767,4.6464,4.5826,4.5807,4.5807,4.5807,4.5807,4.5807,4.5807,4.5822,4.5892,4.6002,4.6027,4.6036,4.6059,4.6032,4.6056,4.6128,4.6128,4.6137,4.6153,4.6206,4.6234,4.6237,4.6288,4.6308,4.6308,4.6308,4.6308,4.6308,4.6308,4.6308,4.6621,4.8379,4.8906,4.9258,5.0937,5.1406,5.1405,5.1405,5.1402,5.1396,5.1396,5.1396,5.1398,5.1402,5.1404,5.1402,5.1397,5.1391,5.1403,5.1396,5.1394,5.1394,5.1394,5.1394,5.1394,5.1394,5.1394,5.1394,5.1394,5.1394,5.1394,5.1394,5.1394,5.1394,5.1394,5.1394,5.1394,5.1394,5.0789,5.0436,5.0436,4.9794,4.9247,4.8798,4.8798,4.8798,4.8818,4.9032,4.913,4.5997,4.6037,4.6095,4.6079,4.6089,4.6081,4.6081,4.6081,4.6081,4.6084,4.6084,4.6084,4.6098,4.6073,4.6016,4.5828,4.5917,4.5953,4.5827,4.5807,4.5807,4.5807,4.5807,4.5807,4.5807,4.5807,4.5826,4.5865,4.5865,4.5865,4.5865,4.5865,4.5845,4.5807,4.5807,4.5807,4.5807,4.5807,4.5807,4.5807,4.5935,4.5997,4.6002,4.608,4.6131,4.6195,4.6125,4.6134,4.6181,4.6181,4.6238,4.6289,4.6289,4.6289,4.6308,4.6308,4.6308,4.6308,4.6308,4.6308,4.6308,4.6308,4.6308,4.6621,4.8379,4.8906,4.9258,5.0937,5.1406,5.1405,5.1405,5.1399,5.139,5.139,5.139,5.1393,5.1397,5.1398,5.1397,5.1391,5.1402,5.1394,5.1394,5.1394,5.1394,5.1394,5.1394,5.1394,5.1394,5.1394,5.1394,5.1394,5.1394,5.1394,5.1394,5.1394,5.1394,5.1394,5.1394,5.1394,5.1394,5.1355,5.1336,5.1336,5.1297,5.0457,4.8798,4.8798,4.8798,4.8818,4.9655,5.0026,4.6056,4.6072,4.6101,4.6097,4.6126,4.6154,4.6154,4.6154,4.6158,4.6156,4.6158,4.6157,4.6152,4.6123,4.6079,4.6002,4.6025,4.6045,4.5996,4.5998,4.5983,4.5927,4.5935,4.5886,4.5814,4.5807,4.5807,4.5807,4.5807,4.5807,4.5807,4.5807,4.5807,4.5807,4.5807,4.5807,4.5807,4.5807,4.5835,4.5935,4.598,4.605,4.6131,4.615,4.6204,4.6265,4.624,4.6241,4.6266,4.6266,4.6288,4.6308,4.6308,4.6308,4.6308,4.6308,4.6308,4.6308,4.6308,4.6308,4.6308,4.6308,4.6308,4.6621,4.8379,4.8906,4.9258,5.0937,5.1404,5.14,5.1397,5.1409,5.1402,5.1408,5.1393,5.1395,5.1394,5.1393,5.1393,5.139,5.1402,5.1394,5.1394,5.1394,5.1394,5.1394,5.1394,5.1394,5.1394,5.1394,5.1394,5.1394,5.1394,5.1394,5.1394,5.1394,5.1394,5.1394,5.1394,5.1394,5.1394,5.1394,5.1394,5.1394,5.1394,5.1082,5.0477,5.0477,5.0423,5.0345,5.0657,5.0766,4.6123,4.615,4.6165,4.6163,4.6205,4.6228,4.6228,4.6228,4.6229,4.623,4.623,4.623,4.623,4.6208,4.6152,4.6116,4.6116,4.6136,4.6098,4.6105,4.6079,4.6035,4.6018,4.5961,4.5886,4.5834,4.5807,4.5807,4.5807,4.5807,4.5807,4.5807,4.5807,4.5807,4.5807,4.5807,4.5807,4.5835,4.5904,4.6002,4.605,4.6115,4.6204,4.6215,4.6265,4.6308,4.6308,4.6308,4.6308,4.6308,4.6308,4.6308,4.6308,4.6308,4.6308,4.6308,4.6308,4.6308,4.6308,4.6308,4.6308,4.6308,4.6308,4.6621,4.8379,4.8906,4.9257,5.0935,5.14,5.1395,5.1391,5.1402,5.1396,5.1403,5.1408,5.1391,5.1407,5.1407,5.1408,5.1405,5.14,5.1394,5.1394,5.1394,5.1394,5.1394,5.1394,5.1394,5.1394,5.1394,5.1394,5.1394,5.1394,5.1394,5.1394,5.1394,5.1394,5.1394,5.1394,5.1394,5.1394,5.1394,5.1394,5.1394,5.136,5.133,5.133,5.133,5.1258,5.1137,5.1137,5.1058,0.0,0.0,0.0,4.6291,4.6306,4.63,4.63,4.63,4.63,4.63,4.63,4.63,4.63,4.63,4.6263,4.6134,4.617,4.6178,4.6121,4.6114,4.6108,4.6092,4.6045,4.5998,4.6007,4.5873,4.5807,4.5807,4.5807,4.5807,4.5807,4.5807,4.5807,4.5814,4.5814,4.5814,4.5821,4.5947,4.6007,4.6012,4.6137,4.6204,4.6206,4.6267,4.6308,4.6308,4.6308,4.6308,4.6308,4.6308,4.6308,4.6308,4.6308,4.6308,4.6308,4.6308,4.6308,4.6308,4.6308,4.6308,4.6308,4.6308,4.6308,4.6621,4.8339,4.8885,4.9236,5.0892,5.1374,5.1409,5.1409,5.1402,5.1394,5.1394,5.1394,5.1394,5.1394,5.1402,5.1407,5.1396,5.1394,5.1394,5.1394,5.1394,5.1394,5.1394,5.1394,5.1394,5.1394,5.1394,5.1394,5.1394,5.1394,5.1394,5.1394,5.1394,5.1394,5.1394,5.1394,5.1394,5.1394,5.1394,5.1394,5.1392,5.1278,5.1199,5.1195,5.1195,5.1132,5.0996,5.0996,5.0966,4.6268,0.0,0.0,0.0,0.0,0.0,4.63,4.63,4.63,4.63,4.63,4.63,4.63,4.63,4.6288,4.6246,4.6266,4.6266,4.6249,4.623,4.6229,4.6174,4.6158,4.6111,4.6008,4.5966,4.5892,4.5814,4.5807,4.5807,4.5807,4.5807,4.5835,4.5947,4.5933,4.5972,4.6031,4.6056,4.6095,4.6145,4.6173,4.6234,4.6267,4.6289,4.6308,4.6308,4.6308,4.6308,4.6308,4.6308,4.6308,4.6308,4.6308,4.6308,4.6308,4.6308,4.6308,4.6308,4.6308,4.6308,4.6308,4.6308,4.6307,4.6502,4.7613,4.8393,4.9114,5.0164,5.0903,5.1408,5.14,5.1396,5.1394,5.1394,5.1394,5.1394,5.1394,5.1396,5.1398,5.1394,5.1394,5.1394,5.1394,5.1394,5.1394,5.1394,5.1394,5.1394,5.1394,5.1394,5.1394,5.1394,5.1394,5.1394,5.1394,5.1394,5.1394,5.1394,5.1394,5.1394,5.1394,5.1394,5.136,5.1255,5.1214,5.1138,5.0978,5.1033,5.1016,5.0935,5.083,5.0764,4.6283,4.6309,4.63,4.63,0.0,0.0,4.63,4.63,4.63,4.63,4.63,4.63,4.63,4.63,4.63,4.63,4.6305,4.6308,4.6308,4.6293,4.6281,4.625,4.6228,4.6168,4.6099,4.6068,4.6012,4.5936,4.5931,4.5931,4.5931,4.5931,4.5963,4.6046,4.6046,4.6052,4.6098,4.6128,4.6158,4.6202,4.6235,4.6265,4.6308,4.6308,4.6308,4.6308,4.6308,4.6308,4.6308,4.6308,4.6308,4.6308,4.6308,4.6308,4.6308,4.6308,4.6308,4.6308,4.6308,4.6308,4.6308,4.6307,4.6306,4.6461,4.7335,4.7957,4.86,4.9765,5.074,5.1402,5.1396,5.1394,5.1394,5.1394,5.1394,5.1394,5.1394,5.1394,5.1394,5.1394,5.1394,5.1394,5.1394,5.1394,5.1394,5.1394,5.1394,5.1394,5.1394,5.1394,5.1394,5.1394,5.1394,5.1394,5.1394,5.1357,5.1322,5.1322,5.1258,5.1222,5.1222,5.1222,5.1199,5.1123,5.1083,5.0998,5.0827,5.0908,5.0908,5.0799,5.075,5.0712,4.6249,4.6293,4.63,4.63,4.63,0.0,4.63,4.63,4.63,4.63,4.63,4.63,4.63,4.63,4.63,4.63,4.63,4.63,4.63,4.63,4.6303,4.6291,4.6249,4.6209,4.6199,4.6147,4.6111,4.6105,4.6102,4.6098,4.6098,4.6098,4.6105,4.6112,4.6112,4.6115,4.6125,4.6171,4.6209,4.6209,4.6267,4.6308,4.6308,4.6308,4.6308,4.6308,4.6308,4.6308,4.6308,4.6308,4.6308,4.6308,4.6308,4.6308,4.6308,4.6308,4.6308,4.6308,4.6308,4.6308,4.6306,4.6306,4.6304,4.6436,4.721,4.752,4.7948,4.9638,5.0651,5.1277,5.1375,5.1394,5.1394,5.1394,5.1394,5.1394,5.1394,5.1394,5.1394,5.1394,5.1394,5.1394,5.1394,5.1394,5.1394,5.1394,5.1394,5.1394,5.1394,5.1394,5.1394,5.1394,5.1394,5.1392,5.1388,5.1262,5.1199,5.1187,5.1063,5.1002,5.1002,5.1002,5.0996,5.0984,5.0928,5.0827,5.0712,5.0827,5.0819,5.0712,5.0712,5.0712,4.6091,4.6293,4.63,4.63,4.63,0.0,4.63,4.63,4.63,4.63,4.63,4.63,4.63,4.63,4.63,4.63,4.63,4.63,4.63,4.63,4.6302,4.6303,4.6294,4.6267,4.6209,4.6181,4.6161,4.6108,4.6109,4.6098,4.6098,4.6098,4.6125,4.6171,4.6171,4.6206,4.6265,4.6268,4.6288,4.6288,4.6289,4.6308,4.6308,4.6308,4.6308,4.6308,4.6308,4.6308,4.6308,4.6308,4.6308,4.6308,4.6308,4.6308,4.6308,4.6308,4.6308,4.6307,4.6307,4.6306,4.6302,4.6299,4.6296,4.6333,4.65,4.7043,4.7941,4.9636,5.0221,5.0514,5.1219,5.1394,5.1394,5.1394,5.1394,5.1394,5.1394,5.1394,5.1394,5.1394,5.1394,5.1394,5.1394,5.1394,5.1394,5.1394,5.1394,5.1394,5.1394,5.1394,5.1394,5.1394,5.1394,5.136,5.1248,5.1211,5.115,5.1047,5.102,5.1002,5.1002,5.1002,5.0979,5.092,5.081,5.0731,5.0712,5.0731,5.0731,5.0712,5.0712,5.0712,4.5506,4.5963,4.6306,4.6302,4.63,0.0,0.0,4.63,4.63,4.63,4.63,4.63,4.63,4.63,4.63,4.63,4.63,4.63,4.63,4.63,4.63,4.63,4.6305,4.6295,4.6248,4.6249,4.623,4.6201,4.6191,4.6204,4.6209,4.6206,4.621,4.6243,4.6243,4.6266,4.6308,4.6308,4.6308,4.6308,4.6308,4.6308,4.6308,4.6308,4.6308,4.6308,4.6308,4.6308,4.6308,4.6308,4.6308,4.6308,4.6308,4.6307,4.6307,4.6307,4.6306,4.6305,4.6305,4.6302,4.6297,4.6294,4.629,4.6306,4.6302,4.6905,4.7781,4.8621,4.946,5.0202,5.0631,5.1063,5.1394,5.1394,5.1394,5.1394,5.1394,5.1394,5.1394,5.1394,5.1394,5.1394,5.1394,5.1394,5.1394,5.1394,5.1394,5.1394,5.1394,5.1394,5.1367,5.1319,5.1297,5.1248,5.1099,5.1061,5.1023,5.0952,5.0894,5.0848,5.0848,5.0848,5.0827,5.0801,5.0721,5.0712,5.0712,5.0712,5.0712,5.0712,5.0712,5.0712,4.4648,4.5246,4.5842,4.6009,4.6046,4.6085,0.0,0.0,0.0,4.63,4.63,4.63,4.63,4.63,4.6241,4.6085,4.6183,4.6241,4.6066,4.6183,4.63,4.63,4.63,4.6303,4.629,4.6293,4.6295,4.63,4.6307,4.6308,4.6307,4.6308,4.6308,4.6308,4.6308,4.6308,4.6308,4.6308,4.6308,4.6308,4.6308,4.6308,4.6308,4.6308,4.6308,4.6308,4.6308,4.6308,4.6308,4.6307,4.6306,4.6305,4.6306,4.6305,4.6301,4.6301,4.6301,4.6301,4.6301,4.6296,4.6291,4.6291,4.6306,4.63,4.63,4.6788,4.7372,4.7547,4.8562,4.9694,5.0026,5.0612,5.1199,5.1355,5.1394,5.1394,5.1394,5.1394,5.1394,5.1394,5.1394,5.1394,5.1394,5.1394,5.1394,5.1394,5.1394,5.1394,5.1394,5.1386,5.1325,5.1211,5.1187,5.1118,5.0997,5.0923,5.0898,5.0866,5.0758,5.0712,5.0712,5.0712,5.0712,5.0712,5.0712,5.0712,5.0712,5.0712,5.0712,5.0712,5.0712,5.0712,4.3526,4.3866,4.4181,4.4955,4.5148,4.5343,4.6124,0.0,4.63,4.63,0.0,4.63,4.63,0.0,0.0,4.5265,4.5792,4.6027,4.5265,4.5812,4.63,4.63,4.63,4.6302,4.6302,4.6308,4.6294,4.6294,4.6301,4.6305,4.6307,4.6307,4.6308,4.6308,4.6308,4.6308,4.6308,4.6308,4.6308,4.6308,4.6308,4.6308,4.6308,4.6308,4.6308,4.6307,4.6307,4.6306,4.6303,4.6302,4.63,4.6296,4.6301,4.6302,4.6301,4.6301,4.6299,4.6294,4.6294,4.6309,4.6302,4.6302,4.6302,4.63,4.63,4.6378,4.6612,4.7372,4.7742,4.823,4.9714,5.0163,5.0436,5.1219,5.1394,5.1394,5.1394,5.1394,5.1394,5.1394,5.1394,5.1394,5.1394,5.1394,5.1394,5.1394,5.1394,5.1394,5.1394,5.1294,5.1211,5.1203,5.1084,5.0997,5.0913,5.0902,5.085,5.074,5.0702,5.0712,5.0712,5.0712,5.0712,5.0712,5.0712,5.0712,5.0712,5.0712,5.0712,5.0712,5.0712,5.0712,4.2666,4.3205,4.3727,4.4101,4.4214,4.4464,4.5347,4.5558,4.5695,4.6202,0.0,0.0,0.0,0.0,0.0,0.0,4.6066,4.6163,4.5812,4.6066,4.63,4.63,4.63,4.63,4.63,4.6308,4.6291,4.6306,4.6296,4.6302,4.6304,4.6306,4.6308,4.6308,4.6308,4.6308,4.6308,4.6308,4.6308,4.6308,4.6308,4.6308,4.6308,4.6308,4.6307,4.6304,4.6304,4.6303,4.6301,4.6299,4.6295,4.6293,4.6291,4.6291,4.6291,4.6291,4.6309,4.6306,4.6306,4.6303,4.63,4.63,4.63,4.63,4.63,4.63,4.6378,4.6749,4.7217,4.7762,4.8465,4.9362,5.0182,5.0553,5.1023,5.1394,5.1394,5.1394,5.1394,5.1394,5.1394,5.1394,5.1394,5.1394,5.1394,5.1394,5.133,5.1288,5.1288,5.1159,5.1072,5.1029,5.0985,5.0905,5.0793,5.0775,5.0758,5.0693,5.0712,5.0712,5.0712,5.0712,5.0712,5.0712,5.0712,5.0712,5.0712,5.0712,5.0712,5.0712,5.0712,5.0712,4.1815,4.2326,4.2924,4.3173,4.328,4.3554,4.4441,4.4647,4.4894,4.5753,4.5948,0.0,0.0,0.0,4.6222,4.5987,0.0,4.6222,4.5987,4.6144,4.63,4.63,4.63,4.63,4.63,4.6306,4.6306,4.6302,4.6291,4.6297,4.63,4.6303,4.6306,4.6308,4.6308,4.6308,4.6308,4.6308,4.6308,4.6308,4.6308,4.6308,4.6307,4.6306,4.6304,4.63,4.63,4.6299,4.6297,4.6293,4.6309,4.6309,4.6303,4.63,4.63,4.63,4.63,4.63,4.63,4.63,4.63,4.63,4.63,4.63,4.63,4.63,4.63,4.63,4.6768,4.7295,4.7547,4.8504,4.9538,4.9987,5.0573,5.1102,5.1355,5.1394,5.139,5.1357,5.1355,5.133,5.1294,5.1325,5.1355,5.1355,5.1222,5.1146,5.1146,5.1031,5.0952,5.091,5.0874,5.081,5.0702,5.0712,5.0712,5.0712,5.0712,5.0712,5.0712,5.0712,5.0712,5.0712,5.0712,5.0712,5.0712,5.0712,5.0712,5.0712,5.0712,5.0712,4.0866,4.0912,4.1203,4.211,4.2333,4.2597,4.3535,4.3741,4.3997,4.4855,4.5049,4.5304,4.6144,4.63,4.6027,4.5187,4.5753,0.0,0.0,4.5773,4.63,4.63,4.63,4.63,4.63,4.63,4.6302,4.63,4.6302,4.6305,4.6293,4.6294,4.63,4.6307,4.6307,4.6308,4.6308,4.6308,4.6308,4.6308,4.6308,4.6307,4.6307,4.6304,4.63,4.6294,4.6294,4.6309,4.6302,4.6302,4.6302,4.6302,4.63,4.63,4.63,4.63,4.63,4.63,4.63,4.63,4.63,4.63,4.63,4.63,4.63,4.63,4.63,4.63,4.6319,4.6534,4.7372,4.7645,4.8094,4.9714,5.0124,5.0377,5.1219,5.1394,5.1362,5.1222,5.1207,5.1178,5.1036,5.1128,5.1207,5.1207,5.1084,5.1008,5.1008,5.0958,5.0902,5.0894,5.0775,5.0693,5.0712,5.0712,5.0712,5.0712,5.0712,5.0712,5.0712,5.0712,5.0712,5.0712,5.0712,5.0712,5.0712,5.0712,5.0712,5.0712,5.0712,5.0712,4.0815,4.0819,4.0917,4.1229,4.134,4.1612,4.256,4.2811,4.3083,4.3961,4.4146,4.4406,4.5285,4.5441,4.5539,4.5812,4.6105,4.6202,0.0,4.6105,4.63,4.63,4.63,4.63,4.63,4.63,4.63,4.63,4.63,4.6305,4.6293,4.6293,4.6296,4.6304,4.6304,4.6305,4.6306,4.6306,4.6306,4.6305,4.6305,4.6302,4.63,4.6297,4.6293,4.6305,4.6305,4.6303,4.63,4.63,4.63,4.63,4.63,4.63,4.63,4.63,4.63,4.63,4.63,4.63,4.63,4.63,4.63,4.63,4.63,4.63,4.63,4.63,4.63,4.6378,4.6651,4.7178,4.7879,4.8974,4.9675,5.0338,5.1219,5.133,5.1252,5.1207,5.1132,5.1053,5.1014,5.0991,5.1017,5.1053,5.0985,5.093,5.093,5.085,5.0776,5.0776,5.0731,5.0712,5.0712,5.0712,5.0712,5.0712,5.0712,5.0712,5.0712,5.0712,5.0712,5.0712,5.0712,5.0712,5.0712,5.0712,5.0712,5.0712,5.0712,5.0712,4.0797,4.0809,4.0806,4.0796,4.085,4.1052,4.1668,4.1854,4.2145,4.3024,4.3203,4.3474,4.4334,4.4759,4.5143,4.5711,4.6074,4.63,0.0,4.63,4.63,4.63,4.63,4.63,4.63,4.63,4.63,4.63,4.63,4.6303,4.6308,4.6308,4.6293,4.6299,4.6299,4.63,4.6301,4.6301,4.6301,4.6301,4.63,4.6297,4.6293,4.629,4.6306,4.63,4.63,4.63,4.63,4.63,4.63,4.63,4.63,4.63,4.63,4.63,4.63,4.63,4.63,4.63,4.63,4.63,4.63,4.63,4.63,4.63,4.63,4.63,4.63,4.63,4.63,4.6729,4.7409,4.8504,4.9181,4.9917,5.1025,5.1195,5.1123,5.1108,5.1016,5.0959,5.0903,5.0851,5.0863,5.0952,5.089,5.0816,5.0816,5.0749,5.0712,5.0712,5.0712,5.0712,5.0712,5.0712,5.0712,5.0712,5.0712,5.0712,5.0712,5.0712,5.0712,5.0712,5.0712,5.0712,5.0712,5.0712,5.0712,5.0712,5.0712,5.0712]}]]